[[{"header":{"parameterUnit":"m.s-1","parameterCategory":1,"la1":30.6,"la2":29.2853,"lo1":-89.7004,"lo2":-87.6739,"dy":0.0162,"dx":0.0183,"nx":112,"ny":82,"refTime":"2026-05-01T12:00:00:Z","depth":0,"parameterNumber":2,"parameterNumberName":"U-component_of_WINDS"},"data":[0.0,0.0,0.0,0.0,0.0,0.0,0.0,0.0,0.0,0.0,0.0,0.0,0.0,0.0,0.0,0.0,0.0,0.0,0.0,0.0,0.0,0.0,0.0,0.0,0.0,0.0,0.0,0.0,0.0,0.0,0.0,0.0,0.0,0.0,0.0,0.0,0.0,0.0,0.0,0.0,0.0,0.0,0.0,0.0,0.0,0.0,0.0,0.0,0.0,0.0,0.0,0.0,0.0,0.0,0.0,0.0,0.0,0.0,0.0,0.0,0.0,0.0,0.0,0.0,0.0,0.0,0.0,0.0,0.0,0.0,0.0,0.0,0.0,0.0,0.0,0.0,0.0,0.0,0.0,0.0,0.0,0.0,0.0,0.0,0.0,0.0,0.0,0.0,0.0,0.0,0.0,5.2383,5.8125,6.1445,6.0859,6.0312,5.6953,4.9726,0.0,0.0,0.0,0.0,0.0,0.0,0.0,0.0,0.0,0.0,0.0,0.0,0.0,0.0,0.0,0.0,0.0,0.0,0.0,0.0,0.0,0.0,0.0,0.0,0.0,0.0,0.0,0.0,0.0,0.0,0.0,0.0,0.0,0.0,0.0,0.0,0.0,0.0,0.0,0.0,0.0,0.0,0.0,0.0,0.0,0.0,0.0,0.0,0.0,0.0,0.0,0.0,0.0,0.0,0.0,0.0,0.0,0.0,0.0,0.0,0.0,0.0,0.0,0.0,0.0,0.0,0.0,0.0,0.0,0.0,0.0,0.0,0.0,0.0,0.0,0.0,0.0,0.0,0.0,0.0,0.0,0.0,0.0,0.0,0.0,0.0,0.0,0.0,0.0,0.0,0.0,0.0,0.0,0.0,0.0,0.0,0.0,0.0,0.0,0.0,0.0,0.0,0.0,0.0,4.8906,5.8047,6.0625,6.1953,6.2539,5.9961,5.6211,5.1328,0.0,0.0,0.0,0.0,0.0,0.0,0.0,0.0,0.0,0.0,0.0,0.0,0.0,0.0,0.0,0.0,0.0,0.0,0.0,0.0,0.0,0.0,0.0,0.0,0.0,0.0,0.0,0.0,0.0,0.0,0.0,0.0,0.0,0.0,0.0,0.0,0.0,0.0,0.0,0.0,0.0,0.0,0.0,0.0,0.0,0.0,0.0,0.0,0.0,0.0,0.0,0.0,0.0,0.0,0.0,0.0,0.0,0.0,0.0,0.0,0.0,0.0,0.0,0.0,0.0,0.0,0.0,0.0,0.0,0.0,0.0,0.0,0.0,0.0,0.0,0.0,0.0,0.0,0.0,0.0,0.0,0.0,0.0,0.0,0.0,0.0,0.0,0.0,0.0,0.0,0.0,0.0,0.0,0.0,0.0,0.0,0.0,0.0,0.0,0.0,0.0,0.0,0.0,4.8125,5.293,6.0937,6.2187,6.2578,6.2969,6.0312,5.6523,5.1719,4.6914,0.0,0.0,0.0,0.0,0.0,0.0,0.0,0.0,0.0,0.0,0.0,0.0,0.0,0.0,0.0,0.0,0.0,0.0,0.0,0.0,0.0,0.0,0.0,0.0,0.0,0.0,0.0,0.0,0.0,0.0,0.0,0.0,0.0,0.0,0.0,0.0,0.0,0.0,0.0,0.0,0.0,0.0,0.0,0.0,0.0,0.0,0.0,0.0,0.0,0.0,0.0,0.0,0.0,0.0,0.0,0.0,0.0,0.0,0.0,0.0,0.0,0.0,0.0,0.0,0.0,0.0,0.0,0.0,0.0,0.0,0.0,0.0,0.0,0.0,0.0,0.0,0.0,0.0,0.0,0.0,0.0,0.0,0.0,0.0,0.0,0.0,0.0,0.0,0.0,0.0,0.0,0.0,0.0,0.0,0.0,0.0,0.0,0.0,0.0,0.0,0.0,0.0,5.3828,5.7305,6.2734,6.332,6.332,6.332,6.039,5.6484,5.168,4.5937,0.0,0.0,0.0,0.0,0.0,0.0,0.0,0.0,0.0,0.0,0.0,0.0,0.0,0.0,0.0,0.0,0.0,0.0,0.0,0.0,0.0,0.0,0.0,0.0,0.0,0.0,0.0,0.0,0.0,0.0,0.0,0.0,0.0,0.0,0.0,0.0,0.0,0.0,0.0,0.0,0.0,0.0,0.0,0.0,0.0,0.0,0.0,0.0,0.0,0.0,0.0,0.0,0.0,0.0,0.0,0.0,0.0,0.0,0.0,0.0,0.0,0.0,0.0,0.0,0.0,0.0,0.0,0.0,0.0,0.0,0.0,0.0,0.0,0.0,0.0,0.0,0.0,0.0,0.0,0.0,0.0,0.0,0.0,0.0,0.0,0.0,0.0,0.0,0.0,0.0,0.0,0.0,0.0,0.0,0.0,0.0,0.0,0.0,0.0,0.0,0.0,0.0,5.4844,6.0195,6.3828,6.4219,6.4219,6.4219,5.9531,5.5078,5.1523,4.418,0.0,0.0,0.0,0.0,0.0,0.0,0.0,0.0,0.0,0.0,0.0,0.0,0.0,0.0,0.0,0.0,0.0,0.0,0.0,0.0,0.0,0.0,0.0,0.0,0.0,0.0,0.0,0.0,0.0,0.0,0.0,0.0,0.0,0.0,0.0,0.0,0.0,0.0,0.0,0.0,0.0,0.0,0.0,0.0,0.0,0.0,0.0,0.0,0.0,0.0,0.0,0.0,0.0,0.0,0.0,0.0,0.0,0.0,0.0,0.0,0.0,0.0,0.0,0.0,0.0,0.0,0.0,0.0,0.0,0.0,0.0,0.0,0.0,0.0,0.0,0.0,0.0,0.0,0.0,0.0,0.0,0.0,0.0,0.0,0.0,0.0,0.0,0.0,0.0,0.0,0.0,0.0,0.0,0.0,0.0,0.0,0.0,0.0,0.0,0.0,0.0,0.0,5.5273,6.0508,0.0,6.4805,6.4844,6.4219,6.0859,5.6627,5.1541,0.0,0.0,0.0,0.0,0.0,0.0,0.0,0.0,0.0,0.0,0.0,0.0,0.0,0.0,0.0,0.0,0.0,0.0,0.0,0.0,0.0,0.0,0.0,0.0,0.0,0.0,0.0,0.0,0.0,0.0,0.0,0.0,0.0,0.0,0.0,0.0,0.0,0.0,0.0,0.0,0.0,0.0,0.0,0.0,0.0,0.0,0.0,0.0,0.0,0.0,0.0,0.0,0.0,0.0,0.0,0.0,0.0,0.0,0.0,0.0,0.0,0.0,0.0,0.0,0.0,0.0,0.0,0.0,0.0,0.0,0.0,0.0,0.0,0.0,0.0,0.0,0.0,0.0,0.0,0.0,0.0,0.0,0.0,0.0,0.0,0.0,0.0,0.0,0.0,0.0,0.0,0.0,0.0,0.0,0.0,0.0,0.0,0.0,0.0,0.0,0.0,0.0,4.9883,5.6328,6.1719,0.0,6.625,6.6445,6.5781,6.2466,5.7897,5.1885,0.0,0.0,0.0,0.0,0.0,0.0,0.0,0.0,0.0,0.0,0.0,0.0,0.0,0.0,0.0,0.0,0.0,0.0,0.0,0.0,0.0,0.0,0.0,0.0,0.0,0.0,0.0,0.0,0.0,0.0,0.0,0.0,0.0,0.0,0.0,0.0,0.0,0.0,0.0,0.0,0.0,0.0,0.0,0.0,0.0,0.0,0.0,0.0,0.0,0.0,0.0,0.0,0.0,0.0,0.0,0.0,0.0,0.0,0.0,0.0,0.0,0.0,0.0,0.0,0.0,0.0,0.0,0.0,0.0,0.0,0.0,0.0,0.0,0.0,0.0,0.0,0.0,0.0,0.0,0.0,0.0,0.0,0.0,0.0,0.0,0.0,0.0,0.0,0.0,0.0,0.0,0.0,0.0,0.0,0.0,0.0,0.0,0.0,0.0,0.0,0.0,0.0,5.0898,5.8242,6.4375,6.7851,6.8828,6.9219,6.9218,6.4192,5.8527,0.0,0.0,0.0,0.0,0.0,0.0,0.0,0.0,0.0,0.0,0.0,0.0,0.0,0.0,0.0,0.0,0.0,0.0,0.0,0.0,0.0,0.0,0.0,0.0,0.0,0.0,0.0,0.0,0.0,0.0,0.0,0.0,0.0,0.0,0.0,0.0,0.0,0.0,0.0,0.0,0.0,0.0,0.0,0.0,0.0,0.0,0.0,0.0,0.0,0.0,0.0,0.0,0.0,0.0,0.0,0.0,0.0,0.0,0.0,0.0,0.0,0.0,0.0,0.0,0.0,0.0,0.0,0.0,0.0,0.0,0.0,0.0,0.0,0.0,0.0,0.0,0.0,0.0,0.0,0.0,0.0,0.0,0.0,0.0,0.0,0.0,0.0,0.0,0.0,0.0,0.0,0.0,0.0,0.0,0.0,0.0,0.0,0.0,0.0,0.0,0.0,0.0,0.0,0.0,6.1484,6.7461,6.9531,7.1015,7.1285,6.9828,6.656,6.1543,5.4357,0.0,0.0,0.0,0.0,0.0,0.0,0.0,0.0,0.0,0.0,0.0,0.0,0.0,0.0,0.0,0.0,0.0,0.0,0.0,0.0,0.0,0.0,0.0,0.0,0.0,0.0,0.0,0.0,0.0,0.0,0.0,0.0,0.0,0.0,0.0,0.0,0.0,0.0,0.0,0.0,0.0,0.0,0.0,0.0,0.0,0.0,0.0,0.0,0.0,0.0,0.0,0.0,0.0,0.0,0.0,0.0,0.0,0.0,0.0,0.0,0.0,0.0,0.0,0.0,0.0,0.0,0.0,0.0,0.0,0.0,0.0,0.0,0.0,0.0,0.0,0.0,0.0,0.0,0.0,0.0,0.0,0.0,0.0,0.0,0.0,0.0,0.0,0.0,0.0,0.0,0.0,0.0,0.0,0.0,0.0,0.0,0.0,0.0,0.0,0.0,0.0,0.0,5.5625,6.3555,6.9531,7.1836,7.3172,7.3401,7.216,6.9577,6.4588,5.6606,0.0,0.0,0.0,0.0,0.0,0.0,0.0,0.0,0.0,0.0,0.0,0.0,0.0,0.0,0.0,0.0,0.0,0.0,0.0,0.0,0.0,0.0,0.0,0.0,0.0,0.0,0.0,0.0,0.0,0.0,0.0,0.0,0.0,0.0,0.0,0.0,0.0,0.0,0.0,0.0,0.0,0.0,0.0,0.0,0.0,0.0,0.0,0.0,0.0,0.0,0.0,0.0,0.0,0.0,0.0,0.0,0.0,0.0,0.0,0.0,0.0,0.0,0.0,0.0,0.0,0.0,0.0,0.0,0.0,0.0,0.0,0.0,0.0,0.0,0.0,0.0,0.0,0.0,0.0,0.0,0.0,0.0,0.0,0.0,0.0,0.0,0.0,0.0,0.0,0.0,0.0,0.0,0.0,0.0,0.0,0.0,0.0,0.0,0.0,0.0,0.0,0.0,5.7344,6.4922,7.1055,7.4414,7.5238,7.5485,7.5365,7.2686,6.7494,5.9288,0.0,0.0,0.0,0.0,0.0,0.0,0.0,0.0,0.0,0.0,0.0,0.0,0.0,0.0,0.0,0.0,0.0,0.0,0.0,0.0,0.0,0.0,0.0,0.0,0.0,0.0,0.0,0.0,0.0,0.0,0.0,0.0,0.0,0.0,0.0,0.0,0.0,0.0,0.0,0.0,0.0,0.0,0.0,0.0,0.0,0.0,0.0,0.0,0.0,0.0,0.0,0.0,0.0,0.0,0.0,0.0,0.0,0.0,0.0,0.0,4.2312,0.0,0.0,0.0,0.0,0.0,0.0,0.0,0.0,0.0,0.0,0.0,0.0,0.0,0.0,0.0,0.0,0.0,0.0,0.0,0.0,0.0,0.0,0.0,0.0,0.0,0.0,0.0,0.0,0.0,0.0,0.0,0.0,0.0,0.0,0.0,0.0,0.0,0.0,0.0,0.0,0.0,5.9101,6.7226,7.3437,7.5898,7.6817,7.6885,7.5917,7.3445,6.9135,6.2631,0.0,0.0,0.0,0.0,0.0,0.0,0.0,0.0,0.0,0.0,0.0,0.0,0.0,0.0,0.0,0.0,0.0,0.0,0.0,0.0,0.0,0.0,0.0,0.0,0.0,0.0,0.0,0.0,0.0,0.0,0.0,0.0,0.0,0.0,0.0,0.0,0.0,0.0,0.0,0.0,0.0,0.0,0.0,0.0,0.0,0.0,0.0,0.0,0.0,0.0,0.0,0.0,0.0,0.0,0.0,0.0,0.0,0.0,0.0,0.0,0.0,4.6219,0.0,0.0,0.0,0.0,0.0,0.0,0.0,0.0,0.0,0.0,0.0,0.0,0.0,0.0,0.0,0.0,0.0,0.0,0.0,0.0,0.0,0.0,0.0,0.0,0.0,0.0,0.0,0.0,0.0,0.0,0.0,0.0,0.0,0.0,0.0,0.0,0.0,0.0,0.0,0.0,6.0312,6.8476,7.4531,7.6523,7.7324,7.7272,7.6245,7.4119,7.0815,6.605,5.8965,0.0,0.0,0.0,0.0,0.0,0.0,0.0,0.0,0.0,0.0,0.0,0.0,0.0,0.0,0.0,0.0,0.0,0.0,0.0,0.0,0.0,0.0,0.0,0.0,0.0,0.0,0.0,0.0,0.0,0.0,0.0,0.0,0.0,0.0,0.0,0.0,0.0,0.0,0.0,0.0,0.0,0.0,0.0,0.0,0.0,0.0,0.0,0.0,0.0,0.0,0.0,0.0,0.0,0.0,0.0,6.1092,6.0867,6.0732,6.0468,5.7896,5.5477,5.3178,0.0,0.0,0.0,0.0,0.0,0.0,0.0,0.0,0.0,0.0,0.0,0.0,0.0,0.0,0.0,0.0,0.0,0.0,0.0,0.0,0.0,0.0,0.0,0.0,0.0,5.8711,5.7656,0.0,0.0,0.0,0.0,0.0,0.0,0.0,0.0,0.0,0.0,0.0,0.0,6.164,6.9336,7.4958,7.661,7.7138,7.7083,7.6284,7.4533,7.216,6.9036,6.29,5.7527,0.0,0.0,0.0,0.0,0.0,0.0,0.0,0.0,0.0,0.0,0.0,0.0,0.0,0.0,0.0,0.0,0.0,0.0,0.0,0.0,0.0,0.0,0.0,0.0,0.0,0.0,0.0,0.0,0.0,0.0,0.0,0.0,3.8631,3.898,0.0,0.0,0.0,0.0,0.0,0.0,0.0,0.0,0.0,0.0,0.0,0.0,0.0,0.0,5.8008,6.1914,6.3943,6.4039,6.784,6.9692,6.9749,6.959,6.954,6.9536,6.9679,0.0,5.7512,5.6477,0.0,0.0,0.0,0.0,0.0,0.0,0.0,0.0,0.0,0.0,0.0,0.0,0.0,0.0,0.0,0.0,0.0,0.0,0.0,0.0,0.0,0.0,6.2578,6.3164,6.4531,6.5234,0.0,5.664,5.0273,4.8125,0.0,0.0,0.0,0.0,0.0,0.0,0.0,0.0,6.4101,7.0351,7.4825,7.6219,7.6426,7.6322,7.6053,7.4456,7.265,7.0706,6.6293,6.2196,5.8665,5.2927,0.0,0.0,0.0,0.0,0.0,0.0,0.0,0.0,0.0,0.0,0.0,0.0,0.0,0.0,0.0,0.0,0.0,0.0,0.0,0.0,0.0,0.0,0.0,0.0,0.0,0.0,0.0,0.0,0.0,3.9834,4.3672,4.2226,4.4101,4.4258,0.0,0.0,0.0,0.0,0.0,0.0,0.0,0.0,0.0,6.0234,6.1206,6.312,6.62,6.858,7.0153,7.0965,7.2827,7.3889,7.4149,7.3986,7.3909,7.3909,7.4207,7.2024,6.796,6.3795,6.0396,5.7538,0.0,0.0,0.0,0.0,0.0,0.0,5.8004,0.0,0.0,0.0,0.0,0.0,0.0,0.0,0.0,0.0,0.0,0.0,0.0,0.0,0.0,6.7305,6.8125,6.832,6.8437,6.4453,5.9609,0.0,5.3672,5.1094,4.5703,0.0,0.0,0.0,0.0,0.0,6.5469,7.0678,7.4577,7.6139,7.6207,7.6092,7.6015,7.4456,7.3178,7.2388,6.8844,6.5613,6.322,5.7887,5.2593,0.0,0.0,0.0,0.0,0.0,0.0,0.0,0.0,0.0,0.0,0.0,0.0,0.0,0.0,0.0,0.0,0.0,0.0,0.0,0.0,0.0,0.0,0.0,0.0,0.0,0.0,0.0,0.0,4.4375,4.7773,4.5625,4.8633,4.9141,0.0,0.0,0.0,0.0,0.0,0.0,5.7812,5.9805,6.2725,6.6736,6.7956,6.9988,7.2893,7.3799,7.4767,7.5876,7.6095,7.6532,7.7177,7.7053,7.6976,7.6976,7.6976,7.6861,7.6169,7.0052,6.6282,6.4128,6.0997,5.9688,0.0,6.0528,6.0419,6.0444,6.4706,6.5654,6.4872,6.4206,0.0,5.9703,5.5231,0.0,0.0,0.0,0.0,5.8633,6.3047,0.0,6.6992,7.039,7.0898,7.0781,7.1484,7.0273,6.7539,0.0,6.043,5.789,5.1875,0.0,0.0,0.0,0.0,6.3744,6.7319,7.1435,7.4601,7.6053,7.6092,7.6015,7.6015,7.4456,7.3601,7.379,7.0821,6.8471,6.7253,6.2708,5.7925,0.0,0.0,0.0,0.0,0.0,0.0,0.0,0.0,0.0,0.0,0.0,0.0,0.0,0.0,0.0,0.0,0.0,0.0,0.0,0.0,0.0,0.0,0.0,0.0,0.0,0.0,0.0,0.0,0.0,0.0,4.9961,5.3633,0.0,0.0,0.0,0.0,5.4765,5.8789,6.2305,6.4922,6.7539,7.0424,7.3688,7.3875,7.4643,7.6263,7.713,7.7476,7.74,7.8246,7.8946,7.9631,7.9631,7.9631,7.9631,7.9631,7.9131,7.8015,7.3668,7.1321,7.0206,6.7756,6.6359,6.573,6.6538,6.6857,6.7061,6.8833,6.8898,6.8552,7.0898,6.891,6.5116,6.2459,6.0596,0.0,0.0,6.2558,6.4922,6.6875,6.9219,7.1328,7.2344,7.3203,7.3828,7.4062,7.2734,7.0547,0.0,6.5664,6.3789,6.0195,0.0,0.0,6.0508,6.3164,6.6538,7.0459,7.3273,7.5216,7.5938,7.6015,7.6015,7.6015,7.4456,7.3832,7.4588,7.2195,7.0744,7.0667,6.7359,6.3488,5.9119,5.2469,0.0,0.0,0.0,0.0,0.0,0.0,0.0,0.0,0.0,0.0,0.0,0.0,0.0,0.0,0.0,0.0,0.0,0.0,0.0,0.0,0.0,0.0,0.0,0.0,0.0,0.0,0.0,0.0,5.5195,5.8945,0.0,0.0,5.8789,6.0742,6.1055,6.5586,6.8984,7.0469,7.2887,7.502,7.6701,7.7585,7.8538,7.9638,8.0484,8.1093,8.1407,8.1869,8.217,8.2247,8.2247,8.2247,8.2247,8.2247,8.2054,8.1631,7.9554,7.7246,7.4822,7.2832,7.1871,7.1668,7.1948,7.2035,7.2217,7.336,7.3553,7.3168,7.2437,7.0448,6.8102,6.664,6.5782,6.5577,6.6526,6.7862,6.9282,7.0544,7.1979,7.3161,7.3433,7.3762,7.4033,7.4111,7.364,7.2851,7.168,6.957,6.6813,6.3278,6.4028,6.4818,6.3785,6.6283,6.9342,7.2426,7.3986,7.5101,7.5899,7.6015,7.6015,7.6015,7.4456,7.3601,7.3906,7.2024,7.0431,6.9344,6.7614,6.4667,6.043,5.6383,5.099,0.0,0.0,0.0,0.0,0.0,0.0,0.0,0.0,0.0,0.0,0.0,0.0,0.0,0.0,0.0,0.0,0.0,0.0,0.0,0.0,0.0,0.0,0.0,0.0,0.0,0.0,5.9726,6.0039,6.3773,6.5152,6.2109,6.4844,6.6901,6.7229,7.1204,7.4099,7.5188,7.7331,7.8844,7.9607,8.0792,8.1638,8.2138,8.267,8.3163,8.3593,8.3747,8.3901,8.4055,8.4055,8.4055,8.4055,8.4055,8.3862,8.3555,8.2978,8.1439,7.9208,7.7207,7.6245,7.5976,7.5976,7.5976,7.6053,7.663,7.6823,7.6515,7.4553,7.3168,7.2052,7.0875,7.0733,7.1025,7.1409,7.236,7.3399,7.4101,7.487,7.5553,7.5553,7.5553,7.5447,7.5255,7.5197,7.5055,7.4548,7.251,7.0015,6.7332,6.8281,6.8867,6.7236,6.9362,7.1881,7.3803,7.4678,7.5592,7.6736,7.6322,7.613,7.6399,7.4072,7.288,7.3482,7.1074,6.9222,6.8433,6.7011,6.468,6.1288,5.758,5.2508,4.602,0.0,0.0,0.0,0.0,0.0,0.0,0.0,0.0,0.0,0.0,0.0,0.0,0.0,0.0,0.0,0.0,0.0,0.0,0.0,0.0,0.0,0.0,0.0,5.539,5.9922,6.3515,6.4453,6.8136,6.9684,6.7448,7.0038,7.2266,7.312,7.5595,7.7676,7.9131,8.0837,8.204,8.2638,8.3484,8.3901,8.367,8.3708,8.3747,8.3747,8.3747,8.4209,8.5016,8.5016,8.5016,8.5016,8.5016,8.4555,8.3747,8.3708,8.3708,8.3439,8.09,7.94,7.8669,7.8669,7.8669,7.8669,7.8631,7.8592,7.8438,7.763,7.7361,7.7015,7.5351,7.5418,7.5918,7.5062,7.6053,7.7352,7.7352,7.792,7.8498,7.8498,7.8498,7.8344,7.7766,7.7651,7.7198,7.5707,7.4573,7.3553,7.2694,7.2462,7.2118,7.1168,7.2601,0.0,7.4716,7.5524,7.6698,7.8267,7.7006,7.6361,7.7198,7.3389,7.1699,7.3366,6.9525,6.7522,6.8317,6.6,6.3886,6.2183,5.6328,5.1275,4.714,0.0,0.0,0.0,0.0,0.0,0.0,0.0,0.0,0.0,0.0,0.0,0.0,0.0,0.0,0.0,0.0,0.0,0.0,0.0,0.0,0.0,0.0,5.9687,5.9922,6.3867,6.7773,7.0508,7.281,7.4168,7.417,7.5354,7.6494,7.7351,7.9285,8.0816,8.1821,8.2747,8.3355,8.3522,8.4824,8.5478,8.5401,8.6671,8.7286,8.7286,8.7286,8.7401,8.7671,8.7671,8.7671,8.7671,8.7671,8.7517,8.7248,8.6632,8.5978,8.5209,8.3285,8.2401,8.2208,8.2208,8.2208,8.2093,8.1477,8.0862,8.0246,7.94,7.8669,7.8054,7.7592,7.7622,7.7766,7.7523,7.7801,7.8146,7.8146,7.8331,7.8523,7.8523,7.8523,7.8446,7.8292,7.8246,7.8113,7.7689,7.7369,7.6376,7.3816,7.3343,7.3409,7.364,0.0,0.0,7.6467,7.7293,7.7754,7.7622,7.7216,7.6763,7.6399,7.4149,7.2706,0.0,7.0298,6.8527,6.7475,6.6781,6.5326,6.3037,5.8341,5.4814,0.0,0.0,0.0,0.0,0.0,0.0,0.0,0.0,0.0,0.0,0.0,0.0,0.0,0.0,0.0,0.0,0.0,0.0,0.0,0.0,0.0,0.0,6.0976,6.5414,6.6774,6.915,7.1745,7.4483,7.6064,7.7316,7.8276,7.8928,7.9648,8.0516,8.1841,8.3099,8.4209,8.4632,8.517,8.5901,8.6748,8.7171,8.7171,8.8171,8.8709,8.8709,8.8709,8.8709,8.8709,8.8709,8.8709,0.0,8.8709,8.8709,8.8671,8.8132,8.7632,0.0,0.0,0.0,0.0,0.0,8.3593,8.3516,8.3016,8.2554,8.2054,8.1554,8.0785,8.0015,7.9669,7.9584,7.9507,7.9177,7.93,7.96,7.96,7.96,7.96,7.96,7.96,7.9492,7.9107,7.9054,7.893,7.8554,0.0,0.0,7.6032,7.5716,7.5745,7.5784,7.6496,7.7218,0.0,7.8185,7.8608,7.8892,7.8246,7.7746,7.7583,7.5062,0.0,0.0,0.0,6.7526,6.5103,6.4653,0.0,0.0,0.0,0.0,0.0,0.0,0.0,0.0,5.1506,5.0912,0.0,0.0,0.0,0.0,0.0,0.0,0.0,0.0,0.0,0.0,0.0,0.0,0.0,0.0,0.0,0.0,6.6049,7.1019,7.4168,7.4804,7.5526,7.7124,7.8377,7.9523,8.0568,8.1253,8.1977,8.2798,8.3676,8.4786,8.617,0.0,0.0,0.0,0.0,8.8825,8.8825,8.894,8.8979,8.8979,8.8979,8.8979,8.8979,8.8979,8.8979,8.8979,8.8979,8.8979,8.8979,8.8863,8.8786,8.8479,8.6209,8.4863,8.417,8.4055,8.4016,0.0,0.0,0.0,0.0,8.3632,8.3093,8.2324,8.1593,8.1362,8.1208,8.0446,8.0785,8.1362,8.1362,8.1362,8.1362,8.1362,8.1362,8.1131,8.0254,8.0061,7.9831,7.8954,7.88,7.88,7.88,7.8631,7.8267,7.7545,7.8151,0.0,7.8646,7.8723,7.9338,8.0823,0.0,0.0,7.9605,7.6024,7.3755,7.3647,6.972,6.6051,6.3092,6.2106,6.1236,6.0367,6.0364,6.1089,6.2521,6.2521,6.2906,6.343,5.5791,5.4287,0.0,0.0,0.0,0.0,0.0,0.0,0.0,0.0,0.0,0.0,0.0,0.0,0.0,0.0,0.0,6.4101,6.9498,7.4075,7.6087,7.7885,7.9146,7.9677,8.0446,8.1215,8.2099,8.2785,8.3516,8.4401,8.5209,8.6132,8.7094,8.7825,0.0,8.8671,8.9325,8.9671,8.9671,9.0364,9.071,9.071,0.0,0.0,9.071,9.071,9.071,9.071,9.071,9.071,9.0671,8.9979,8.9286,8.8632,8.8171,8.7863,8.7632,8.6901,8.6671,8.6478,8.5132,8.467,8.4516,8.3824,8.3478,8.3324,8.3131,8.3125,0.0,8.2894,8.3002,8.3118,8.3118,8.3118,8.3118,8.3118,8.3118,8.2887,8.2009,8.1816,8.1554,8.0785,8.0631,8.0631,8.0631,7.9446,7.8454,7.83,7.8985,7.9561,7.9561,8.0138,8.0446,8.01,7.9754,7.9331,7.8792,7.6771,7.5203,7.4486,7.1145,6.8924,6.8283,6.7408,6.6506,6.5673,6.5639,6.5499,6.5166,6.5166,6.5268,6.5345,6.2983,6.2344,0.0,0.0,0.0,0.0,0.0,0.0,0.0,0.0,0.0,0.0,0.0,5.5312,5.7461,0.0,6.5941,6.9399,7.3064,7.616,7.8216,7.9415,8.0292,8.083,8.1446,8.233,8.3632,8.4439,8.5209,8.6094,8.694,8.7594,8.8017,8.844,8.8709,8.8709,8.9094,8.9479,8.9902,9.0325,9.0787,9.121,9.121,9.1441,9.1864,9.1864,9.2056,9.2441,9.2018,9.1864,9.1787,9.0902,9.0325,8.994,8.994,8.944,8.8632,8.8209,8.8055,8.794,8.7094,8.6786,8.6671,8.5786,8.5209,8.4786,8.4362,8.3939,8.3593,8.3587,8.3625,8.3593,8.3593,8.3593,8.3593,8.3593,8.3593,8.3478,8.3022,8.2971,8.2848,8.2432,8.2355,8.2355,8.2355,8.1662,8.0785,7.9946,8.0177,8.0446,8.0446,8.0823,8.0939,8.0484,8.0446,8.0254,7.9831,7.8254,7.6524,7.4832,7.2745,7.1041,6.9759,6.9284,6.8822,6.8398,6.8385,6.8398,6.8398,6.8398,6.8629,6.904,6.8604,6.7731,0.0,0.0,0.0,0.0,0.0,0.0,0.0,0.0,5.3203,5.5937,5.8421,6.1158,6.4598,6.7476,7.0486,7.3914,7.6041,7.7926,7.9845,8.0215,8.06,8.1484,8.217,8.317,8.4747,8.5632,8.6401,8.7094,8.794,8.844,8.844,8.8594,8.8748,8.894,8.894,8.9325,9.0133,9.0171,9.0517,9.121,9.121,9.1556,9.2249,9.2249,9.2595,9.3172,9.2518,9.2326,9.2441,9.1748,9.1556,9.1672,9.1518,9.0633,8.9402,8.9056,8.894,8.8902,8.8748,8.8709,8.8556,8.7863,8.7171,8.6478,8.5824,8.5055,8.433,8.4324,8.4214,8.4105,8.4105,8.4105,8.4105,8.4105,8.4105,8.4028,8.3912,8.3862,8.3811,8.3625,8.3587,8.3587,8.3587,8.3587,8.3125,8.1816,8.1593,8.1593,8.1593,8.1593,8.1593,8.1593,8.1593,8.1516,8.1323,7.9892,7.8045,7.5831,7.4764,7.3303,7.1255,7.1025,7.0832,7.0679,7.0679,7.0909,7.1437,7.1437,7.186,7.2696,7.285,7.1668,4.5976,4.6211,4.7773,5.1016,5.1914,5.4023,0.0,0.0,6.1367,6.4765,6.6775,6.8078,6.8539,7.1859,7.4635,7.5091,7.7707,7.9807,8.0061,8.0631,8.1285,8.2093,8.2939,8.3824,8.4824,8.5632,8.6132,8.6247,8.7055,8.7555,8.7555,8.8286,8.9017,8.9748,8.9787,9.0171,9.1056,9.1056,9.1095,9.121,9.121,9.1248,9.1364,9.1364,9.1402,9.1479,9.1364,9.1787,9.2479,9.2402,9.2787,9.3364,9.2633,9.2249,9.1902,9.0325,8.9787,8.9671,8.894,8.8709,8.8671,8.8594,8.8479,8.8402,8.8286,8.7671,8.6978,8.6973,8.6401,8.5824,8.5824,8.5824,8.5824,8.5824,8.5824,8.5599,8.4907,8.4753,8.4522,8.3759,8.3605,8.3605,8.3605,8.3605,8.3522,8.3349,8.331,8.331,8.331,8.331,8.331,8.331,8.331,8.3002,8.224,8.1354,8.0362,7.9292,7.7746,7.6736,7.6467,7.5707,7.4909,7.4178,7.4139,7.3803,7.3226,7.3226,7.3611,7.4447,7.5207,7.4601,5.2851,5.2969,5.3789,5.7695,5.9453,6.1391,6.5917,6.6489,6.6742,6.9041,7.044,7.1711,7.3255,7.4796,7.6392,0.0,7.9561,8.0862,8.1323,8.1631,8.19,8.2247,8.3054,8.4132,8.5478,8.6824,8.7825,8.8286,8.8671,8.8863,8.8863,8.8748,8.8863,8.9171,8.921,8.9594,9.0441,9.0441,9.071,9.121,9.121,9.1479,9.1979,9.1979,9.1979,9.1979,9.1979,9.1864,9.1748,9.1748,9.1941,9.221,9.1864,9.1748,9.1672,9.0941,9.0671,9.0633,9.0287,9.0133,9.0056,8.9556,8.9402,8.9325,8.8825,8.844,8.8132,8.8128,8.7891,8.7589,8.7589,8.7589,8.7589,8.7589,8.7589,8.7512,8.7166,8.7127,8.7012,8.6632,8.617,8.5824,8.5824,8.5368,8.5022,8.5049,8.4209,8.3632,8.3632,8.3632,8.3632,8.3632,8.3632,8.3445,8.3099,8.2753,8.1984,8.0638,7.99,7.9054,7.8023,7.7677,7.7262,7.6916,7.6899,7.6775,7.6399,7.6399,7.6583,7.6929,7.7293,7.7339,5.6445,5.7539,5.914,6.2734,6.5247,6.728,6.8847,6.9702,7.0591,7.2153,7.2947,7.3992,7.6111,7.6716,7.76,7.9677,8.0823,8.1708,8.2554,8.2439,8.2285,8.2285,8.2862,8.3901,8.5593,8.7325,8.8594,8.9171,8.944,8.9556,8.9556,8.9017,8.8786,8.9017,8.9017,8.944,9.0248,9.0287,9.0594,9.121,9.121,9.1518,9.2133,9.2133,9.2133,9.2133,9.2133,9.1902,9.1556,9.1556,9.171,9.1864,9.1633,9.1556,9.1518,9.1287,9.121,9.121,9.121,9.121,9.1095,9.0479,9.0287,9.0171,8.9556,8.921,8.9017,8.9013,8.8859,8.87,8.8705,8.8705,8.8705,8.8705,8.8705,8.8628,8.8397,8.8551,8.8628,8.8397,8.8017,8.7748,8.7743,8.7242,8.6819,8.6819,8.5786,8.483,8.4335,8.4297,8.4297,8.4297,8.4297,8.4297,8.4297,8.4105,8.3413,8.2247,8.19,8.1208,7.9946,7.9908,7.9715,7.9223,7.9238,7.8998,7.8507,7.8507,7.8738,7.9229,7.9215,7.9792,5.457,5.8242,6.2969,6.4765,6.7656,7.0518,7.2169,7.2553,7.3082,7.4822,7.5053,7.5207,7.613,7.7476,7.8746,7.9669,8.1208,8.2554,8.3439,8.2824,8.2285,8.2285,8.2324,8.3016,0.0,8.644,8.744,8.7478,8.8248,8.8748,8.8748,8.8709,8.9056,8.9863,8.9863,9.0287,9.1171,9.1171,9.1171,9.121,9.121,9.121,9.1248,9.1248,9.1248,9.1248,9.1248,9.171,9.2441,9.2441,9.2903,9.3557,9.2749,9.2441,9.2364,9.1518,9.121,9.121,9.121,9.121,9.121,9.1171,9.1171,9.1171,9.1133,9.0517,8.9863,8.9867,8.9325,8.8709,8.8679,8.8717,8.8717,8.8717,8.8717,8.8487,8.7606,8.8106,8.8448,8.7606,8.8106,8.8675,8.8661,8.8623,8.8623,8.8623,8.8584,8.793,8.6247,8.6017,8.6017,8.6017,8.6017,8.6017,8.6017,8.5291,8.483,8.4791,8.3971,8.3503,8.3426,8.3426,8.2663,8.1054,8.1016,8.0177,7.8531,7.8531,7.9338,8.1016,8.1016,8.1932,6.0568,6.3242,6.6039,7.0083,7.234,7.4136,7.6263,7.6331,7.5908,7.5784,7.4361,7.3399,7.4284,7.4861,7.6015,7.8515,8.1323,8.3478,8.4324,8.517,8.4824,8.2554,8.3785,0.0,0.0,0.0,0.0,8.894,8.8825,8.9171,9.0287,8.9825,8.9902,9.0748,9.0748,9.0902,9.121,9.121,9.121,9.121,9.121,9.121,9.121,9.1787,9.2056,9.2095,9.2633,9.3018,9.3287,9.3287,9.3441,9.3672,9.3403,9.2979,9.2518,9.2787,9.2133,9.121,9.121,9.121,9.121,9.121,9.121,9.121,9.121,9.1018,9.0748,9.0787,9.0594,9.0364,9.0367,9.0367,9.0367,9.0367,9.0367,9.029,8.9983,9.0167,9.0244,8.9983,8.9713,8.9521,8.9517,8.9056,8.8675,8.8675,8.8705,8.8507,8.793,8.782,8.7589,8.7012,8.6973,8.6709,8.617,8.5863,8.5445,8.4945,8.4632,8.4209,8.3599,8.3599,8.333,8.2759,8.2747,8.2471,8.1893,8.1893,8.2201,8.2771,8.2753,8.3638,6.5311,6.7735,6.9967,7.4205,7.5848,7.674,7.7985,7.763,7.6746,7.5745,7.3514,7.1898,7.2476,7.236,7.3437,7.7438,8.04,8.3054,8.5478,8.644,8.6132,8.3939,8.4555,8.467,0.0,0.0,0.0,8.8863,8.9094,8.9594,9.0671,9.0517,9.0633,9.1171,9.1518,9.1518,9.121,9.1787,9.2095,9.2095,9.2095,9.2095,9.2095,9.2672,9.2941,9.2941,9.348,9.371,9.371,9.371,9.371,9.371,9.371,9.3364,9.2979,9.3518,9.3018,9.2056,9.1748,9.1479,9.121,9.121,9.121,9.121,9.121,9.121,9.121,9.121,9.121,9.121,9.121,9.121,9.121,9.121,9.121,9.1133,9.0825,9.0975,9.1125,9.0787,9.0521,9.0367,9.0367,8.9944,8.9563,8.9563,8.9594,8.9359,8.8782,8.8705,8.8479,8.794,8.7858,8.7627,8.7089,8.705,8.6819,8.6286,8.6247,8.6017,8.5445,8.5406,8.5137,8.4489,8.4478,8.4202,8.3625,8.3894,8.4202,8.4472,8.4824,8.5709,6.8569,7.1535,7.4495,7.7044,7.81,7.8377,7.76,7.6746,7.5784,7.4784,7.2437,7.0552,0.0,0.0,7.1168,7.6207,7.8707,8.1747,8.6709,8.6748,8.6247,0.0,0.0,0.0,0.0,0.0,0.0,8.7363,0.0,8.9902,8.9979,9.0787,9.1287,9.1287,9.2095,9.2172,9.1325,9.2903,9.371,9.371,9.371,9.371,9.371,9.3749,9.3749,9.3749,9.3787,9.3826,9.3826,9.3826,9.3826,9.3826,9.3826,9.3787,9.3749,9.3826,9.3787,9.3595,9.2864,9.2018,9.1287,9.1287,9.1248,9.121,9.121,9.121,9.121,9.121,9.121,9.121,9.121,9.121,9.121,9.121,9.121,9.0979,9.0136,9.0598,9.0979,9.0136,9.0598,9.121,9.121,9.121,9.121,9.121,9.121,9.0598,8.9025,8.8833,8.8833,8.8794,8.8748,8.8738,8.87,8.87,8.87,8.87,8.87,8.87,8.87,8.87,8.7897,8.6286,8.6247,8.5445,8.3874,8.4714,8.5483,8.6247,8.7089,8.7935,7.3138,7.534,7.6976,7.9554,7.9792,7.9408,7.9208,7.8006,7.6198,7.3399,6.9283,6.582,0.0,0.0,0.0,7.2783,7.8631,0.0,8.694,8.8286,0.0,8.6324,0.0,8.6978,8.5901,8.6978,0.0,0.0,8.8748,8.9556,9.0787,9.171,9.2172,9.2172,9.2979,9.3287,9.3056,9.348,9.371,9.371,9.371,9.371,9.371,9.4364,9.4672,9.4711,9.5365,9.5634,9.5634,9.5634,9.5634,9.5634,9.5634,9.5249,9.4749,9.5403,9.4826,9.3749,9.421,9.3403,9.2172,9.2172,9.1748,9.121,9.121,9.121,9.121,9.121,9.121,9.121,9.121,9.121,9.121,9.121,9.121,9.1133,9.0941,9.1056,9.1133,9.0941,9.1056,9.121,9.121,9.121,9.121,9.121,9.121,9.1056,9.0598,9.0559,9.029,8.9675,8.9598,8.9329,8.8752,8.8714,8.8714,8.8714,8.8714,8.8714,8.8714,8.8714,8.8483,8.8025,8.8017,8.782,8.7396,8.7627,8.7825,8.8025,8.8256,8.8829,7.6801,7.89,8.0315,8.1393,8.0977,7.9785,7.7535,7.5716,7.3212,6.8693,6.4897,6.1858,6.0165,6.1935,6.5282,0.0,0.0,0.0,8.6824,8.8556,8.8979,0.0,8.7979,0.0,8.7286,8.8132,8.8863,0.0,8.9248,8.9787,9.1133,9.2018,9.2672,9.3018,9.3826,9.4441,9.4826,9.4441,9.4441,9.4826,9.4826,9.4826,9.4864,9.5365,9.5557,9.5595,0.0,9.6288,9.6288,9.6288,9.6288,9.6288,9.6288,9.6019,9.5634,9.6134,9.5672,9.4903,9.5403,9.4711,9.3518,9.3133,9.271,9.2287,9.2287,9.2287,9.2287,9.2287,9.2056,9.1787,9.1748,9.1479,9.121,9.121,9.121,9.121,9.121,9.121,9.121,9.121,9.1518,9.1633,9.1287,9.1518,9.1633,9.1248,9.121,9.121,9.121,9.121,9.1018,9.0521,9.0444,9.029,8.9867,8.9829,8.9829,8.9829,8.9829,8.9829,8.9829,8.9829,8.9636,8.9217,8.9248,8.9051,8.8709,8.9051,8.9402,8.9829,9.0175,9.0825,7.9999,8.2001,8.3401,8.2663,8.1785,7.9777,7.4653,7.2007,6.8897,6.2959,6.0089,5.8204,5.6742,5.8742,6.2627,6.8706,0.0,8.0746,8.6709,8.8209,8.8979,8.9825,8.8632,8.8017,8.8786,8.894,8.9363,9.0171,9.0248,9.0594,9.1325,9.2287,9.321,9.4018,9.4788,9.5518,9.6288,9.5557,9.5557,9.6288,9.6288,9.6288,9.6288,9.6288,9.6288,9.6288,0.0,0.0,9.6288,9.6288,9.6288,9.6288,9.6288,9.6288,9.6288,9.6288,9.6288,9.6288,9.6288,9.5826,9.5018,9.4172,9.3787,9.371,9.371,9.371,9.371,9.371,9.321,9.2672,9.2669,9.2095,9.1518,9.1402,9.1364,9.1325,9.121,9.121,9.121,9.121,9.1899,9.2284,9.1518,9.1979,9.2245,9.1479,9.1287,9.121,9.121,9.121,9.1248,9.1364,9.1364,9.1402,9.1518,9.1518,9.1518,9.1518,9.1518,9.1518,9.1518,9.1518,9.1171,9.0406,9.0406,9.0059,8.9371,9.0059,9.0787,9.1556,9.2287,9.3015,8.3163,8.3817,8.3555,8.3413,8.2215,7.9777,7.4641,7.107,6.7132,6.1196,5.6934,5.4203,5.3895,5.7088,6.1897,6.8629,7.5245,8.167,8.7632,8.8594,8.8979,0.0,8.9633,8.9517,8.9671,9.0325,0.0,0.0,0.0,0.0,9.2287,9.371,9.4941,9.5826,9.6019,9.6134,9.6288,9.6134,9.6134,9.6288,9.6288,9.6288,9.6288,9.6288,9.6288,9.6288,0.0,0.0,9.6288,9.6288,9.6288,9.6288,9.6288,9.6288,9.6288,9.6288,9.6288,9.6288,9.6288,9.6211,9.5942,9.5057,9.4287,9.371,9.371,9.371,9.371,9.371,9.3595,9.348,9.348,9.3364,9.313,9.2438,9.2284,9.2091,9.1364,9.121,9.121,9.121,9.1899,9.2441,9.233,9.2405,9.2438,9.2322,9.1633,9.121,9.121,9.121,9.1479,9.2207,9.2284,9.2553,9.3243,9.3281,9.3281,9.3281,9.3281,9.3281,9.3281,9.3281,9.3204,9.3015,9.3015,9.2938,9.2823,9.2938,9.3127,9.3281,9.3405,9.3561,8.485,8.5549,8.5363,8.4484,8.2317,7.8623,7.175,6.7564,6.3029,5.5745,5.2626,5.1087,5.0625,5.4357,5.9165,6.4243,7.0398,7.6784,8.317,8.4824,8.6517,8.9556,8.9902,9.0094,9.0517,9.0941,0.0,0.0,0.0,0.0,9.3787,9.498,9.5865,9.6288,9.6288,9.6288,9.6288,9.6288,9.6288,9.6288,9.6288,9.6288,9.6288,9.6288,9.6288,9.6288,0.0,0.0,9.6903,9.648,9.6557,9.6903,9.6903,9.6903,9.6903,9.6903,9.7211,9.748,9.6596,9.6557,9.6788,9.5942,9.5403,9.5057,9.5057,9.5057,9.5057,9.5057,9.4711,9.4364,9.4364,9.4018,9.3595,9.3246,9.313,9.2977,9.2592,9.2515,9.2515,9.2515,9.3204,9.3669,9.3215,9.3099,9.2979,9.2553,9.1748,9.121,9.121,9.121,9.1364,9.1748,9.2213,9.2674,9.302,9.348,9.371,9.371,9.371,9.371,9.371,9.371,9.371,9.371,9.371,9.371,9.371,9.371,9.3941,9.4364,9.4828,9.5289,8.5549,8.6742,8.7012,8.533,8.2486,7.778,6.909,6.4232,5.9237,5.1068,4.8971,4.8471,4.8163,5.1818,5.6242,6.0396,6.5628,7.1706,7.9054,8.1516,8.4401,8.9325,9.0248,0.0,9.1402,9.1633,0.0,0.0,0.0,0.0,9.5249,9.5942,9.6288,9.6288,9.6288,9.6288,9.6288,9.6288,9.6403,9.6557,9.6557,9.6634,9.6826,9.6826,9.6826,9.6826,0.0,0.0,0.0,9.7096,9.7211,9.7788,9.7788,9.7788,9.7788,9.7788,9.8211,9.8596,9.7288,9.725,9.7673,9.7057,9.6596,9.6288,9.6288,9.6288,9.6288,9.6288,9.5826,9.5288,9.5288,9.4749,9.421,9.4018,9.3826,9.3708,9.3708,9.3708,9.3708,9.3708,9.4398,9.4785,9.4099,9.3983,9.3751,9.313,9.2284,9.171,9.171,9.171,9.1787,9.2014,9.2444,9.283,9.3024,9.3791,9.4252,9.4252,9.4252,9.4252,9.4252,9.4252,9.4252,9.4252,9.4406,9.4483,9.4483,9.4712,9.5135,9.5865,9.6519,9.7173,8.5253,8.6748,8.7012,8.533,8.2909,7.854,6.9215,6.329,5.7755,5.0837,4.7548,4.6394,4.7817,5.0394,5.4395,6.0896,6.4974,7.0514,7.9708,8.2401,8.5093,8.9402,9.1287,9.2287,9.2364,9.3018,0.0,0.0,0.0,0.0,0.0,9.6249,9.6288,9.6288,9.6288,9.6288,9.6288,9.6288,9.6673,9.7403,9.7403,9.7788,9.8557,9.8557,9.8557,9.8557,0.0,0.0,0.0,9.8596,9.8596,9.8673,9.8673,9.8673,9.8673,9.8673,9.8711,9.8788,9.8634,9.8634,9.8673,9.8596,9.7557,9.6288,9.6288,9.6288,9.6288,9.6288,9.6249,9.6172,9.6172,9.6134,9.5865,9.5058,9.4289,9.3714,9.3714,9.3714,9.3714,9.3714,9.4405,9.4982,9.4905,9.4905,9.4864,9.4783,9.4013,9.3474,9.3474,9.3474,9.3782,9.4587,9.4013,9.39,9.4712,9.5558,9.6057,9.6057,9.6057,9.6057,9.6057,9.6057,9.6057,9.6057,9.6788,9.7171,9.7171,9.7941,9.8401,9.8478,9.8555,9.8596,8.4901,8.6752,8.6987,8.5305,8.2201,7.7225,6.842,6.2436,5.6823,5.001,4.7009,4.6086,4.7778,4.9356,5.1972,5.6742,5.905,6.3128,7.1514,7.4553,7.8477,8.5286,8.8517,9.0825,0.0,0.0,0.0,0.0,0.0,0.0,0.0,9.6288,9.6288,9.6288,9.6288,9.6288,9.6288,9.6788,9.7173,9.7519,9.8019,9.8442,9.8788,9.8788,9.8788,9.8788,0.0,0.0,0.0,9.9019,9.9096,9.9558,9.9558,9.9558,9.9558,9.9558,9.9904,10.0212,9.9135,9.9135,9.9481,9.8981,9.8365,9.7788,9.7788,9.7788,9.7788,9.7788,9.7788,9.7673,9.7173,9.6673,9.6211,9.5903,9.552,9.5251,9.5251,9.5251,9.5251,9.5251,9.552,9.5751,9.5751,9.5328,9.4982,9.498,9.4249,9.3903,9.4403,9.448,9.4788,9.567,9.5437,9.5591,9.6403,9.7325,9.7787,9.7787,9.7325,9.7019,9.7019,9.6557,9.6288,9.6288,9.7094,9.748,9.7481,9.8366,9.8789,9.8789,9.9327,9.9596,8.3587,8.5983,8.6607,8.4959,8.11,7.5705,6.7702,6.1543,5.5818,4.974,4.7163,4.6432,4.7855,4.8817,5.0433,5.3587,5.5434,5.905,6.6436,6.9898,7.4361,8.1593,0.0,8.8594,0.0,0.0,0.0,0.0,0.0,0.0,0.0,9.6288,9.6288,9.6288,9.6519,9.6634,9.6634,9.748,9.8019,9.8288,9.8904,9.9288,9.9558,9.9558,9.9558,0.0,0.0,0.0,0.0,9.9788,9.9904,10.0481,10.0481,10.0481,10.0481,10.0481,10.0789,10.1096,9.9942,9.9942,10.0404,9.975,9.9558,9.9558,9.9558,9.9173,9.8788,9.8788,9.8788,9.8596,9.7711,9.7096,9.6596,9.6365,9.6288,9.6288,9.6288,9.6288,9.6288,9.6288,9.6288,9.6288,9.6288,9.5789,9.5366,9.5366,9.4866,9.4789,9.5635,9.5751,9.6174,9.7289,9.7402,9.7439,9.7519,9.8288,9.8826,9.8826,9.798,9.748,9.7518,9.6711,9.6288,9.6288,9.7364,9.7904,9.7904,9.898,9.9519,9.9519,10.0211,10.048,8.0962,8.4202,8.5676,8.4028,7.9777,7.4229,6.7432,6.0619,5.4511,5.024,4.8048,4.7163,4.7971,4.8817,5.024,5.2818,5.6049,6.0627,6.7436,7.1321,7.5053,7.9323,8.2862,8.594,8.8479,0.0,0.0,0.0,0.0,0.0,0.0,9.6288,9.6288,9.6288,9.7057,9.748,9.748,9.8365,9.9211,10.0096,10.0096,10.0481,10.1289,10.1289,0.0,0.0,0.0,0.0,0.0,10.1289,10.1289,10.1289,10.1289,10.1289,10.1289,10.1289,10.1289,10.1289,10.1289,10.1289,10.1289,10.1289,10.1289,10.1289,10.1289,10.0096,9.8788,9.8788,9.8788,9.8596,9.7711,9.748,9.7288,9.648,9.6288,9.6288,9.6288,9.6288,9.6288,9.6288,9.6288,9.6288,9.6288,9.6288,9.6288,9.6288,9.6288,9.6557,9.7364,9.7443,9.8134,9.9904,10.0096,9.9365,9.7635,9.8288,9.8788,9.8788,9.7981,9.7481,9.7518,9.6711,9.6288,9.6288,9.7941,9.8826,9.8788,10.048,10.1289,10.1289,10.1289,10.1289,7.3277,7.5961,7.7061,7.5347,7.3283,7.0067,6.3846,5.9386,5.5203,5.0394,4.8509,4.7971,4.8817,4.9202,5.101,5.5895,5.7588,6.0473,6.6628,7.0975,7.5091,7.9323,8.6363,9.171,0.0,0.0,0.0,0.0,0.0,0.0,0.0,0.0,9.6288,9.6288,9.7096,9.7519,9.7519,9.8942,9.9827,10.0096,10.0712,10.1096,10.1289,10.1289,0.0,0.0,0.0,0.0,0.0,10.1289,10.1289,10.1289,10.1289,10.1289,10.1289,10.1289,10.1289,10.1289,10.1289,10.1289,10.1289,10.1289,10.1289,10.1289,10.1289,10.0904,10.0519,10.0519,10.0096,9.9596,9.9327,9.8827,9.8327,9.8057,9.8018,9.8018,9.8018,9.8018,9.8018,9.8018,9.8018,9.8018,9.8018,9.8018,9.8018,9.8018,9.8018,9.8324,9.9171,9.9288,9.9711,10.0788,10.0904,10.0673,10.0096,10.0288,10.0288,9.975,9.8865,9.8135,9.7518,9.6711,9.6288,9.6288,9.7941,9.8826,9.8788,10.048,10.1289,10.1289,10.1289,10.1289,6.7697,7.0969,7.2272,7.1189,6.936,6.655,6.188,5.8098,5.4472,5.0664,4.9202,4.8856,4.974,4.9894,5.1202,5.5241,5.6973,5.9665,6.4936,6.9629,7.4707,8.0554,0.0,0.0,0.0,0.0,0.0,0.0,0.0,0.0,0.0,0.0,9.6288,9.6288,9.7403,9.798,9.798,9.9673,10.0596,10.0596,10.1096,10.1289,10.1289,0.0,0.0,0.0,0.0,0.0,0.0,10.1289,10.1289,10.1289,10.1289,10.1289,10.1289,10.1289,10.1289,10.1289,10.1289,10.1289,10.1289,10.1289,10.1289,10.1289,10.1289,10.1289,10.1289,10.1289,10.0904,10.0481,10.0173,9.9712,9.9211,9.8865,9.8788,9.8788,9.8825,9.8788,9.8788,9.8788,9.8788,9.8788,9.8788,9.8788,9.8788,9.8788,9.8788,9.9134,9.9981,10.0096,10.0404,10.1212,10.1289,10.1212,10.0904,10.1096,10.1096,10.0596,9.9788,9.9019,9.8517,9.7672,9.7248,9.7248,9.8594,9.9288,9.9288,10.0596,10.1289,10.1289,10.1289,10.1289,0.0,6.7856,6.98,6.9749,6.6846,6.3329,6.0839,5.6613,0.0,5.1048,5.0048,4.9779,5.0702,5.0818,5.1164,5.2356,5.528,5.8896,6.3089,6.8321,0.0,0.0,8.7863,0.0,0.0,0.0,0.0,0.0,0.0,0.0,0.0,0.0,9.6288,9.6288,9.7942,9.8788,9.8788,10.0519,10.1289,10.1289,10.1289,10.1289,10.1289,0.0,0.0,0.0,0.0,0.0,0.0,10.1289,10.1289,10.1289,10.1289,10.1289,10.1289,10.1289,10.1289,10.1289,10.1289,10.1289,10.1289,10.1289,10.1289,10.1289,10.1289,10.1289,10.1289,10.1289,10.1289,10.1096,10.0404,10.0173,9.9981,9.9135,9.8981,9.8981,9.898,9.8981,9.898,9.898,9.898,9.898,9.898,9.898,9.898,9.898,9.8942,9.9173,10.0019,10.0096,10.0288,10.1096,10.1096,10.0904,10.0211,10.0788,10.1212,10.1096,10.0365,10.0017,9.9903,9.9133,9.8748,9.8825,9.9633,10.0096,10.0211,10.0904,10.1289,10.1289,10.1289,10.1289,5.4477,0.0,5.9104,5.8519,5.8066,5.7285,0.0,5.407,5.2702,5.1048,5.0548,5.0856,5.2356,5.2087,5.3164,5.7934,6.0473,6.3089,6.6705,7.4361,0.0,0.0,0.0,0.0,0.0,0.0,0.0,0.0,0.0,0.0,0.0,0.0,9.6288,9.6288,9.7942,9.8788,9.8788,10.0519,10.1289,10.1289,10.1289,10.1289,10.1289,0.0,0.0,0.0,0.0,0.0,10.1289,10.1289,10.1289,10.1289,10.1289,10.1289,10.1289,10.1289,10.1289,10.1289,10.1289,10.1289,10.1289,10.1289,10.1289,10.1289,10.1289,10.1289,10.1289,10.1289,10.1289,10.1289,10.1096,10.1019,10.1019,10.0789,10.0712,10.0712,10.0673,10.0712,10.0673,10.0673,10.0673,10.0673,10.0673,10.0673,10.0673,10.0673,10.0211,9.9942,10.0211,9.9673,9.9326,9.9519,9.9519,9.9442,9.9288,10.048,10.048,9.8673,9.8981,9.8904,9.8212,9.7981,9.8173,9.8789,9.9634,10.0404,10.1019,10.1212,10.1289,10.1289,10.1289,10.1289,5.0298,5.3472,5.628,5.6242,5.6246,5.5941,5.4669,5.3435,5.2241,5.0971,5.0702,5.1087,5.2356,5.2549,5.3818,5.7819,6.055,6.4589,7.1514,0.0,8.6132,9.1825,0.0,0.0,0.0,0.0,0.0,0.0,0.0,0.0,0.0,0.0,9.6288,9.6288,9.7942,9.8596,9.8211,10.0289,10.1096,10.0789,10.1096,10.1289,10.1289,0.0,0.0,0.0,0.0,0.0,10.1289,10.1289,10.1289,10.1289,10.1289,10.1289,10.1289,10.1289,10.1289,10.1289,10.1289,10.1289,10.1289,10.1289,10.1289,10.1289,10.1289,10.1289,10.1289,10.1289,10.1289,10.1289,10.1289,10.1289,10.1289,10.1289,10.1289,10.1289,10.1289,10.1289,10.1289,10.1289,10.1289,10.1404,10.1789,10.1597,10.1289,10.1289,10.0673,10.0071,9.9704,9.9613,9.9575,9.9575,9.9878,9.9953,9.9651,10.0691,10.0494,9.844,9.8731,9.8763,9.8253,9.8586,9.9173,9.9942,10.0404,10.0904,10.1289,10.1289,10.1289,10.1289,10.1289,10.1289,4.9259,5.3302,5.7043,5.7294,5.6965,5.6367,5.5518,5.3648,5.1895,5.1202,5.1087,5.1395,5.2472,5.351,5.4857,5.6934,6.0435,6.659,7.7169,8.3054,8.794,0.0,0.0,0.0,0.0,0.0,0.0,0.0,0.0,0.0,0.0,0.0,0.0,9.6288,9.7942,9.8327,9.7327,9.9863,10.0785,10.0094,10.0785,10.1093,10.1093,10.1211,0.0,0.0,0.0,0.0,10.1289,10.1289,10.1289,10.1289,10.1289,10.1289,10.1289,10.1289,10.1289,10.1289,10.1289,10.1289,10.1289,10.1289,10.1289,10.1289,10.1289,10.1289,10.1289,10.1289,10.1289,10.1289,10.1289,10.1289,10.1289,10.152,10.152,10.1481,10.1712,10.1597,10.1481,10.1712,10.1597,10.1712,10.252,10.1981,10.152,10.1404,10.0697,9.9972,9.928,9.964,10.0048,10.0008,10.0638,10.0785,10.0192,10.0712,10.0501,9.9097,9.9049,9.8937,9.879,9.9575,10.0282,10.0901,10.1129,10.1096,10.1096,10.1404,10.152,10.1481,10.1597,10.1712,5.0678,5.4226,5.6328,5.3574,5.3874,5.4671,5.378,5.3261,5.2954,5.2856,5.2818,5.351,5.578,5.7473,5.9819,0.0,0.0,7.5438,0.0,0.0,0.0,0.0,0.0,0.0,0.0,0.0,0.0,0.0,0.0,0.0,0.0,0.0,0.0,9.6288,9.7942,9.8093,9.6585,9.9106,10.029,10.0175,10.029,10.0404,10.0366,10.1011,10.1289,0.0,0.0,10.1289,10.1289,10.1289,10.1289,10.1289,10.1289,10.1289,10.1289,10.1289,10.1289,10.1289,10.1289,10.1289,10.1289,10.1289,10.1289,10.1289,10.1289,10.1289,10.1289,10.1289,10.1289,10.1289,10.1289,10.1289,10.152,10.2212,10.2404,10.2597,10.329,10.2905,10.2597,10.3367,10.2905,10.2405,10.2597,10.2519,10.2209,10.152,10.0804,10.0165,10.0088,9.9603,9.9264,9.9243,9.9389,9.9389,9.9279,9.9389,9.9333,9.9095,9.9053,9.8753,9.8014,9.8762,9.927,9.9344,9.9999,10.0404,10.0404,10.171,10.2403,10.2405,10.3175,10.3522,4.9195,5.201,5.4411,5.5148,5.7004,5.8264,5.6912,5.5912,5.5241,5.5241,5.4895,5.5203,5.7319,6.0204,6.4397,7.0975,0.0,0.0,0.0,0.0,0.0,0.0,0.0,0.0,0.0,0.0,0.0,0.0,0.0,0.0,0.0,0.0,0.0,0.0,9.6848,9.7158,9.6475,9.7649,9.8664,9.9498,9.9956,10.0413,10.0804,10.1093,10.1289,10.1289,0.0,10.1289,10.1289,10.1289,10.1289,10.1289,10.1289,10.1289,10.1289,10.1289,10.1289,10.1289,10.1289,10.1289,10.1289,10.1289,10.1289,10.1289,10.1289,10.1289,10.1404,10.1904,10.1712,10.1404,10.1904,10.202,10.2212,10.3097,10.3289,10.3366,10.379,10.3597,10.3405,10.379,10.3597,10.3288,10.3288,10.2904,10.2348,10.1595,10.0789,10.0068,9.9737,9.9737,9.9769,9.9756,10.0086,10.0423,10.0423,10.0423,10.0012,9.9163,9.9113,9.9161,9.9161,9.9522,9.9889,10.0269,10.1088,10.1526,10.1481,10.2672,10.3288,10.3289,10.3675,10.3867,4.9003,5.1006,5.3503,5.757,5.9903,6.1296,6.1541,6.0147,5.8995,5.9819,5.9127,5.8781,6.0127,6.432,0.0,7.7284,0.0,0.0,0.0,0.0,0.0,0.0,0.0,0.0,0.0,0.0,0.0,0.0,0.0,0.0,0.0,0.0,0.0,0.0,9.581,9.6096,9.5928,9.6367,9.728,9.8652,9.9505,10.0195,10.0804,10.1093,10.1289,10.1289,10.1289,10.1289,10.1289,10.1289,10.1289,10.1289,10.1289,10.1289,10.1289,10.1289,10.1289,10.1289,10.1289,10.1404,10.1597,10.1597,10.1597,10.1597,10.1597,10.152,10.152,10.2404,10.2097,10.1789,10.2712,10.2904,10.3097,10.3982,10.4212,10.4212,10.4405,10.4287,10.4211,10.4214,10.4212,10.4093,10.3708,10.3189,10.261,10.1567,10.0973,10.0423,9.9756,10.0196,10.0606,10.0606,10.1127,10.1494,10.1494,10.1494,10.0973,9.9756,9.9517,9.9599,9.9967,10.0026,10.0283,10.0855,10.179,10.2315,10.2275,10.3622,10.4212,10.4212,10.4406,10.4522,5.291,5.4168,5.5132,5.8561,5.8995,6.0186,6.6364,6.5829,6.4977,6.8114,6.7436,6.632,6.6436,7.1898,7.7592,8.1323,0.0,0.0,0.0,0.0,0.0,0.0,0.0,0.0,0.0,0.0,0.0,0.0,0.0,0.0,0.0,0.0,0.0,0.0,0.0,9.5025,9.4356,9.5884,9.704,9.7918,9.8674,9.9122,9.9235,10.0601,10.1289,10.1289,10.1289,10.1289,10.1289,10.1289,10.1289,10.1289,10.1289,10.1289,10.1289,10.1289,10.1289,10.1289,10.1289,10.1789,10.252,10.252,10.252,10.252,10.252,10.1904,10.152,10.2404,10.2597,10.2712,10.3597,10.3789,10.3982,10.4789,10.4982,10.5213,10.602,10.5595,10.5018,10.5095,10.5095,10.4477,10.2976,10.3377,10.3426,10.1677,10.1494,10.1384,10.131,10.1384,10.1384,10.1384,10.1494,10.1494,10.1494,10.1494,10.1494,10.131,10.0569,9.9866,9.9199,9.9199,9.9199,9.9236,10.0826,10.1611,10.1574,10.3883,10.5018,10.5018,10.5828,10.6213,5.0735,5.2877,5.5441,5.9335,6.1656,6.397,6.7592,6.848,6.9489,7.2919,7.2668,7.2168,7.3245,0.0,8.0131,0.0,0.0,0.0,0.0,0.0,0.0,0.0,0.0,0.0,0.0,0.0,0.0,0.0,0.0,0.0,0.0,0.0,0.0,0.0,0.0,9.4244,9.3484,9.4662,9.5586,9.6398,9.7636,9.8529,9.9007,9.9615,10.0108,10.0633,10.0633,10.0885,10.1289,10.1289,10.1289,10.1289,10.1289,10.1289,10.1289,10.1289,10.1289,10.1404,10.1904,10.2289,10.2712,10.3212,10.3405,10.3405,10.3405,10.3212,10.3097,10.3905,10.4212,10.4212,10.4597,10.4597,10.4905,10.5713,10.5905,10.602,10.629,10.6097,10.5787,10.5287,10.5208,10.4637,10.3032,10.3,10.2794,10.1677,10.1494,10.1494,10.1494,10.1494,10.1494,10.1494,10.1494,10.1494,10.1494,10.1494,10.1494,10.1494,10.1237,10.0863,10.0606,10.0606,10.0606,10.0606,10.1691,10.2491,10.3108,10.4515,10.5403,10.5864,10.6213,10.6405,5.0524,5.2702,5.5808,5.9826,6.3537,6.7118,7.0469,7.2263,7.4413,7.8377,7.7861,7.7092,7.8284,0.0,0.0,0.0,0.0,0.0,0.0,0.0,0.0,0.0,0.0,0.0,0.0,0.0,0.0,0.0,0.0,0.0,0.0,0.0,0.0,0.0,0.0,0.0,9.2684,9.3749,9.4593,9.5144,9.6692,9.7897,9.8651,9.8853,9.9291,9.9847,9.9847,10.0271,10.1008,10.1008,10.1091,10.1289,10.1289,10.1289,10.1289,10.1289,10.152,10.1789,10.2404,10.2904,10.3482,10.4097,10.4289,10.4289,10.4289,10.4097,10.4097,10.4905,10.5097,10.5174,10.5405,10.5482,10.5713,10.629,10.6405,10.6405,10.6405,10.6405,10.6097,10.5018,10.4996,10.4616,10.2734,10.2504,10.2346,10.1567,10.1494,10.1494,10.1494,10.1494,10.1494,10.1494,10.2015,10.2089,10.1494,10.1677,10.1831,10.1494,10.1494,10.1494,10.1494,10.1494,10.1494,10.1494,10.2272,10.3012,10.3611,10.4713,10.548,10.602,10.6328,10.6405,5.3415,5.4413,5.656,5.9984,6.4016,6.8946,7.5808,7.7982,7.9972,8.5099,8.3478,8.117,8.1131,8.2516,0.0,0.0,0.0,0.0,0.0,0.0,0.0,0.0,0.0,0.0,0.0,0.0,0.0,0.0,0.0,0.0,0.0,0.0,0.0,0.0,0.0,0.0,9.1803,9.3455,9.4299,9.4299,9.5914,9.7101,9.783,9.8651,9.9007,9.9007,9.9007,9.9493,10.0223,10.0223,10.0633,10.1288,10.1288,10.1327,10.1327,10.1327,10.1827,10.2597,10.2597,10.3712,10.5097,10.5097,10.5097,10.5097,10.5097,10.4597,10.4097,10.4905,10.5097,10.529,10.6213,10.6405,10.6405,10.6405,10.6405,10.6405,10.6405,10.6405,10.5864,10.4285,10.4619,10.439,10.1905,10.2199,10.2346,10.1567,10.1494,10.1494,10.1494,10.1494,10.1494,10.1494,10.2904,10.3242,10.1567,10.2199,10.2272,10.1567,10.1494,10.1494,10.1494,10.1494,10.1494,10.1494,10.2272,10.272,10.2684,10.4394,10.5169,10.521,10.602,10.6405,5.1851,5.443,5.8504,6.2459,6.8432,7.4817,8.0471,8.193,8.3351,8.7829,8.7055,8.5324,8.4747,0.0,0.0,0.0,0.0,0.0,0.0,0.0,0.0,0.0,0.0,0.0,0.0,0.0,0.0,0.0,0.0,0.0,0.0,0.0,0.0,0.0,0.0,0.0,9.1803,9.3455,9.4299,9.4299,9.5914,9.6801,9.7027,9.7282,9.7663,9.8188,9.8188,9.8591,9.9346,9.9346,9.9455,9.9668,9.9668,10.001,10.0505,10.0505,10.1,10.1904,10.3097,10.3789,10.4482,10.5597,10.602,10.602,10.602,10.579,10.5713,10.5905,10.602,10.6097,10.629,10.6405,10.6405,10.6405,10.6405,10.6405,10.6405,10.602,10.521,10.4208,10.3728,10.2978,10.1677,10.1677,10.1831,10.1494,10.1494,10.1494,10.1494,10.1494,10.167,10.2312,10.2257,10.2228,10.2349,10.2,10.1831,10.1494,10.1494,10.1494,10.1494,10.1494,10.1494,10.1494,10.1677,10.2089,10.272,10.3203,10.4017,10.521,10.5403,10.5864,5.428,5.7665,6.232,6.6544,7.2308,7.8596,8.4724,8.6108,8.6915,8.979,8.9094,8.7863,8.7671,0.0,0.0,0.0,0.0,0.0,0.0,0.0,0.0,0.0,0.0,0.0,0.0,0.0,0.0,0.0,0.0,0.0,0.0,0.0,0.0,0.0,0.0,0.0,9.1803,9.3786,9.463,9.4299,9.5914,9.6685,9.6685,9.6685,9.6915,9.7351,9.7626,9.8058,9.8529,9.889,9.9007,9.9007,9.9007,9.9291,9.9706,9.9706,10.0189,10.1109,10.2791,10.3569,10.4183,10.5486,10.6122,10.6287,10.5613,10.5601,10.5908,10.5486,10.538,10.5418,10.5418,10.5418,10.5601,10.6203,10.6405,10.6405,10.6405,10.5787,10.4994,10.4226,10.3331,10.2346,10.1567,10.1494,10.1494,10.1494,10.1494,10.1494,10.1494,10.1831,10.2191,10.2614,10.2578,10.2468,10.2724,10.2338,10.2015,10.2015,10.2015,10.2089,10.2346,10.1831,10.1494,10.1494,10.1831,10.2089,10.2199,10.2867,10.3498,10.4193,10.489,10.548,5.8722,6.2485,6.707,7.1573,7.6108,8.1402,8.8444,9.0017,9.0248,9.1056,0.0,8.9133,8.9902,0.0,0.0,0.0,0.0,0.0,0.0,0.0,0.0,0.0,0.0,0.0,0.0,0.0,0.0,0.0,0.0,0.0,0.0,0.0,0.0,0.0,0.0,0.0,9.1913,9.4226,9.507,0.0,9.5988,9.6685,9.6685,9.6685,9.6685,9.6762,9.7422,9.7695,9.7763,9.8467,9.8772,9.8772,9.8772,9.8831,9.889,9.889,9.9439,10.0406,10.2029,10.3109,10.3795,10.4659,10.5409,10.569,10.4212,10.4278,10.4773,10.4087,10.3984,10.4025,10.4025,10.4025,10.4381,10.5779,10.6199,10.6199,10.6199,10.5469,10.4785,10.4022,10.3248,10.2346,10.1567,10.1494,10.1494,10.1494,10.1494,10.1494,10.1494,10.2089,10.261,10.261,10.3357,10.3494,10.2831,10.261,10.261,10.272,10.2676,10.3125,10.3904,10.2382,10.1567,10.1567,10.2272,10.2199,10.1494,10.2978,10.3316,10.269,10.4258,10.5095,5.6429,6.1551,6.8373,7.465,8.1848,8.8064,9.0402,9.0941,9.0979,9.1171,9.0902,9.071,0.0,0.0,0.0,0.0,0.0,0.0,0.0,0.0,0.0,0.0,0.0,0.0,0.0,0.0,0.0,0.0,0.0,0.0,0.0,0.0,0.0,0.0,0.0,9.2317,9.2831,9.3969,9.4777,0.0,9.6245,9.6685,9.6685,9.6685,9.6685,9.6685,9.6877,9.6915,9.6915,9.7101,9.721,9.721,9.721,9.7562,9.8058,9.8058,9.858,9.9556,10.1182,10.1523,10.1296,10.281,10.2924,10.2619,10.2905,10.3112,10.3339,10.3773,10.3995,10.4025,10.4025,10.4025,10.4086,10.4401,10.4458,10.4458,10.4458,10.3786,10.3205,10.3013,10.2313,10.1677,10.1494,10.1494,10.1494,10.1494,10.1494,10.1494,10.1494,10.1677,10.1831,10.1831,10.2724,10.3154,10.3014,10.2199,10.2015,10.272,10.2651,10.3118,10.3897,10.2962,10.2346,10.2346,10.2015,10.1751,10.147,10.1824,10.2272,10.269,10.3802,10.4593,5.8002,6.3723,7.0959,7.9407,8.6065,9.0633,9.1095,9.1518,9.171,9.1287,9.1518,9.1941,0.0,0.0,0.0,0.0,0.0,0.0,0.0,0.0,0.0,0.0,0.0,0.0,0.0,0.0,0.0,0.0,0.0,0.0,0.0,0.0,0.0,0.0,9.2207,9.2427,9.2464,9.3675,9.4299,9.4373,9.518,9.5768,9.6135,9.6539,9.6685,9.6685,9.6685,9.6685,9.6685,9.6685,9.6685,9.6685,9.6685,9.6915,9.7245,9.7245,9.7562,9.815,9.9739,10.0118,9.9931,10.1207,10.1458,10.1422,10.1108,10.1507,10.2145,10.2193,10.2527,10.2818,10.2818,10.2818,10.2818,10.2818,10.3421,10.4025,10.4025,10.3286,10.2711,10.2736,10.2093,10.1494,10.1494,10.1494,10.1494,10.1494,10.1494,10.1494,10.1494,10.1494,10.1494,10.1494,10.2724,10.3494,10.3536,10.2272,10.1934,10.2807,10.3374,10.4106,10.507,10.4274,10.3696,10.3284,10.3174,10.277,10.2073,10.2493,10.2536,10.2095,10.3012,10.3792,5.9373,6.6155,7.4068,8.3692,8.856,9.1018,9.1171,9.1748,9.2095,9.1556,9.2018,0.0,0.0,0.0,0.0,0.0,0.0,0.0,0.0,0.0,0.0,0.0,0.0,0.0,0.0,0.0,0.0,0.0,0.0,0.0,0.0,0.0,9.1803,9.1803,9.2501,9.2611,9.2024,9.3382,9.3822,9.3308,9.3969,9.4703,9.5547,9.6208,9.6575,9.6685,9.6685,9.6685,9.6685,9.6685,9.6685,9.6685,9.6685,9.6685,9.6685,9.6685,9.6685,9.6948,9.8534,9.8927,9.8853,9.9783,10.0404,10.0519,9.9432,9.9972,10.1047,10.0567,10.0978,10.1494,10.1494,10.1494,10.1494,10.1494,10.2608,10.3588,10.3588,10.3006,10.2515,10.2515,10.2017,10.1494,10.1494,10.1494,10.1494,10.1494,10.1494,10.1494,10.1494,10.1971,10.2301,10.2301,10.3457,10.4311,10.4346,10.2823,10.2285,10.3217,10.4179,10.5228,10.6376,10.5704,10.4997,10.4289,10.474,10.4201,10.2676,10.3426,10.2867,10.1538,10.2308,10.3202,5.4882,6.523,7.7032,8.4291,8.8094,9.0287,9.1018,9.1287,9.1556,0.0,9.2402,0.0,0.0,0.0,0.0,0.0,0.0,0.0,0.0,0.0,0.0,0.0,0.0,0.0,0.0,0.0,0.0,0.0,0.0,0.0,9.1803,9.1803,9.1803,9.1803,9.1913,9.2281,9.2941,9.3161,9.3565,9.4153,9.4226,9.4703,9.5511,9.5621,9.6061,9.6685,9.6685,9.6685,9.6685,9.6685,9.6685,9.6685,9.6685,9.6685,9.6685,9.6685,9.6685,9.6906,9.8529,9.8201,9.7282,9.879,9.8388,9.7542,9.8716,9.9268,9.971,10.1034,10.1354,10.1494,10.1494,10.1494,10.1494,10.1494,10.1697,10.178,10.178,10.1665,10.1739,10.1739,10.1617,10.1494,10.1494,10.1494,10.1494,10.1494,10.1494,10.1494,10.1494,10.399,10.5678,10.5678,10.5935,10.6119,10.6129,10.4483,10.363,10.3765,10.4384,10.5248,10.6376,10.6302,10.6229,10.6119,10.474,10.3604,10.2705,10.2787,10.2346,10.1538,10.2308,10.3212,5.9408,6.827,7.71,8.4901,8.8402,9.0248,9.1633,9.2287,9.2595,9.2518,0.0,0.0,0.0,0.0,0.0,0.0,0.0,0.0,0.0,0.0,0.0,0.0,0.0,0.0,0.0,0.0,0.0,0.0,0.0,9.1803,9.1803,9.1803,9.1803,9.1803,9.1803,9.1987,9.2354,9.2354,9.2537,9.2905,9.3859,9.4263,9.4189,9.5584,9.6392,9.6685,9.6685,9.6685,9.6685,9.6685,9.6685,9.6685,9.6685,9.6685,9.6685,9.6685,9.6685,9.6869,9.8043,9.7676,9.6906,9.8043,9.764,9.6906,9.808,9.8741,9.9365,10.0503,10.12,10.1494,10.1494,10.1494,10.1494,10.1494,10.1494,10.1494,10.1494,10.1494,10.1494,10.1494,10.1494,10.1494,10.1494,10.1494,10.1494,10.1494,10.1494,10.2191,10.399,10.5495,10.6376,10.6376,10.6376,10.6376,10.6376,10.5704,10.5338,10.5338,10.5532,10.5862,10.6376,10.6376,10.6376,10.6376,10.5704,10.4934,10.4017,10.3586,10.3044,10.2191,10.2086,10.2531,6.1212,6.759,7.3217,8.1747,8.594,8.8556,9.071,9.2326,9.3172,0.0,0.0,0.0,0.0,0.0,0.0,0.0,0.0,0.0,0.0,0.0,0.0,0.0,0.0,0.0,0.0,0.0,0.0,0.0,0.0,9.1803,9.1803,9.1803,9.1803,9.1803,9.1803,9.1803,9.1803,9.1803,9.1803,9.1803,9.3051,9.3455,9.3161,9.496,9.6025,9.6428,9.6612,9.6685,9.6685,9.6685,9.6685,9.6685,9.6685,9.6685,9.6685,9.6685,9.6685,9.6832,9.7603,9.7493,9.7126,9.7933,9.7787,9.7456,9.8264,9.8924,9.9585,10.0393,10.098,10.1494,10.1494,10.1494,10.1494,10.1494,10.1494,10.1494,10.1494,10.1494,10.1494,10.1494,10.1494,10.1494,10.1494,10.1486,10.1523,10.1494,10.2191,10.3586,10.6082,10.6376,10.6376,10.6376,10.6376,10.6376,10.6376,10.6376,10.6376,10.6376,10.6376,10.6376,10.6376,10.6376,10.6376,10.6376,10.6376,10.6009,10.5117,10.4541,10.3806,10.2999,10.2375,10.2563,5.4572,5.8864,6.3589,7.2091,7.8477,8.3555,8.6901,9.021,9.2326,9.1441,0.0,0.0,0.0,0.0,0.0,0.0,0.0,0.0,0.0,0.0,0.0,0.0,0.0,0.0,0.0,0.0,0.0,0.0,0.0,9.1803,9.1803,9.1803,9.1803,9.1803,9.1803,9.1803,9.1803,9.1803,9.1803,9.1803,9.1877,9.2354,9.3088,9.3235,9.4116,9.5621,9.6392,9.6685,9.6685,9.6685,9.6685,9.6685,9.6685,9.6685,9.6685,9.6685,9.6685,9.6832,9.7603,9.786,9.797,9.8778,9.9035,9.9145,9.9916,10.0209,10.0393,10.12,10.1494,10.1494,10.1494,10.1494,10.1494,10.1494,10.1494,10.1494,10.1494,10.1494,10.1494,10.1494,10.1494,10.1494,10.1494,10.146,10.1524,10.145,10.4173,10.6192,10.6376,10.6376,10.6376,10.6376,10.6376,10.6376,10.6376,10.6376,10.6376,10.6376,10.6376,10.6376,10.6376,10.6376,10.6376,10.6376,10.6376,10.5972,10.5054,10.5091,10.4614,10.3806,10.3806,10.4187,5.3759,5.7373,6.1743,6.9206,7.4707,7.9438,8.3939,8.8017,9.1056,9.1864,0.0,0.0,0.0,0.0,0.0,0.0,0.0,0.0,0.0,0.0,0.0,0.0,0.0,0.0,0.0,0.0,0.0,0.0,0.0,0.0,9.1767,9.1803,9.1803,9.1803,9.1803,9.1803,9.1803,9.1803,9.1803,9.1803,9.2354,9.2501,9.2281,9.3382,9.3896,9.4042,9.5364,9.6208,9.6685,9.6685,9.6685,9.6685,9.6685,9.6685,9.6685,9.6685,9.6685,9.6832,9.7603,9.7897,9.8007,9.8851,9.9108,9.9255,10.0099,10.0283,10.0503,10.1274,10.1494,10.1494,10.1494,10.1494,10.1494,10.1494,10.2008,10.2485,10.2301,10.2301,10.2301,10.2301,10.2705,10.2999,10.2999,10.3944,10.4593,10.4614,10.5605,10.6376,10.6376,10.6376,10.6376,10.6376,10.6376,10.6376,10.6376,10.6376,10.6376,10.6376,10.6376,10.6376,10.6376,10.6376,10.6376,10.6376,10.6376,10.6192,10.5862,10.5385,10.5018,10.4687,10.41,10.4125,5.1355,5.422,5.8242,6.5359,6.9475,7.3668,8.1093,8.5132,8.8094,9.0671,0.0,0.0,0.0,0.0,0.0,0.0,0.0,0.0,0.0,0.0,0.0,0.0,0.0,0.0,0.0,0.0,0.0,0.0,0.0,0.0,9.1767,9.1803,9.1803,9.1803,9.1803,9.1803,9.1803,9.1803,9.1803,9.1803,9.2391,9.2354,9.184,9.2941,9.3345,9.3161,9.452,9.5547,9.6318,9.6575,9.6685,9.6685,9.6685,9.6685,9.6685,9.6685,9.6869,9.7163,9.7713,9.8227,9.8778,9.9328,9.9695,9.9989,10.0503,10.0686,10.0796,10.131,10.1494,10.1494,10.1494,10.1494,10.1494,10.1494,10.2301,10.2889,10.2705,10.2815,10.2889,10.3109,10.3109,10.3403,10.4504,10.5678,10.6376,10.6376,10.6376,10.6376,10.6376,10.6376,10.6376,10.6376,10.6376,10.6376,10.6376,10.6376,10.6376,10.6376,10.6376,10.6376,10.6376,10.6376,10.6376,10.6376,10.6376,10.6376,10.6376,10.5789,10.5495,10.5495,10.4981,10.4935,0.0,0.0,0.0,5.9896,6.2435,6.6167,7.79,8.1246,8.3131,8.7594,0.0,0.0,0.0,0.0,0.0,0.0,0.0,0.0,0.0,0.0,0.0,0.0,0.0,0.0,0.0,0.0,0.0,0.0,0.0,9.0886,9.1693,9.173,9.1767,9.1803,9.1803,9.1803,9.1803,9.1803,9.1803,9.1803,9.1803,9.1803,9.1803,9.1803,9.2281,9.3125,9.3932,9.4777,9.5584,9.6392,9.6685,9.6685,9.6685,9.6685,9.6685,9.6685,9.7199,9.7897,9.7897,9.8961,10.0283,10.0283,10.0796,10.1494,10.1494,10.1494,10.1494,10.1494,10.1494,10.1494,10.1494,10.1494,10.1494,10.1494,10.2081,10.2705,10.2815,10.2999,10.3293,10.3806,10.2705,10.2669,10.5899,10.6376,10.6376,10.6376,10.6376,10.6376,10.6376,10.6376,10.6376,10.6376,10.6376,10.6376,10.6376,10.6376,10.6376,10.6376,10.6376,10.6376,10.6376,10.6376,10.6376,10.6376,10.6376,10.6376,10.6376,10.6376,10.6376,10.6376,10.6376,10.6807,4.7048,0.0,0.0,0.0,0.0,0.0,0.0,0.0,7.4476,8.2439,0.0,0.0,0.0,0.0,0.0,0.0,0.0,0.0,0.0,0.0,0.0,0.0,0.0,0.0,0.0,0.0,0.0,0.0,8.8867,8.9234,9.0041,9.0629,9.1216,9.1767,9.1803,9.1803,9.1803,9.1803,9.1803,9.1803,9.1803,9.1803,9.1803,9.1803,9.2281,9.3125,9.3932,9.4777,9.5584,9.6392,9.6685,9.6685,9.6685,9.6685,9.6685,9.6685,9.7199,9.7897,9.7897,9.8961,10.0283,10.0283,10.0796,10.1494,10.1494,10.1494,10.1494,10.1494,10.1494,10.1494,10.1494,10.1494,10.1604,10.2191,10.2705,10.3182,10.399,10.4908,10.5275,10.4614,10.4798,10.5311,10.6192,10.6376,10.6376,10.6376,10.6376,10.6376,10.6376,10.6376,10.6376,10.6376,10.6376,10.6376,10.6376,10.6376,10.6376,10.6376,10.6376,10.6376,10.6376,10.6376,10.6376,10.6376,10.6376,10.6376,10.6376,10.6376,10.6376,10.6376,10.6376,10.6507,4.876,0.0,0.0,0.0,0.0,0.0,6.3399,6.6319,6.9898,0.0,0.0,0.0,0.0,0.0,0.0,0.0,0.0,0.0,0.0,0.0,0.0,0.0,0.0,0.0,0.0,0.0,0.0,8.8133,8.8206,8.8573,8.9381,9.0188,9.0812,9.1289,9.162,9.1803,9.1803,9.1803,9.1803,9.1803,9.1803,9.1803,9.1803,9.1803,9.2281,9.3125,9.3932,9.4777,9.5584,9.6392,9.6685,9.6685,9.6685,9.6685,9.6685,9.6685,9.7419,9.8411,9.8411,9.9438,10.0796,10.0796,10.109,10.1494,10.1494,10.1494,10.1494,10.1494,10.1494,10.1494,10.1494,10.1677,10.2081,10.2595,10.3219,10.388,10.4577,10.5605,10.6192,10.5495,10.5899,10.6376,10.6376,10.6376,10.6376,10.6376,10.6376,10.6376,10.6376,10.6376,10.6376,10.6376,10.6376,10.6376,10.6376,10.6376,10.6376,10.6376,10.6376,10.6376,10.6376,10.6376,10.6376,10.6376,10.6376,10.6376,10.6376,10.6376,10.6376,10.6376,10.6376,10.6376,5.1382,5.1369,0.0,0.0,0.0,0.0,6.3571,6.5273,6.7114,0.0,0.0,0.0,0.0,0.0,0.0,0.0,0.0,0.0,0.0,0.0,0.0,0.0,0.0,0.0,0.0,8.6995,8.7325,8.8023,8.8059,8.8426,8.9234,8.9968,9.0408,9.0592,9.1289,9.1693,9.1803,9.1803,9.1803,9.1803,9.1803,9.1803,9.1803,9.1803,9.2317,9.3272,9.3969,9.4813,9.5694,9.6428,9.6685,9.6685,9.6685,9.6685,9.6722,9.6795,9.7787,9.9108,9.9218,10.0209,10.1494,10.1494,10.1494,10.1494,10.1494,10.1494,10.1494,10.1494,10.1494,10.1494,10.1494,10.2008,10.2595,10.2705,10.3696,10.4687,10.4798,10.5678,10.6376,10.6376,10.6376,10.6376,10.6376,10.6376,10.6376,10.6376,10.6376,10.6376,10.6376,10.6376,10.6376,10.6376,10.6376,10.6376,10.6376,10.6376,10.6376,10.6376,10.6376,10.6376,10.6376,10.6376,10.6376,10.6376,10.6376,10.6376,10.6376,10.6376,10.6376,10.6376,10.6376,10.6376,5.3441,5.3734,5.4025,0.0,0.0,0.0,5.3462,5.5788,5.9699,0.0,6.6484,6.8758,7.4336,0.0,0.0,0.0,0.0,0.0,0.0,0.0,0.0,0.0,0.0,0.0,0.0,8.6995,8.7068,8.7215,8.7252,8.7582,8.839,8.8573,8.9271,9.0555,9.0739,9.1143,9.1803,9.1803,9.1803,9.1803,9.1803,9.1803,9.1803,9.1803,9.2611,9.4079,9.4226,9.5107,9.6502,9.6649,9.6685,9.6685,9.6685,9.6685,9.6795,9.7419,9.8264,9.9181,9.9842,10.0686,10.1494,10.1494,10.1494,10.1494,10.1494,10.1494,10.1494,10.1494,10.1494,10.1494,10.1494,10.1604,10.1971,10.2779,10.3586,10.4394,10.5789,10.6192,10.6376,10.6376,10.6376,10.6376,10.6376,10.6376,10.6376,10.6376,10.6376,10.6376,10.6376,10.6376,10.6376,10.6376,10.6376,10.6376,10.6376,10.6376,10.6376,10.6376,10.6376,10.6376,10.6376,10.6376,10.6376,10.6376,10.6376,10.6376,10.6376,10.6376,10.6376,10.6376,10.6376,10.6376,5.613,5.564,5.5546,5.5413,0.0,0.0,0.0,5.5492,5.8038,6.2699,6.3313,6.4358,6.8741,0.0,0.0,0.0,0.0,0.0,0.0,0.0,0.0,0.0,0.0,0.0,0.0,8.7619,8.7619,8.7619,8.7252,8.7178,8.7582,8.7986,8.8757,8.9968,9.0408,9.0996,9.1803,9.1803,9.1803,9.1803,9.1803,9.1803,9.1803,9.2244,9.3125,9.4299,9.4703,9.5584,9.6685,9.6685,9.6685,9.6685,9.6685,9.6685,9.6795,9.7603,9.8411,9.9218,9.9989,10.0796,10.1494,10.1494,10.1494,10.1494,10.1494,10.1494,10.1494,10.1494,10.1494,10.1494,10.1494,10.1898,10.2375,10.2999,10.41,10.5385,10.6192,10.6376,10.6376,10.6376,10.6376,10.6376,10.6376,10.6376,10.6376,10.6376,10.6376,10.6376,10.6376,10.6376,10.6376,10.6376,10.6376,10.6376,10.6376,10.6376,10.6376,10.6376,10.6376,10.6376,10.6376,10.6376,10.6376,10.6376,10.6376,10.6376,10.6376,10.6376,10.6376,10.6376,10.6376,10.6376,0.0,0.0,0.0,0.0,0.0,5.5876,0.0,0.0,0.0,6.1647,0.0,0.0,0.0,0.0,0.0,0.0,0.0,0.0,0.0,0.0,0.0,0.0,0.0,0.0,0.0,8.7142,8.7288,8.7912,8.6811,8.6371,8.6995,8.7619,8.8353,8.916,8.9968,9.0776,9.1546,9.173,9.1803,9.1803,9.1803,9.1803,9.184,9.2721,9.3529,9.4336,9.5144,9.5951,9.6685,9.6685,9.6685,9.6685,9.6685,9.6685,9.6832,9.7787,9.8557,9.9255,10.0209,10.098,10.1494,10.1494,10.1494,10.1494,10.1494,10.1494,10.1494,10.1494,10.1494,10.1494,10.1494,10.2301,10.2999,10.2779,10.4394,10.6009,10.6302,10.6376,10.6376,10.6376,10.6376,10.6376,10.6376,10.6376,10.6376,10.6376,10.6376,10.6376,10.6376,10.6376,10.6376,10.6376,10.6376,10.6376,10.6376,10.6376,10.6376,10.6376,10.6376,10.6376,10.6376,10.6376,10.6376,10.6376,10.6376,10.6376,10.6376,10.6376,10.6376,10.6376,10.6376,10.6376,0.0,0.0,0.0,0.0,6.1181,0.0,0.0,0.0,5.6966,5.5007,0.0,0.0,0.0,0.0,0.0,0.0,0.0,0.0,0.0,0.0,0.0,0.0,0.0,0.0,0.0,0.0,8.4058,8.6921,8.4425,8.3985,8.6848,8.7105,8.7509,8.8316,8.9124,8.9931,9.0739,9.1436,9.1803,9.1803,9.1803,9.1803,9.184,9.2721,9.3529,9.4336,9.5144,9.5951,9.6685,9.6685,9.6685,9.6685,9.6685,9.6685,9.6869,9.8411,9.9035,9.9328,10.0796,10.1384,10.1494,10.1494,10.1494,10.1494,10.1494,10.1494,10.1494,10.1494,10.1494,10.1494,10.1494,10.2081,10.2595,10.1898,10.2999,10.4577,10.6082,10.6376,10.6376,10.6376,10.6376,10.6376,10.6376,10.6376,10.6376,10.6376,10.6376,10.6376,10.6376,10.6376,10.6376,10.6376,10.6376,10.6376,10.6376,10.6376,10.6376,10.6376,10.6376,10.6376,10.6376,10.6376,10.6376,10.6376,10.6376,10.6376,10.6376,10.6376,10.6376,10.6376,10.6376,10.6376,0.0,0.0,0.0,0.0,0.0,0.0,0.0,0.0,5.4973,0.0,0.0,0.0,0.0,0.0,0.0,0.0,0.0,0.0,0.0,0.0,0.0,0.0,0.0,0.0,0.0,0.0,0.0,0.0,0.0,8.3398,8.6151,8.6738,8.7362,8.8169,8.8977,8.9821,9.0592,9.14,9.1803,9.1803,9.1803,9.1803,9.184,9.3198,9.3969,9.4373,9.5658,9.6392,9.6685,9.6685,9.6685,9.6685,9.6685,9.6685,9.6906,9.8521,9.9108,9.9328,10.0907,10.1494,10.1494,10.1494,10.1494,10.1494,10.1494,10.1494,10.1494,10.1494,10.1494,10.1604,10.2081,10.2595,10.2999,10.3293,10.4394,10.5495,10.6192,10.6376,10.6376,10.6376,10.6376,10.6376,10.6376,10.6376,10.6376,10.6376,10.6376,10.6376,10.6376,10.6376,10.6376,10.6376,10.6376,10.6376,10.6376,10.6376,10.6376,10.6376,10.6376,10.6376,10.6376,10.6376,10.6376,10.6376,10.6376,10.6376,10.6376,10.6376,10.6376,10.6376,10.6376,10.6376,6.6396,0.0,0.0,0.0,0.0,0.0,0.0,0.0,0.0,0.0,0.0,0.0,0.0,0.0,0.0,0.0,0.0,0.0,0.0,0.0,0.0,0.0,0.0,0.0,0.0,0.0,0.0,0.0,0.0,0.0,8.527,8.604,8.6811,8.7839,8.8867,8.9711,9.0298,9.1289,9.1803,9.1803,9.1803,9.1913,9.2207,9.3639,9.441,9.4703,9.6098,9.6685,9.6685,9.6685,9.6685,9.6685,9.6685,9.6685,9.6906,9.8521,9.9108,9.9328,10.0907,10.1494,10.1494,10.1494,10.1494,10.1494,10.1494,10.1494,10.1494,10.1494,10.1677,10.1971,10.2522,10.3182,10.3806,10.4504,10.5605,10.6376,10.6376,10.6376,10.6376,10.6376,10.6376,10.6376,10.6376,10.6376,10.6376,10.6376,10.6376,10.6376,10.6376,10.6376,10.6376,10.6376,10.6376,10.6376,10.6376,10.6376,10.6376,10.6376,10.6376,10.6376,10.6376,10.6376,10.6376,10.6376,10.6376,10.6376,10.6376,10.6376,10.6376,10.6376,10.6376,10.6376,0.0,0.0,0.0,0.0,0.0,0.0,0.0,0.0,5.8685,0.0,0.0,0.0,0.0,0.0,0.0,0.0,0.0,0.0,0.0,0.0,0.0,0.0,0.0,0.0,0.0,0.0,0.0,0.0,0.0,0.0,8.4205,8.4646,8.5416,8.6995,8.8573,8.9417,8.9454,9.1033,9.1803,9.1803,9.1803,9.2244,9.3088,9.3932,9.4703,9.5511,9.6355,9.6685,9.6685,9.6685,9.6685,9.6685,9.6685,9.6685,9.6906,9.8521,9.9108,9.9328,10.0907,10.1494,10.1494,10.1494,10.1494,10.1494,10.1494,10.1494,10.1494,10.1494,10.2081,10.2705,10.2705,10.3917,10.5018,10.4798,10.5605,10.6376,10.6376,10.6376,10.6376,10.6376,10.6376,10.6376,10.6376,10.6376,10.6376,10.6376,10.6376,10.6376,10.6376,10.6376,10.6376,10.6376,10.6376,10.6376,10.6376,10.6376,10.6376,10.6376,10.6376,10.6376,10.6376,10.6376,10.6376,10.6376,10.6376,10.6376,10.6376,10.6376,10.6376,10.6376,10.6376,10.6376,0.0,0.0,7.4882,6.8128,0.0,0.0,0.0,0.0,0.0,0.0,0.0,0.0,0.0,0.0,0.0,0.0,0.0,0.0,0.0,0.0,0.0,0.0,0.0,0.0,0.0,0.0,0.0,0.0,7.4074,0.0,0.0,8.4022,8.5343,8.6958,8.8573,8.9674,9.0188,9.1253,9.1803,9.1803,9.1803,9.2244,9.3125,9.3932,9.474,9.5547,9.6355,9.6685,9.6685,9.6685,9.6685,9.6685,9.6685,9.7016,9.7603,9.8704,9.9108,9.9328,10.0907,10.1494,10.1494,10.1494,10.1494,10.1494,10.1494,10.1494,10.1604,10.2118,10.2485,10.2925,10.4027,10.4724,10.5201,10.5715,10.6082,10.6376,10.6376,10.6376,10.6376,10.6376,10.6376,10.6376,10.6376,10.6376,10.6376,10.6376,10.6376,10.6376,10.6376,10.6376,10.6376,10.6376,10.6376,10.6376,10.6376,10.6376,10.6376,10.6376,10.6376,10.6376,10.6376,10.6376,10.6376,10.6376,10.6376,10.6376,10.6376,10.6376,10.6376,10.6376,10.6376,10.6376,7.8369,7.8662,0.0,0.0,7.0257,0.0,0.0,0.0,0.0,0.0,0.0,0.0,0.0,0.0,0.0,0.0,0.0,0.0,0.0,5.216,0.0,0.0,0.0,0.0,0.0,0.0,6.5778,7.1541,7.066,7.2936,0.0,0.0,8.4205,8.6114,8.828,8.9674,9.0188,9.1253,9.1803,9.1803,9.2097,9.2721,9.3565,9.4336,9.518,9.5951,9.6465,9.6685,9.6685,9.6685,9.6685,9.6685,9.6685,9.7199,9.8007,9.8814,9.9475,10.0099,10.109,10.1494,10.1494,10.1494,10.1494,10.1494,10.1494,10.1494,10.1677,10.2485,10.2889,10.3403,10.4798,10.5311,10.5715,10.6302,10.6376,10.6376,10.6376,10.6376,10.6376,10.6376,10.6376,10.6376,10.6376,10.6376,10.6376,10.6376,10.6376,10.6376,10.6376,10.6376,10.6376,10.6376,10.6376,10.6376,10.6376,10.6376,10.6376,10.6376,10.6376,10.6376,10.6376,10.6376,10.6376,10.6376,10.6376,10.6376,10.6376,10.6376,10.6376,10.6376,10.6376,10.6376]},{"header":{"parameterUnit":"m.s-1","parameterCategory":1,"la1":30.6,"la2":29.2853,"lo1":-89.7004,"lo2":-87.6739,"dy":0.0162,"dx":0.0183,"nx":112,"ny":82,"refTime":"2026-05-01T12:00:00:Z","depth":0,"parameterNumber":3,"parameterNumberName":"V-component_of_WINDS"},"data":[0.0,0.0,0.0,0.0,0.0,0.0,0.0,0.0,0.0,0.0,0.0,0.0,0.0,0.0,0.0,0.0,0.0,0.0,0.0,0.0,0.0,0.0,0.0,0.0,0.0,0.0,0.0,0.0,0.0,0.0,0.0,0.0,0.0,0.0,0.0,0.0,0.0,0.0,0.0,0.0,0.0,0.0,0.0,0.0,0.0,0.0,0.0,0.0,0.0,0.0,0.0,0.0,0.0,0.0,0.0,0.0,0.0,0.0,0.0,0.0,0.0,0.0,0.0,0.0,0.0,0.0,0.0,0.0,0.0,0.0,0.0,0.0,0.0,0.0,0.0,0.0,0.0,0.0,0.0,0.0,0.0,0.0,0.0,0.0,0.0,0.0,0.0,0.0,0.0,0.0,0.0,0.0,0.0,0.0,0.0,0.0,0.0,0.0,0.0,0.0,0.0,0.0,0.0,0.0,0.0,0.0,0.0,0.0,0.0,0.0,0.0,0.0,0.0,0.0,0.0,0.0,0.0,0.0,0.0,0.0,0.0,0.0,0.0,0.0,0.0,0.0,0.0,0.0,0.0,0.0,0.0,0.0,0.0,0.0,0.0,0.0,0.0,0.0,0.0,0.0,0.0,0.0,0.0,0.0,0.0,0.0,0.0,0.0,0.0,0.0,0.0,0.0,0.0,0.0,0.0,0.0,0.0,0.0,0.0,0.0,0.0,0.0,0.0,0.0,0.0,0.0,0.0,0.0,0.0,0.0,0.0,0.0,0.0,0.0,0.0,0.0,0.0,0.0,0.0,0.0,0.0,0.0,0.0,0.0,0.0,0.0,0.0,0.0,0.0,0.0,0.0,0.0,0.0,0.0,0.0,0.0,0.0,0.0,0.0,0.0,0.0,0.0,0.0,0.0,0.0,0.0,0.0,0.0,0.0,0.0,0.0,0.0,0.0,0.0,0.0,0.0,0.0,0.0,0.0,0.0,0.0,0.0,0.0,0.0,0.0,0.0,0.0,0.0,0.0,0.0,0.0,0.0,0.0,0.0,0.0,0.0,0.0,0.0,0.0,0.0,0.0,0.0,0.0,0.0,0.0,0.0,0.0,0.0,0.0,0.0,0.0,0.0,0.0,0.0,0.0,0.0,0.0,0.0,0.0,0.0,0.0,0.0,0.0,0.0,0.0,0.0,0.0,0.0,0.0,0.0,0.0,0.0,0.0,0.0,0.0,0.0,0.0,0.0,0.0,0.0,0.0,0.0,0.0,0.0,0.0,0.0,0.0,0.0,0.0,0.0,0.0,0.0,0.0,0.0,0.0,0.0,0.0,0.0,0.0,0.0,0.0,0.0,0.0,0.0,0.0,0.0,0.0,0.0,0.0,0.0,0.0,0.0,0.0,0.0,0.0,0.0,0.0,0.0,0.0,0.0,0.0,0.0,0.0,0.0,0.0,0.0,0.0,0.0,0.0,0.0,0.0,0.0,0.0,0.0,0.0,0.0,0.0,0.0,0.0,0.0,0.0,0.0,0.0,0.0,0.0,0.0,0.0,0.0,0.0,0.0,0.0,0.0,0.0,0.0,0.0,0.0,0.0,0.0,0.0,0.0,0.0,0.0,0.0,0.0,0.0,0.0,0.0,0.0,0.0,0.0,0.0,0.0,0.0,0.0,0.0,0.0,0.0,0.0,0.0,0.0,0.0,0.0,0.0,0.0,0.0,0.0,0.0,0.0,0.0,0.0,0.0,0.0,0.0,0.0,0.0,0.0,0.0,0.0,0.0,0.0,0.0,0.0,0.0,0.0,0.0,0.0,0.0,0.0,0.0,0.0,0.0,0.0,0.0,0.0,0.0,0.0,0.0,0.0,0.0,0.0,0.0,0.0,0.0,0.0,0.0,0.0,0.0,0.0,0.0,0.0,0.0,0.0,0.0,0.0,0.0,0.0,0.0,0.0,0.0,0.0,0.0,0.0,0.0,0.0,0.0,0.0,0.0,0.0,0.0,0.0,0.0,0.0,0.0,0.0,0.0,0.0,0.0,0.0,0.0,0.0,0.0,0.0,0.0,0.0,0.0,0.0,0.0,0.0,0.0,0.0,0.0,0.0,0.0,0.0,0.0,0.0,0.0,0.0,0.0,0.0,0.0,0.0,0.0,0.0,0.0,0.0,0.0,0.0,0.0,0.0,0.0,0.0,0.0,0.0,0.0,0.0,0.0,0.0,0.0,0.0,0.0,0.0,0.0,0.0,0.0,0.0,0.0,0.0,0.0,0.0,0.0,0.0,0.0,0.0,0.0,0.0,0.0,0.0,0.0,0.0,0.0,0.0,0.0,0.0,0.0,0.0,0.0,0.0,0.0,0.0,0.0,0.0,0.0,0.0,0.0,0.0,0.0,0.0,0.0,0.0,0.0,0.0,0.0,0.0,0.0,0.0,0.0,0.0,0.0,0.0,0.0,0.0,0.0,0.0,0.0,0.0,0.0,0.0,0.0,0.0,0.0,0.0,0.0,0.0,0.0,0.0,0.0,0.0,0.0,0.0,0.0,0.0,0.0,0.0,0.0,0.0,0.0,0.0,0.0,0.0,0.0,0.0,0.0,0.0,0.0,0.0,0.0,0.0,0.0,0.0,0.0,0.0,0.0,0.0,0.0,0.0,0.0,0.0,0.0,0.0,0.0,0.0,0.0,0.0,0.0,0.0,0.0,0.0,0.0,0.0,0.0,0.0,0.0,0.0,0.0,0.0,0.0,0.0,0.0,0.0,0.0,0.0,0.0,0.0,0.0,0.0,0.0,0.0,0.0,0.0,0.0,0.0,0.0,0.0,0.0,0.0,0.0,0.0,0.0,0.0,0.0,0.0,0.0,0.0,0.0,0.0,0.0,0.0,0.0,0.0,0.0,0.0,0.0,0.0,0.0,0.0,0.1236,0.4283,0.0,0.0,0.0,0.0,0.0,0.0,0.0,0.0,0.0,0.0,0.0,0.0,0.0,0.0,0.0,0.0,0.0,0.0,0.0,0.0,0.0,0.0,0.0,0.0,0.0,0.0,0.0,0.0,0.0,0.0,0.0,0.0,0.0,0.0,0.0,0.0,0.0,0.0,0.0,0.0,0.0,0.0,0.0,0.0,0.0,0.0,0.0,0.0,0.0,0.0,0.0,0.0,0.0,0.0,0.0,0.0,0.0,0.0,0.0,0.0,0.0,0.0,0.0,0.0,0.0,0.0,0.0,0.0,0.0,0.0,0.0,0.0,0.0,0.0,0.0,0.0,0.0,0.0,0.0,0.0,0.0,0.0,0.0,0.0,0.0,0.0,0.0,0.0,0.0,0.0,0.0,0.0,0.0,0.0,0.0,0.0,0.0,0.0,0.0,0.0,0.0,0.0,0.0,0.0,0.0,0.0,0.0,0.0,0.0,0.2045,0.4684,0.7754,0.0,0.0,0.0,0.0,0.0,0.0,0.0,0.0,0.0,0.0,0.0,0.0,0.0,0.0,0.0,0.0,0.0,0.0,0.0,0.0,0.0,0.0,0.0,0.0,0.0,0.0,0.0,0.0,0.0,0.0,0.0,0.0,0.0,0.0,0.0,0.0,0.0,0.0,0.0,0.0,0.0,0.0,0.0,0.0,0.0,0.0,0.0,0.0,0.0,0.0,0.0,0.0,0.0,0.0,0.0,0.0,0.0,0.0,0.0,0.0,0.0,0.0,0.0,0.0,0.0,0.0,0.0,0.0,0.0,0.0,0.0,0.0,0.0,0.0,0.0,0.0,0.0,0.0,0.0,0.0,0.0,0.0,0.0,0.0,0.0,0.0,0.0,0.0,0.0,0.0,0.0,0.0,0.0,0.0,0.0,0.0,0.0,0.0,0.0,0.0,0.0,0.0,0.0,0.0,0.0,0.0,0.0,0.0,0.0151,0.6605,1.0452,0.0,0.0,0.0,0.0,0.0,0.0,0.0,0.0,0.0,0.0,0.0,0.0,0.0,0.0,0.0,0.0,0.0,0.0,0.0,0.0,0.0,0.0,0.0,0.0,0.0,0.0,0.0,0.0,0.0,0.0,0.0,0.0,0.0,0.0,0.0,0.0,0.0,0.0,0.0,0.0,0.0,0.0,0.0,0.0,0.0,0.0,0.0,0.0,0.0,0.0,0.0,0.0,0.0,0.0,0.0,0.0,0.0,0.0,0.0,0.0,0.0,0.0,0.0,0.0,0.0,0.0,0.0,0.0,0.0,0.0,0.0,0.0,0.0,0.0,0.0,0.0,0.0,0.0,0.0,0.0,0.0,0.0,0.0,0.0,0.0,0.0,0.0,0.0,0.0,0.0,0.0,0.0,0.0,0.0,0.0,0.0,0.0,0.0,0.0,0.0,0.0,0.0,0.0,0.0,0.0,0.0,0.0,0.0,0.2489,0.8883,1.0989,1.1545,1.0443,0.0,0.0,0.0,0.0,0.0,0.0,0.0,0.0,0.0,0.0,0.0,0.0,0.0,0.0,0.0,0.0,0.0,0.0,0.0,0.0,0.0,0.0,0.0,0.0,0.0,0.0,0.0,0.0,0.0,0.0,0.0,0.0,0.0,0.0,0.0,0.0,0.0,0.0,0.0,0.0,0.0,0.0,0.0,0.0,0.0,0.0,0.0,0.0,0.0,0.0,0.0,0.0,0.0,0.0,0.0,0.0,0.0,0.0,0.0,0.0,0.0,0.0,0.0,0.0,0.0,0.0,0.0,0.0,0.0,0.0,0.0,0.0,0.0,0.0,0.0,0.0,0.0,0.0,0.0,0.0,0.0,0.0,0.0,0.0,0.0,0.0,0.0,0.0,0.0,0.0,0.0,0.0,0.0,0.0,0.0,0.0,0.0,0.0,0.0,0.0,0.0,0.0,0.0,0.0,0.0,0.0,0.3195,0.7553,1.3211,1.321,1.2262,1.0747,0.0,0.0,0.0,0.0,0.0,0.0,0.0,0.0,0.0,0.0,0.0,0.0,0.0,0.0,0.0,0.0,0.0,0.0,0.0,0.0,0.0,0.0,0.0,0.0,0.0,0.0,0.0,0.0,0.0,0.0,0.0,0.0,0.0,0.0,0.0,0.0,0.0,0.0,0.0,0.0,0.0,0.0,0.0,0.0,0.0,0.0,0.0,0.0,0.0,0.0,0.0,0.0,0.0,0.0,0.0,0.0,0.0,0.0,0.0,0.0,0.0,0.0,0.0,0.0,0.0,0.0,0.0,0.0,0.0,0.0,0.0,0.0,0.0,0.0,0.0,0.0,0.0,0.0,0.0,0.0,0.0,0.0,0.0,0.0,0.0,0.0,0.0,0.0,0.0,0.0,0.0,0.0,0.0,0.0,0.0,0.0,0.0,0.0,0.0,0.0,0.0,0.0,0.0,0.0,0.0,0.0,0.7245,1.2801,1.4138,1.38,1.2662,1.0855,0.0,0.0,0.0,0.0,0.0,0.0,0.0,0.0,0.0,0.0,0.0,0.0,0.0,0.0,0.0,0.0,0.0,0.0,0.0,0.0,0.0,0.0,0.0,0.0,0.0,0.0,0.0,0.0,0.0,0.0,0.0,0.0,0.0,0.0,0.0,0.0,0.0,0.0,0.0,0.0,0.0,0.0,0.0,0.0,0.0,0.0,0.0,0.0,0.0,0.0,0.0,0.0,0.0,0.0,0.0,0.0,0.0,0.0,0.0,0.0,0.8129,0.0,0.0,0.0,0.0,0.0,0.0,0.0,0.0,0.0,0.0,0.0,0.0,0.0,0.0,0.0,0.0,0.0,0.0,0.0,0.0,0.0,0.0,0.0,0.0,0.0,0.0,0.0,0.0,0.0,0.0,0.0,0.0,0.0,0.0,0.0,0.0,0.0,0.0,0.0,0.0,0.0,0.0,0.0,0.0,0.0,0.1676,0.5882,1.3728,1.3778,1.2813,1.1467,0.0,0.0,0.0,0.0,0.0,0.0,0.0,0.0,0.0,0.0,0.0,0.0,0.0,0.0,0.0,0.0,0.0,0.0,0.0,0.0,0.0,0.0,0.0,0.0,0.0,0.0,0.0,0.0,0.0,0.0,0.0,0.0,0.0,0.0,0.0,0.0,0.0,0.0,0.0,0.0,0.0,0.0,0.0,0.0,0.0,0.0,0.0,0.0,0.0,0.0,0.0,0.0,0.0,0.0,0.0,0.0,0.0,0.0,0.0,0.0,0.0,0.8046,0.0,0.0,0.0,0.0,0.0,0.0,0.0,0.0,0.0,0.0,0.0,0.0,0.0,0.0,0.0,0.0,0.0,0.0,0.0,0.0,0.0,0.0,0.0,0.0,0.0,0.0,0.0,0.0,0.0,0.0,0.0,0.0,0.0,0.0,0.0,0.0,0.0,0.0,0.0,0.0,0.0,0.0,0.0,0.0,0.3883,0.8463,1.3444,1.357,1.2965,1.2093,1.0663,0.0,0.0,0.0,0.0,0.0,0.0,0.0,0.0,0.0,0.0,0.0,0.0,0.0,0.0,0.0,0.0,0.0,0.0,0.0,0.0,0.0,0.0,0.0,0.0,0.0,0.0,0.0,0.0,0.0,0.0,0.0,0.0,0.0,0.0,0.0,0.0,0.0,0.0,0.0,0.0,0.0,0.0,0.0,0.0,0.0,0.0,0.0,0.0,0.0,0.0,0.0,0.0,0.0,0.0,0.0,1.2429,0.8961,0.8806,1.1344,1.0861,1.0407,0.9736,0.0,0.0,0.0,0.0,0.0,0.0,0.0,0.0,0.0,0.0,0.0,0.0,0.0,0.0,0.0,0.0,0.0,0.0,0.0,0.0,0.0,0.0,0.0,0.0,0.0,0.0,0.0,0.0,0.0,0.0,0.0,0.0,0.0,0.0,0.0,0.0,0.0,0.0,0.0,0.0,0.0,0.0654,0.2173,0.8959,1.3418,1.3451,1.3478,1.3211,1.2484,1.1516,1.0273,0.0,0.0,0.0,0.0,0.0,0.0,0.0,0.0,0.0,0.0,0.0,0.0,0.0,0.0,0.0,0.0,0.0,0.0,0.0,0.0,0.0,0.0,0.0,0.0,0.0,0.0,0.0,0.0,0.0,0.0,0.0,0.0,-0.0337,-0.0595,0.0,0.0,0.0,0.0,0.0,0.0,0.0,0.0,0.0,0.0,0.0,0.0,0.0,0.0,0.0,0.0,0.3911,1.158,1.2727,1.3232,1.2927,1.2271,1.2105,1.2574,1.2443,0.0,1.0789,0.9704,0.0,0.0,0.0,0.0,0.0,0.0,0.0,0.0,0.0,0.0,0.0,0.0,0.0,0.0,0.0,0.0,0.0,0.0,0.0,0.0,0.0,0.0,0.0,0.0,0.0,0.0,0.0,0.0,0.0,0.0,0.0,0.0,0.0,0.0,0.0,0.0,0.0,0.0,0.0,0.0,0.294,1.0882,1.2618,1.3458,1.341,1.3464,1.3137,1.2467,1.2287,1.1668,1.0344,0.9809,0.0,0.0,0.0,0.0,0.0,0.0,0.0,0.0,0.0,0.0,0.0,0.0,0.0,0.0,0.0,0.0,0.0,0.0,0.0,0.0,0.0,0.0,0.0,0.0,0.0,0.0,0.0,0.0,0.0,-0.0869,0.0,0.0,0.0,0.0,0.0,0.0,0.0,0.0,0.0,0.0,0.0,0.0,0.0,0.0,0.4951,0.775,0.7982,0.2695,0.337,0.9816,1.235,1.3528,1.3408,1.3212,1.3198,1.3198,1.3085,1.2862,1.2289,1.1392,1.0649,0.9758,0.0,0.0,0.0,0.0,0.0,0.0,0.9576,0.0,0.0,0.0,0.0,0.0,0.0,0.0,0.0,0.0,0.0,0.0,0.0,0.0,0.0,0.0,0.0,0.0,0.0,0.0,0.0,0.0,0.0,0.0,0.0,0.0,0.0,0.0,0.0,0.0,0.0,0.4478,0.8992,1.2912,1.3437,1.3417,1.3403,1.3464,1.3068,1.2601,1.2449,1.2309,1.1717,1.1121,1.0104,0.0,0.0,0.0,0.0,0.0,0.0,0.0,0.0,0.0,0.0,0.0,0.0,0.0,0.0,0.0,0.0,0.0,0.0,0.0,0.0,0.0,0.0,0.0,0.0,0.0,0.0,0.0,0.0,0.0,0.0,0.0,0.0,0.0,0.0,0.0,0.0,0.0,0.0,0.0,0.0,0.0,0.1095,0.3644,1.0156,1.3763,1.4169,0.7106,0.5392,0.8981,1.2222,1.3839,1.3782,1.3587,1.3573,1.3573,1.3573,1.3553,1.3431,1.2352,1.1687,1.1307,1.0618,0.9187,0.0,0.77,0.9569,1.1886,1.1847,1.1872,1.2023,1.1755,0.0,1.1605,1.0861,0.0,0.0,0.0,0.0,0.0,0.0,0.0,0.0,0.0,0.0,0.0,0.0,0.0,0.0,0.0,0.0,0.0,0.0,0.0,0.0,0.0,0.0,0.0834,0.2939,0.9246,1.3322,1.341,1.3417,1.3403,1.3403,1.3464,1.3143,1.2514,1.2488,1.2536,1.2465,1.1905,1.1128,0.0,0.0,0.0,0.0,0.0,0.0,0.0,0.0,0.0,0.0,0.0,0.0,0.0,0.0,0.0,0.0,0.0,0.0,0.0,0.0,0.0,0.0,0.0,0.0,0.0,0.0,0.0,0.0,0.0,0.0,0.0,0.0,0.0,0.0,0.0,0.0,0.0,0.0,0.0,0.0,0.0,0.4153,1.3325,1.4026,1.4171,1.3791,1.36,1.3661,1.3648,1.3797,1.4098,1.4041,1.4041,1.4041,1.4041,1.4041,1.3953,1.3756,1.299,1.2576,1.2379,1.21,1.1701,1.1442,1.2032,1.224,1.2429,1.2292,1.2149,1.2088,1.2501,1.2306,1.1775,1.0873,1.0412,0.0,0.0,0.5198,0.0,0.0,0.0,0.0,0.0,0.0,0.0,0.0,0.0,0.0,0.0,0.0,0.0,0.0,0.0,0.0,0.0,0.0,0.2905,1.0845,1.2755,1.3432,1.339,1.3403,1.3403,1.3403,1.3464,1.3185,1.2482,1.2568,1.2474,1.2461,1.1877,1.1337,1.069,0.9488,0.0,0.0,0.0,0.0,0.0,0.0,0.0,0.0,0.0,0.0,0.0,0.0,0.0,0.0,0.0,0.0,0.0,0.0,0.0,0.0,0.0,0.0,0.0,0.0,0.0,0.0,0.0,0.0,0.0,0.0,0.0,0.0,0.0,0.0,0.0,0.0,0.0,0.0,0.5896,1.071,1.4216,1.4379,1.4379,1.4222,1.4373,1.4299,1.4537,1.462,1.4489,1.4502,1.4502,1.4502,1.4502,1.4502,1.4468,1.4394,1.4027,1.362,1.3193,1.3006,1.2834,1.2637,1.2848,1.3026,1.2896,1.2935,1.2969,1.2901,1.2773,1.258,1.2162,1.1451,1.1599,1.1858,1.188,0.9991,0.82,0.8505,0.8678,0.8659,0.8691,0.8567,0.8599,0.8608,0.402,0.0,0.0,0.0,0.175,0.707,0.772,0.5813,0.0696,0.4635,0.9283,1.2608,1.3212,1.3411,1.3383,1.3403,1.3403,1.3403,1.3464,1.3143,1.2533,1.2862,1.2895,1.2539,1.2227,1.1839,1.1336,1.045,0.9106,0.0,0.0,0.0,0.0,0.0,0.0,0.0,0.0,0.0,0.0,0.0,0.0,0.0,0.0,0.0,0.0,0.0,0.0,0.0,0.0,0.0,0.0,0.0,0.0,0.0,0.0,0.0,0.0,0.2645,0.3272,0.0271,0.0,0.1314,0.4554,0.4823,0.4208,0.2626,0.864,1.2841,1.4395,1.4428,1.4579,1.4668,1.4577,1.4477,1.474,1.4767,1.4794,1.4821,1.4821,1.4821,1.4821,1.4821,1.4787,1.4733,1.4631,1.436,1.3966,1.3614,1.3444,1.3397,1.3397,1.3397,1.341,1.3512,1.3546,1.3492,1.3146,1.2901,1.2705,1.2179,1.2313,1.2683,1.2752,1.2759,1.2942,1.3233,1.337,1.3322,1.3322,1.3322,1.3473,1.3439,0.8734,0.4591,0.456,0.2057,0.1833,0.7374,1.0357,1.0139,0.4997,0.9132,1.2998,1.3346,1.3336,1.3329,1.3358,1.3458,1.3424,1.3471,1.3394,1.3179,1.2462,1.2852,1.2986,1.2529,1.2269,1.1988,1.1636,1.1062,0.9495,0.7083,0.0,0.0,0.0,0.0,0.0,0.0,0.0,0.0,0.0,0.0,0.0,0.0,0.0,0.0,0.0,0.0,0.0,0.0,0.0,0.0,0.0,0.0,0.0,0.0,0.0,0.0,0.0,0.7914,0.9949,0.1325,0.0306,0.4104,1.3387,1.4181,1.2476,0.7968,0.7784,1.0073,1.4757,1.4908,1.4794,1.4753,1.476,1.4767,1.4767,1.4767,1.4848,1.4991,1.4991,1.4991,1.4991,1.4991,1.4909,1.4767,1.476,1.476,1.4713,1.4265,1.4,1.3871,1.3871,1.3871,1.3871,1.3865,1.3858,1.3831,1.3688,1.3641,1.358,1.3117,1.2959,1.3045,1.3404,1.341,1.3465,1.3465,1.3389,1.3488,1.3488,1.3488,1.3462,1.3363,1.3343,1.3439,1.3349,0.636,0.0481,0.0476,0.7137,1.2554,1.2549,1.2965,0.0,1.3343,1.3487,1.3351,1.3449,1.3405,1.3464,1.3439,1.3436,1.3127,1.2442,1.2416,1.2514,1.2508,1.1935,1.1552,1.1525,1.0949,0.9503,0.7256,0.0,0.0,0.0,0.0,0.0,0.0,0.0,0.0,0.0,0.0,0.0,0.0,0.0,0.0,0.0,0.0,0.0,0.0,0.0,0.0,0.0,0.0,0.0,0.0,0.0,0.0,0.0,0.8296,1.3078,1.0589,0.7256,0.6356,0.9155,1.2558,1.4068,1.2776,1.2921,1.3575,1.4915,1.4957,1.5072,1.5059,1.5282,1.5391,1.5391,1.5391,1.5411,1.5459,1.5459,1.5459,1.5459,1.5459,1.5432,1.5384,1.5276,1.516,1.5025,1.4685,1.4529,1.4496,1.4496,1.4496,1.4475,1.4367,1.4258,1.415,1.4,1.3871,1.3763,1.3682,1.3512,1.3363,1.3844,1.4069,1.4131,1.4131,1.3988,1.4022,1.4022,1.4022,1.4009,1.3981,1.3797,1.3422,1.3349,1.139,0.9716,0.9718,1.1616,1.3109,1.315,0.0,0.0,1.3311,1.3803,1.3885,1.3512,1.3789,1.3881,1.3471,1.3408,1.282,0.0,1.1606,1.1775,1.1898,1.1325,1.0785,1.0266,1.0156,0.9912,0.0,0.0,0.0,0.0,0.0,0.0,0.0,0.0,0.0,0.0,0.0,0.0,0.0,0.0,0.0,0.0,0.0,0.0,0.0,0.0,0.0,0.0,0.0,0.1427,0.5402,0.605,0.5962,0.6025,1.0859,1.433,1.4508,1.1796,1.0309,1.06,1.3146,1.484,1.4848,1.4923,1.5018,1.5147,1.5296,1.5371,1.5371,1.5547,1.5642,1.5642,1.5642,1.5642,1.5642,1.5642,1.5642,0.0,1.5642,1.5642,1.5635,1.554,1.5452,0.0,0.0,0.0,0.0,0.0,1.474,1.4726,1.4638,1.4557,1.4468,1.438,1.4245,1.4109,1.4048,1.3854,1.384,1.4139,1.434,1.4215,1.4215,1.4215,1.4215,1.4215,1.4215,1.4374,1.4305,1.3939,1.374,1.3851,0.0,0.0,1.3749,1.3521,1.3356,1.3363,1.3144,1.3095,0.0,1.4138,1.4215,1.3733,1.3797,1.3709,1.3506,1.3404,0.0,0.0,0.0,1.1603,1.1626,1.1255,0.0,0.0,0.0,0.0,0.0,0.0,0.0,0.0,0.8158,0.8406,0.0,0.0,0.0,0.0,0.0,0.0,0.0,0.0,0.0,0.0,0.0,0.0,0.0,0.0,0.0,0.0,0.0865,0.4655,1.3078,1.4371,1.4339,1.4294,1.4173,1.4201,1.4569,1.451,1.4455,1.4972,1.4943,1.495,1.5194,0.0,0.0,0.0,0.0,1.5662,1.5662,1.5683,1.5689,1.5689,1.5689,1.5689,1.5689,1.5689,1.5689,1.5689,1.5689,1.5689,1.5689,1.5669,1.5655,1.5601,1.5201,1.4964,1.4841,1.4821,1.4814,0.0,0.0,0.0,0.0,1.4746,1.4652,1.4516,1.4387,1.4346,1.4319,1.4366,1.4245,1.4346,1.4346,1.4346,1.4346,1.4346,1.4346,1.4306,1.4331,1.4297,1.4256,1.4277,1.4249,1.4249,1.4249,1.3865,1.3449,1.3499,1.3429,0.0,1.4222,1.4235,1.4347,1.4251,0.0,0.0,1.35,1.3576,1.3171,1.2655,1.198,1.1647,1.1551,1.1511,1.1488,1.1461,1.1052,1.0772,1.0743,1.0743,1.0809,1.0757,1.0214,1.0184,0.0,0.0,0.0,0.0,0.0,0.0,0.0,0.0,0.0,0.0,0.0,0.0,0.0,0.0,0.0,0.0,0.6539,1.223,1.4102,1.4259,1.4312,1.4228,1.4366,1.4503,1.4661,1.4597,1.4726,1.4882,1.5025,1.5187,1.5357,1.5486,0.0,1.5635,1.575,1.5811,1.5811,1.5934,1.5995,1.5995,0.0,0.0,1.5995,1.5995,1.5995,1.5995,1.5995,1.5995,1.5988,1.5866,1.5744,1.5628,1.5547,1.5493,1.5452,1.5323,1.5282,1.5248,1.5011,1.493,1.4903,1.478,1.4719,1.4692,1.4658,1.447,0.0,1.443,1.4262,1.4282,1.4282,1.4282,1.4282,1.4282,1.4282,1.4243,1.4276,1.4242,1.438,1.4245,1.4217,1.4217,1.4217,1.4187,1.4187,1.4159,1.4105,1.4208,1.4208,1.4311,1.4366,1.4304,1.4242,1.4167,1.4071,1.4055,1.3938,1.3301,1.2225,1.1534,1.158,1.1129,1.0831,1.0843,1.1279,1.1402,1.1491,1.1491,1.1362,1.1375,1.0822,1.0853,0.0,0.0,0.0,0.0,0.0,0.0,0.0,0.0,0.0,0.0,0.0,0.0,0.0,0.0,0.6785,0.7141,0.9133,1.1552,1.3968,1.4361,1.4338,1.4434,1.4544,1.4702,1.4746,1.4889,1.5025,1.5181,1.533,1.5445,1.552,1.5594,1.5642,1.5642,1.571,1.5778,1.5852,1.5927,1.6008,1.6083,1.6083,1.6123,1.6198,1.6198,1.6232,1.63,1.6225,1.6198,1.6185,1.6029,1.5927,1.5859,1.5859,1.5771,1.5628,1.5554,1.5527,1.5506,1.5357,1.5303,1.5282,1.5126,1.5025,1.495,1.4875,1.4801,1.474,1.4551,1.4557,1.474,1.474,1.474,1.474,1.474,1.474,1.4719,1.4826,1.4443,1.4236,1.435,1.4336,1.4336,1.4336,1.4216,1.4245,1.4277,1.4318,1.4366,1.4366,1.4251,1.4272,1.4373,1.4366,1.4331,1.4256,1.3974,1.3665,1.3363,1.2827,1.2367,1.1987,1.175,1.1671,1.1599,1.1904,1.206,1.206,1.206,1.2101,1.2018,1.1788,1.1791,0.0,0.0,0.0,0.0,0.0,0.0,0.0,0.0,0.0,0.0,0.1402,0.2537,0.2538,0.7837,1.2587,1.4033,1.1025,0.9913,1.372,1.4325,1.4393,1.4551,1.4489,1.4665,1.4943,1.5099,1.5235,1.5357,1.5506,1.5594,1.5594,1.5622,1.5649,1.5683,1.5683,1.575,1.5893,1.59,1.5961,1.6083,1.6083,1.6144,1.6266,1.6266,1.6327,1.6429,1.6313,1.6279,1.63,1.6178,1.6144,1.6164,1.6137,1.5981,1.5764,1.5703,1.5683,1.5676,1.5649,1.5642,1.5615,1.5493,1.5371,1.5248,1.5133,1.4997,1.5059,1.4869,1.5039,1.5209,1.5209,1.5209,1.5209,1.5209,1.5209,1.5195,1.5174,1.4787,1.4401,1.4557,1.4551,1.4551,1.4551,1.4551,1.447,1.4242,1.4387,1.4387,1.4387,1.4387,1.4387,1.4387,1.4387,1.4373,1.434,1.3907,1.3586,1.3542,1.352,1.3255,1.2725,1.2683,1.2649,1.2622,1.2622,1.2663,1.2596,1.2596,1.2671,1.2655,1.2682,1.2637,0.0,0.0,0.0,0.0,0.0,0.0,0.0,0.0,0.0,0.0,0.6283,1.1851,1.1931,0.962,0.9164,1.3241,1.3702,1.3713,1.4297,1.4217,1.4333,1.4475,1.4624,1.478,1.4957,1.5099,1.5187,1.5208,1.535,1.5438,1.5438,1.5567,1.5696,1.5825,1.5832,1.59,1.6056,1.6056,1.6062,1.6083,1.6083,1.609,1.611,1.611,1.6117,1.613,1.611,1.6185,1.6307,1.6293,1.6361,1.6463,1.6334,1.6266,1.6205,1.5927,1.5832,1.5811,1.5683,1.5642,1.5635,1.5622,1.5601,1.5588,1.5567,1.5459,1.5337,1.514,1.5235,1.5133,1.5133,1.5133,1.5133,1.5133,1.5133,1.5286,1.5162,1.5135,1.5094,1.5146,1.5118,1.5118,1.5118,1.5118,1.4915,1.4322,1.4315,1.4315,1.4315,1.4315,1.4315,1.4315,1.4315,1.4262,1.4316,1.4162,1.417,1.416,1.3709,1.3358,1.3311,1.3349,1.3377,1.3246,1.324,1.3346,1.3241,1.3241,1.3311,1.3295,1.3261,1.3322,0.0,0.0,0.0,0.0,0.0,0.134,0.6637,0.7869,0.7015,0.4374,0.6938,1.0398,1.3082,1.2181,1.1587,0.0,1.4208,1.4258,1.434,1.4394,1.4441,1.4502,1.4645,1.4835,1.5072,1.5309,1.5486,1.5567,1.5635,1.5669,1.5669,1.5649,1.5669,1.5723,1.573,1.5798,1.5947,1.5947,1.5995,1.6083,1.6083,1.613,1.6218,1.6218,1.6218,1.6218,1.6218,1.6198,1.6178,1.6178,1.6212,1.6259,1.6198,1.6178,1.6164,1.6035,1.5988,1.5981,1.592,1.5893,1.5879,1.5791,1.5764,1.575,1.5662,1.5594,1.554,1.5341,1.5103,1.5247,1.5247,1.5247,1.5247,1.5247,1.5247,1.5234,1.5174,1.5167,1.5147,1.5276,1.5194,1.5133,1.5133,1.5245,1.5183,1.4805,1.4848,1.4746,1.4746,1.4746,1.4746,1.4746,1.4746,1.4901,1.484,1.4778,1.4641,1.44,1.4089,1.3939,1.3933,1.3871,1.3971,1.3909,1.3559,1.3365,1.3471,1.3471,1.3331,1.3392,1.3803,1.3985,0.0,0.0,0.0,0.0,0.1851,0.5443,1.1985,1.3391,1.2447,0.9179,0.8473,0.9577,1.3078,1.37,1.3858,1.4228,1.4251,1.4407,1.4557,1.4536,1.4509,1.4509,1.4611,1.4794,1.5092,1.5398,1.5622,1.5723,1.5771,1.5791,1.5791,1.5696,1.5655,1.5696,1.5696,1.5771,1.5913,1.592,1.5974,1.6083,1.6083,1.6137,1.6246,1.6246,1.6246,1.6246,1.6246,1.6205,1.6144,1.6144,1.6171,1.6198,1.6157,1.6144,1.6137,1.6096,1.6083,1.6083,1.6083,1.6083,1.6062,1.5954,1.592,1.59,1.5791,1.573,1.5696,1.5495,1.5468,1.5241,1.5442,1.5442,1.5442,1.5442,1.5442,1.5428,1.5388,1.5415,1.5428,1.5388,1.552,1.5472,1.5274,1.5187,1.5113,1.5113,1.5126,1.5149,1.525,1.5243,1.5243,1.5243,1.5243,1.5243,1.5243,1.5209,1.5083,1.4502,1.4441,1.4319,1.4277,1.427,1.4235,1.4326,1.3794,1.3574,1.3666,1.3666,1.3707,1.3614,1.4146,1.4249,0.0,0.0,0.0,0.0,0.6515,1.307,1.3376,1.3447,1.338,1.3193,1.3234,1.3261,1.3424,1.3661,1.3885,1.4048,1.4319,1.4557,1.4713,1.4604,1.4509,1.4509,1.4516,1.4638,0.0,1.5242,1.5418,1.5425,1.556,1.5649,1.5649,1.5642,1.5703,1.5845,1.5845,1.592,1.6076,1.6076,1.6076,1.6083,1.6083,1.6083,1.609,1.609,1.609,1.609,1.609,1.6171,1.63,1.63,1.6381,1.6497,1.6354,1.63,1.6286,1.6137,1.6083,1.6083,1.6083,1.6083,1.6083,1.6076,1.6076,1.6076,1.6069,1.5961,1.5845,1.6048,1.575,1.5642,1.6036,1.6043,1.6043,1.6043,1.6043,1.6001,1.6039,1.6131,1.5994,1.6039,1.6131,1.5835,1.5235,1.5228,1.5228,1.5228,1.5222,1.5109,1.5208,1.5167,1.5167,1.5167,1.5167,1.5167,1.5167,1.5231,1.5149,1.5142,1.4618,1.4348,1.4335,1.4335,1.439,1.4292,1.4285,1.4318,1.4201,1.4201,1.4347,1.4285,1.4285,1.4263,0.1454,0.0,0.1441,0.7366,1.1458,1.3908,1.3791,1.3631,1.3556,1.3363,1.3112,1.2942,1.3098,1.32,1.3403,1.3844,1.434,1.4719,1.4869,1.5018,1.4957,1.4557,1.4774,0.0,0.0,0.0,0.0,1.5683,1.5662,1.5723,1.592,1.5839,1.5852,1.6001,1.6001,1.6029,1.6083,1.6083,1.6083,1.6083,1.6083,1.6083,1.6083,1.6185,1.6232,1.6239,1.6334,1.6402,1.6449,1.6449,1.6476,1.6517,1.6469,1.6395,1.6313,1.6361,1.6246,1.6083,1.6083,1.6083,1.6083,1.6083,1.6083,1.6083,1.6083,1.6049,1.6001,1.6008,1.5974,1.5934,1.6138,1.6138,1.6138,1.6138,1.6138,1.6124,1.6069,1.5696,1.571,1.6069,1.6021,1.5986,1.5784,1.5703,1.5835,1.5835,1.5442,1.5208,1.5109,1.5288,1.5247,1.5147,1.514,1.5289,1.5194,1.514,1.5259,1.5169,1.4923,1.4848,1.4929,1.4929,1.4881,1.4965,1.459,1.4356,1.4256,1.4256,1.4309,1.4223,1.4778,1.4936,0.6001,0.4588,0.6121,1.1919,1.3887,1.4223,1.3926,1.3688,1.3532,1.3356,1.2963,1.2678,1.2779,1.2759,1.2949,1.3654,1.4177,1.4645,1.5072,1.5242,1.5187,1.4801,1.4909,1.493,0.0,0.0,0.0,1.5669,1.571,1.5798,1.5988,1.5961,1.5981,1.6076,1.6137,1.6137,1.6083,1.6185,1.6239,1.6239,1.6239,1.6239,1.6239,1.6341,1.6388,1.6388,1.6483,1.6524,1.6524,1.6524,1.6524,1.6524,1.6524,1.6463,1.6395,1.649,1.6402,1.6232,1.6178,1.613,1.6083,1.6083,1.6083,1.6083,1.6083,1.6083,1.6083,1.6083,1.6083,1.6083,1.6083,1.6083,1.6083,1.6083,1.6083,1.6069,1.6015,1.5837,1.5658,1.6008,1.6165,1.6138,1.6138,1.6062,1.6196,1.6196,1.5798,1.5555,1.5455,1.5442,1.5601,1.5506,1.5294,1.5254,1.516,1.5154,1.5113,1.5215,1.5208,1.5167,1.5259,1.5252,1.5204,1.5278,1.4896,1.4658,1.4557,1.4604,1.4658,1.4705,1.4957,1.5113,1.2863,1.2936,1.3471,1.3412,1.3947,1.4173,1.3858,1.3532,1.3363,1.3186,1.2773,1.244,0.0,0.0,1.2549,1.3437,1.3878,1.4414,1.5289,1.5296,1.5208,0.0,0.0,0.0,0.0,0.0,0.0,1.5404,0.0,1.5852,1.5866,1.6008,1.6096,1.6096,1.6239,1.6252,1.6103,1.6381,1.6524,1.6524,1.6524,1.6524,1.6524,1.653,1.653,1.653,1.6537,1.6544,1.6544,1.6544,1.6544,1.6544,1.6544,1.6537,1.653,1.6544,1.6537,1.6503,1.6374,1.6225,1.6096,1.6096,1.609,1.6083,1.6083,1.6083,1.6083,1.6083,1.6083,1.6083,1.6083,1.6083,1.6083,1.6083,1.6083,1.6042,1.6096,1.6179,1.6042,1.6096,1.6179,1.6083,1.6083,1.6083,1.6083,1.6083,1.6083,1.6179,1.6098,1.6064,1.6064,1.6057,1.5649,1.5248,1.5241,1.5241,1.5241,1.5241,1.5241,1.5241,1.5241,1.5241,1.5301,1.5215,1.5208,1.5259,1.5167,1.5128,1.5265,1.5208,1.516,1.5308,1.372,1.3624,1.3573,1.4027,1.4249,1.418,1.3966,1.3579,1.3264,1.2942,1.2216,1.1606,0.0,0.0,0.0,1.2834,1.3865,0.0,1.533,1.5567,0.0,1.5221,0.0,1.5337,1.5147,1.5337,0.0,0.0,1.5649,1.5791,1.6008,1.6171,1.6252,1.6252,1.6395,1.6449,1.6408,1.6483,1.6524,1.6524,1.6524,1.6524,1.6524,1.6639,1.6693,1.67,1.6815,1.6863,1.6863,1.6863,1.6863,1.6863,1.6863,1.6795,1.6707,1.6822,1.672,1.653,1.6612,1.6469,1.6252,1.6252,1.6178,1.6083,1.6083,1.6083,1.6083,1.6083,1.6083,1.6083,1.6083,1.6083,1.6083,1.6083,1.6083,1.6069,1.6035,1.6056,1.6069,1.6035,1.6056,1.6083,1.6083,1.6083,1.6083,1.6083,1.6083,1.6056,1.6179,1.6172,1.6124,1.6014,1.6,1.5952,1.5849,1.5842,1.5842,1.5842,1.5842,1.5842,1.5842,1.5842,1.5801,1.5918,1.552,1.5288,1.5214,1.5254,1.5486,1.5918,1.5959,1.5863,1.3888,1.3912,1.3981,1.4169,1.4278,1.4068,1.3323,1.284,1.2416,1.1958,1.1443,1.0907,1.0609,1.0921,1.1511,0.0,0.0,0.0,1.5309,1.5615,1.5689,0.0,1.5513,0.0,1.5391,1.554,1.5669,0.0,1.5737,1.5832,1.6069,1.6225,1.6341,1.6402,1.6544,1.6653,1.672,1.6653,1.6653,1.672,1.672,1.672,1.6727,1.6815,1.6849,1.6856,0.0,1.6978,1.6978,1.6978,1.6978,1.6978,1.6978,1.6931,1.6863,1.6951,1.687,1.6734,1.6822,1.67,1.649,1.6422,1.6347,1.6273,1.6273,1.6273,1.6273,1.6273,1.6232,1.6185,1.6178,1.613,1.6083,1.6083,1.6083,1.6083,1.6083,1.6083,1.6083,1.6083,1.6137,1.6157,1.6096,1.6137,1.6157,1.609,1.6083,1.6083,1.6083,1.6083,1.6049,1.6165,1.6151,1.6124,1.6048,1.6041,1.6041,1.6041,1.6041,1.6041,1.6041,1.6041,1.6007,1.6133,1.5737,1.5502,1.5642,1.5502,1.5764,1.6041,1.6103,1.6015,1.3746,1.409,1.4706,1.439,1.4421,1.3887,1.2325,1.1566,1.1221,1.096,1.0595,1.0263,1.0005,1.0358,1.1043,1.2115,0.0,1.4238,1.5289,1.5554,1.5689,1.5839,1.5628,1.552,1.5655,1.5683,1.5757,1.59,1.5913,1.5974,1.6103,1.6273,1.6435,1.6578,1.6714,1.6842,1.6978,1.6849,1.6849,1.6978,1.6978,1.6978,1.6978,1.6978,1.6978,1.6978,0.0,0.0,1.6978,1.6978,1.6978,1.6978,1.6978,1.6978,1.6978,1.6978,1.6978,1.6978,1.6978,1.6897,1.6754,1.6605,1.6537,1.6524,1.6524,1.6524,1.6524,1.6524,1.6435,1.6341,1.6132,1.6239,1.6137,1.6117,1.611,1.6103,1.6083,1.6083,1.6083,1.6083,1.5998,1.6065,1.6137,1.6218,1.6058,1.613,1.6096,1.6083,1.6083,1.6083,1.609,1.611,1.611,1.6117,1.6137,1.6137,1.6137,1.6137,1.6137,1.6137,1.6137,1.6137,1.6076,1.6144,1.6144,1.6083,1.6161,1.6083,1.6008,1.6144,1.6273,1.6192,1.4477,1.4591,1.4733,1.5083,1.4682,1.3887,1.2156,1.0463,0.9584,1.0378,1.0039,0.9557,0.9503,1.0066,1.0914,1.2101,1.3268,1.4401,1.5452,1.5622,1.5689,0.0,1.5805,1.5784,1.5811,1.5927,0.0,0.0,0.0,0.0,1.6273,1.6524,1.6741,1.6897,1.6931,1.6951,1.6978,1.6951,1.6951,1.6978,1.6978,1.6978,1.6978,1.6978,1.6978,1.6978,0.0,0.0,1.6978,1.6978,1.6978,1.6978,1.6978,1.6978,1.6978,1.6978,1.6978,1.6978,1.6978,1.6965,1.6917,1.6761,1.6625,1.6524,1.6524,1.6524,1.6524,1.6524,1.6503,1.6483,1.6483,1.6463,1.6212,1.6091,1.6065,1.6031,1.611,1.6083,1.6083,1.6083,1.5998,1.63,1.6696,1.6501,1.6091,1.6071,1.6157,1.6083,1.6083,1.6083,1.613,1.6051,1.6065,1.6112,1.6022,1.6029,1.6029,1.6029,1.6029,1.6029,1.6029,1.6029,1.6015,1.6192,1.6192,1.6179,1.6158,1.6179,1.6002,1.6029,1.668,1.6918,1.458,1.4892,1.5052,1.5087,1.433,1.2981,1.1685,1.0399,0.956,0.9579,0.9279,0.9008,0.8927,0.9585,1.0432,1.1328,1.2413,1.3539,1.4665,1.4957,1.5255,1.5791,1.5852,1.5886,1.5961,1.6035,0.0,0.0,0.0,0.0,1.6537,1.6748,1.6904,1.6978,1.6978,1.6978,1.6978,1.6978,1.6978,1.6978,1.6978,1.6978,1.6978,1.6978,1.6978,1.6978,0.0,0.0,1.7087,1.7012,1.7026,1.7087,1.7087,1.7087,1.7087,1.7087,1.7141,1.7188,1.7032,1.7026,1.7066,1.6917,1.6822,1.6761,1.6761,1.6761,1.6761,1.6761,1.67,1.6639,1.6639,1.6578,1.6503,1.6232,1.6212,1.6185,1.6118,1.6105,1.6105,1.6105,1.6015,1.6306,1.6856,1.6835,1.6395,1.6112,1.6178,1.6083,1.6083,1.6083,1.611,1.6178,1.6467,1.655,1.6611,1.6483,1.6524,1.6524,1.6524,1.6524,1.6524,1.6524,1.6524,1.6524,1.6524,1.6524,1.6524,1.6524,1.6564,1.6639,1.6934,1.7016,1.4892,1.51,1.5147,1.5238,1.3803,1.2319,1.1252,1.0461,0.978,0.889,0.8635,0.8547,0.8492,0.9137,0.9917,1.0649,1.1572,1.2644,1.3939,1.4373,1.4882,1.575,1.5913,0.0,1.6117,1.6157,0.0,0.0,0.0,0.0,1.6795,1.6917,1.6978,1.6978,1.6978,1.6978,1.6978,1.6978,1.6998,1.7026,1.7026,1.7039,1.7073,1.7073,1.7073,1.7073,0.0,0.0,0.0,1.7121,1.7141,1.7243,1.7243,1.7243,1.7243,1.7243,1.7317,1.7385,1.7154,1.7148,1.7222,1.7114,1.7032,1.6978,1.6978,1.6978,1.6978,1.6978,1.6897,1.6802,1.6802,1.6707,1.6612,1.6578,1.6544,1.6312,1.6312,1.6312,1.6312,1.6312,1.622,1.65,1.7016,1.6995,1.6742,1.6212,1.6065,1.6171,1.6171,1.6171,1.6185,1.6018,1.6508,1.6786,1.7031,1.696,1.7044,1.7044,1.7044,1.7044,1.7044,1.7044,1.7044,1.7044,1.7071,1.7085,1.7085,1.6913,1.6989,1.6904,1.7019,1.7134,1.5224,1.5296,1.5147,1.5238,1.3874,1.2264,1.0963,1.0166,0.9406,0.885,0.8384,0.818,0.8431,0.8886,0.9591,1.0738,1.1457,1.2433,1.4055,1.4529,1.5004,1.5764,1.6096,1.6273,1.6286,1.6402,0.0,0.0,0.0,0.0,0.0,1.6971,1.6978,1.6978,1.6978,1.6978,1.6978,1.6978,1.7046,1.7175,1.7175,1.7243,1.7378,1.7378,1.7378,1.7378,0.0,0.0,0.0,1.7385,1.7385,1.7399,1.7399,1.7399,1.7399,1.7399,1.7405,1.7419,1.7392,1.7392,1.7399,1.7385,1.7202,1.6978,1.6978,1.6978,1.6978,1.6978,1.6971,1.6958,1.6958,1.6951,1.6904,1.6975,1.6838,1.6946,1.6946,1.6946,1.6946,1.6946,1.6859,1.6962,1.6948,1.6948,1.6727,1.6287,1.6154,1.6062,1.6062,1.6062,1.6115,1.6041,1.6154,1.6346,1.6913,1.7065,1.6937,1.6937,1.6937,1.6937,1.6937,1.6937,1.6937,1.6937,1.7066,1.6915,1.6915,1.7049,1.6908,1.6922,1.6935,1.7385,1.497,1.5492,1.573,1.581,1.4309,1.2577,1.099,1.0308,0.9764,0.8818,0.8289,0.8126,0.8425,0.8703,0.9164,1.0005,1.0412,1.1131,1.261,1.3146,1.3838,1.5038,1.5608,1.6015,0.0,0.0,0.0,0.0,0.0,0.0,0.0,1.6978,1.6978,1.6978,1.6978,1.6978,1.6978,1.7066,1.7134,1.7195,1.7283,1.7358,1.7419,1.7419,1.7419,1.7419,0.0,0.0,0.0,1.746,1.7473,1.7555,1.7555,1.7555,1.7555,1.7555,1.7616,1.767,1.748,1.748,1.7541,1.7453,1.7344,1.7243,1.7243,1.7243,1.7243,1.7243,1.7243,1.7222,1.7134,1.7046,1.6965,1.691,1.7058,1.701,1.701,1.701,1.701,1.701,1.7058,1.7099,1.7099,1.7023,1.6962,1.6748,1.6619,1.6558,1.6646,1.6659,1.6714,1.6654,1.6399,1.6426,1.6998,1.6942,1.7023,1.7023,1.6942,1.7107,1.7107,1.7026,1.6978,1.6978,1.6902,1.7188,1.7627,1.7566,1.7641,1.7641,1.7514,1.7561,1.4551,1.5355,1.5856,1.5746,1.4483,1.2669,1.1026,1.0437,0.9842,0.8771,0.8316,0.8187,0.8438,0.8608,0.8893,0.9449,0.9774,1.0412,1.1714,1.2325,1.3112,1.4387,0.0,1.5622,0.0,0.0,0.0,0.0,0.0,0.0,0.0,1.6978,1.6978,1.6978,1.7019,1.7039,1.7039,1.7188,1.7283,1.7331,1.7439,1.7507,1.7555,1.7555,1.7555,0.0,0.0,0.0,0.0,1.7595,1.7616,1.7717,1.7717,1.7717,1.7717,1.7717,1.7772,1.7826,1.7623,1.7623,1.7704,1.7589,1.7555,1.7555,1.7555,1.7487,1.7419,1.7419,1.7419,1.7385,1.7229,1.7121,1.7032,1.6992,1.6978,1.6978,1.6978,1.6978,1.6978,1.6978,1.6978,1.6978,1.6978,1.7106,1.703,1.703,1.6941,1.6927,1.7078,1.7099,1.7174,1.7374,1.6956,1.6743,1.7195,1.7331,1.7203,1.7203,1.7277,1.7188,1.6976,1.7053,1.6978,1.6978,1.6949,1.7263,1.7925,1.7899,1.7996,1.7996,1.7895,1.7944,1.3912,1.4658,1.53,1.5195,1.3887,1.2255,1.0982,1.028,0.9612,0.8859,0.8472,0.8316,0.8459,0.8608,0.8859,0.9313,0.9883,1.069,1.1891,1.2576,1.3234,1.3987,1.4611,1.5153,1.5601,0.0,0.0,0.0,0.0,0.0,0.0,1.6978,1.6978,1.6978,1.7114,1.7188,1.7188,1.7344,1.7494,1.765,1.765,1.7717,1.786,1.786,0.0,0.0,0.0,0.0,0.0,1.786,1.786,1.786,1.786,1.786,1.786,1.786,1.786,1.786,1.786,1.786,1.786,1.786,1.786,1.786,1.786,1.765,1.7419,1.7419,1.7419,1.7385,1.7229,1.7188,1.7154,1.7012,1.6978,1.6978,1.6978,1.6978,1.6978,1.6978,1.6978,1.6978,1.6978,1.6978,1.6978,1.6978,1.6978,1.7026,1.6949,1.7621,1.7967,1.7841,1.7875,1.7968,1.7875,1.7995,1.7864,1.7864,1.7939,1.7627,1.6976,1.7053,1.6978,1.6978,1.7049,1.7203,1.7864,1.7944,1.786,1.786,1.786,1.786,1.4244,1.4765,1.463,1.4646,1.3582,1.204,1.0398,1.0071,0.9734,0.8886,0.8554,0.8459,0.8608,0.8676,0.8994,0.9856,1.0154,1.0663,1.1748,1.2515,1.3241,1.3987,1.5228,1.6171,0.0,0.0,0.0,0.0,0.0,0.0,0.0,0.0,1.6978,1.6978,1.7121,1.7195,1.7195,1.7446,1.7602,1.765,1.7758,1.7826,1.786,1.786,0.0,0.0,0.0,0.0,0.0,1.786,1.786,1.786,1.786,1.786,1.786,1.786,1.786,1.786,1.786,1.786,1.786,1.786,1.786,1.786,1.786,1.7792,1.7724,1.7724,1.765,1.7561,1.7514,1.7426,1.7338,1.729,1.7063,1.7063,1.7063,1.7063,1.7063,1.7063,1.7063,1.7063,1.7063,1.7063,1.7063,1.7063,1.7063,1.6895,1.7041,1.7507,1.7806,1.7998,1.7792,1.7978,1.7875,1.7909,1.7909,1.7813,1.7878,1.7525,1.6976,1.7053,1.6978,1.6978,1.7049,1.7203,1.7864,1.7944,1.786,1.786,1.786,1.786,1.2853,1.2993,1.2581,1.2873,1.223,1.1286,1.0078,0.9722,0.9605,0.8933,0.8676,0.8615,0.8771,0.8798,0.9028,0.9741,1.0046,1.0521,1.145,1.2277,1.3173,1.4204,0.0,0.0,0.0,0.0,0.0,0.0,0.0,0.0,0.0,0.0,1.6978,1.6978,1.7175,1.7277,1.7277,1.7575,1.7738,1.7738,1.7826,1.786,1.786,0.0,0.0,0.0,0.0,0.0,0.0,1.786,1.786,1.786,1.786,1.786,1.786,1.786,1.786,1.786,1.786,1.786,1.786,1.786,1.786,1.786,1.786,1.786,1.786,1.786,1.7792,1.7717,1.7663,1.7582,1.7494,1.7433,1.7197,1.7197,1.6981,1.7197,1.7419,1.7419,1.7419,1.7419,1.7419,1.7419,1.7419,1.7419,1.7419,1.7257,1.7404,1.765,1.793,1.7846,1.786,1.7846,1.7792,1.7826,1.7826,1.7964,1.7595,1.746,1.6928,1.7003,1.6929,1.6929,1.6942,1.7284,1.7954,1.7964,1.786,1.786,1.786,1.786,0.0,1.0293,0.9965,1.058,1.0438,1.0172,0.9908,0.9601,0.0,0.9001,0.8825,0.8777,0.894,0.896,0.9022,0.9232,0.9747,1.0385,1.1124,1.2047,0.0,0.0,1.5493,0.0,0.0,0.0,0.0,0.0,0.0,0.0,0.0,0.0,1.6978,1.6978,1.727,1.7419,1.7419,1.7724,1.786,1.786,1.786,1.786,1.786,0.0,0.0,0.0,0.0,0.0,0.0,1.786,1.786,1.786,1.786,1.786,1.786,1.786,1.786,1.786,1.786,1.786,1.786,1.786,1.786,1.786,1.786,1.786,1.786,1.786,1.786,1.7826,1.7704,1.7663,1.7629,1.748,1.7453,1.7453,1.723,1.7453,1.7899,1.7899,1.7899,1.7899,1.7899,1.7899,1.7899,1.7899,1.7892,1.7933,1.7861,1.7875,1.7909,1.7826,1.7826,1.7792,1.7895,1.7998,1.7846,1.7826,1.7471,1.6962,1.7166,1.7034,1.6968,1.6981,1.712,1.7425,1.7895,1.7792,1.786,1.786,1.786,1.786,0.9116,0.0,1.0555,1.0714,1.0369,0.9843,0.0,0.9412,0.9293,0.9001,0.8913,0.8967,0.9232,0.9184,0.9374,1.0215,1.0663,1.1124,1.1762,1.3112,0.0,0.0,0.0,0.0,0.0,0.0,0.0,0.0,0.0,0.0,0.0,0.0,1.6978,1.6978,1.727,1.7419,1.7419,1.7724,1.786,1.786,1.786,1.786,1.786,0.0,0.0,0.0,0.0,0.0,1.786,1.786,1.786,1.786,1.786,1.786,1.786,1.786,1.786,1.786,1.786,1.786,1.786,1.786,1.786,1.786,1.786,1.786,1.786,1.786,1.786,1.786,1.7826,1.7812,1.7812,1.7772,1.7758,1.7758,1.7751,1.7758,1.7978,1.7978,1.7978,1.7978,1.7978,1.7978,1.7978,1.7978,1.7895,1.7847,1.7895,1.7799,1.7961,1.7996,1.7996,1.7982,1.7954,1.7944,1.7944,1.7843,1.7676,1.7662,1.776,1.7718,1.7753,1.7641,1.7792,1.7704,1.7812,1.7846,1.786,1.786,1.786,1.786,0.8756,0.9429,0.9924,0.9917,0.9665,0.9361,0.9149,0.9182,0.9211,0.8988,0.894,0.9008,0.9232,0.9266,0.949,1.0195,1.0677,1.1389,1.261,0.0,1.5187,1.6191,0.0,0.0,0.0,0.0,0.0,0.0,0.0,0.0,0.0,0.0,1.6978,1.6978,1.727,1.7385,1.7317,1.7684,1.7826,1.7772,1.7826,1.786,1.786,0.0,0.0,0.0,0.0,0.0,1.786,1.786,1.786,1.786,1.786,1.786,1.786,1.786,1.786,1.786,1.786,1.786,1.786,1.786,1.786,1.786,1.786,1.786,1.786,1.786,1.786,1.786,1.786,1.786,1.786,1.786,1.786,1.786,1.786,1.786,1.786,1.786,1.786,1.788,1.7948,1.7914,1.786,1.786,1.7978,1.9905,2.509,2.5762,2.5752,2.5752,2.583,2.585,2.5771,2.5806,2.3663,1.8245,2.2794,2.5772,2.5868,2.073,1.7933,1.7847,1.793,1.7792,1.786,1.786,1.786,1.786,1.786,1.786,0.8575,0.88,0.8907,0.9074,0.915,0.918,0.9042,0.9098,0.915,0.9028,0.9008,0.9062,0.9252,0.9435,0.9673,1.0039,1.0656,1.1742,1.3607,1.4645,1.5506,0.0,0.0,0.0,0.0,0.0,0.0,0.0,0.0,0.0,0.0,0.0,0.0,1.6978,1.727,1.7559,1.7819,1.8283,1.8452,1.8326,1.8452,1.8508,1.8508,1.8074,0.0,0.0,0.0,0.0,1.786,1.786,1.786,1.786,1.786,1.786,1.786,1.786,1.786,1.786,1.786,1.786,1.786,1.786,1.786,1.786,1.786,1.786,1.786,1.786,1.786,1.786,1.786,1.786,1.786,1.7901,1.7901,1.7894,1.7935,1.7914,1.7894,1.7935,1.7914,1.7935,1.7847,1.7982,1.7901,1.788,1.9346,2.4001,3.3943,3.5284,3.5184,3.5415,3.5391,3.5443,3.548,3.5417,3.1206,2.1516,2.981,3.5279,3.5226,2.5752,2.0631,2.0529,1.8743,1.7826,1.7826,1.788,1.7901,1.7894,1.7914,1.7935,0.814,0.8467,0.9174,1.0171,1.0472,1.0256,0.9483,0.9272,0.9218,0.932,0.9313,0.9435,0.9836,1.0134,1.0548,0.0,0.0,1.3302,0.0,0.0,0.0,0.0,0.0,0.0,0.0,0.0,0.0,0.0,0.0,0.0,0.0,0.0,0.0,1.6978,1.727,1.8402,2.075,2.1292,2.1546,2.1521,2.1546,2.1571,2.1562,1.8949,1.786,0.0,0.0,1.786,1.786,1.786,1.786,1.786,1.786,1.786,1.786,1.786,1.786,1.786,1.786,1.786,1.786,1.786,1.786,1.786,1.786,1.786,1.786,1.786,1.786,1.786,1.786,1.786,1.7901,1.8023,1.8057,1.786,1.7981,1.7914,1.786,1.7994,1.7914,1.7827,1.786,1.8307,1.8482,1.7901,2.6304,3.3272,3.4952,3.5271,3.564,3.6613,3.6667,3.6667,3.6626,3.6667,3.5909,3.4121,3.4834,3.5213,3.5191,3.3525,3.2494,3.2519,2.2857,1.793,1.793,1.8392,1.8287,1.7827,1.796,1.7788,0.8012,0.9171,1.0576,1.1471,1.0952,1.0143,1.0163,0.9985,0.9741,0.9741,0.968,0.9734,1.0107,1.0616,1.1355,1.2515,0.0,0.0,0.0,0.0,0.0,0.0,0.0,0.0,0.0,0.0,0.0,0.0,0.0,0.0,0.0,0.0,0.0,0.0,1.9484,2.0873,2.3831,2.5709,2.5058,2.2058,2.216,2.1343,1.9823,1.8508,1.786,1.786,0.0,1.786,1.786,1.786,1.786,1.786,1.786,1.786,1.786,1.786,1.786,1.786,1.786,1.786,1.786,1.786,1.786,1.786,1.786,1.786,1.788,1.7968,1.7935,1.788,1.7968,1.7989,1.8023,1.8179,1.8213,1.8226,1.8068,1.8267,1.8233,1.8068,1.8267,1.8445,1.8445,2.3994,2.8384,2.8175,3.2748,3.6175,3.6055,3.6055,3.6313,3.6802,3.6924,3.6799,3.6799,3.6799,3.6897,3.6829,3.5829,3.5115,3.5115,3.5732,3.5864,3.5261,2.6143,2.0195,1.7894,1.8335,1.8445,1.8213,1.8048,1.8081,0.7981,0.9453,1.1129,1.1713,1.0967,1.0257,1.1128,1.1148,1.0934,1.0548,1.0426,1.0365,1.0602,1.1341,0.0,1.3627,0.0,0.0,0.0,0.0,0.0,0.0,0.0,0.0,0.0,0.0,0.0,0.0,0.0,0.0,0.0,0.0,0.0,0.0,2.1899,2.3737,2.6829,2.9233,2.8354,2.414,2.343,2.1983,1.9823,1.8508,1.786,1.786,1.786,1.786,1.786,1.786,1.786,1.786,1.786,1.786,1.786,1.786,1.786,1.786,1.786,1.788,1.7914,1.7914,1.7914,1.7914,1.7914,1.7901,1.7901,1.8057,1.8002,1.7948,1.8111,1.8145,1.8179,1.8335,1.8375,1.8375,1.8409,1.8623,1.861,1.8141,1.8375,1.8823,1.8754,2.8859,3.6841,3.6967,3.7001,3.6799,3.6802,3.6964,3.6866,3.6866,3.6807,3.6941,3.6941,3.6941,3.7001,3.6802,3.5976,3.5515,3.5646,3.6406,3.65,3.5715,2.991,2.5273,2.1973,1.9439,1.8375,1.8375,1.8175,1.8195,0.8026,0.8579,0.9226,0.98,1.027,1.1155,1.275,1.3244,1.2925,1.2317,1.1891,1.1694,1.1714,1.2678,1.3682,1.434,0.0,0.0,0.0,0.0,0.0,0.0,0.0,0.0,0.0,0.0,0.0,0.0,0.0,0.0,0.0,0.0,0.0,0.0,0.0,2.6576,2.9524,3.0002,3.0364,3.017,2.7597,2.6097,2.5664,2.0239,1.786,1.786,1.786,1.786,1.786,1.786,1.786,1.786,1.786,1.786,1.786,1.786,1.786,1.786,1.786,1.7948,1.8077,1.8077,1.8077,1.8077,1.8077,1.7968,1.7901,1.8057,1.8091,1.8111,1.8267,1.8301,1.8335,1.8477,1.8511,1.8552,1.8694,1.8857,1.8754,1.8768,1.8768,1.8893,1.8853,2.8912,3.6879,3.7008,3.6941,3.6901,3.6874,3.6901,3.6901,3.6901,3.6941,3.6941,3.6941,3.6941,3.6941,3.6874,3.6853,3.6842,3.6843,3.6843,3.6843,3.6856,3.521,3.4245,3.3986,2.3745,1.8754,1.8754,1.866,1.8728,0.8036,0.8493,0.9029,0.9663,1.1149,1.2579,1.2986,1.3932,1.4454,1.3186,1.2813,1.2725,1.2915,0.0,1.4129,0.0,0.0,0.0,0.0,0.0,0.0,0.0,0.0,0.0,0.0,0.0,0.0,0.0,0.0,0.0,0.0,0.0,0.0,0.0,0.0,2.9489,3.2417,3.2595,3.2913,3.3193,3.0551,2.8253,2.6529,2.4145,2.2193,2.0474,2.0474,1.961,1.786,1.786,1.786,1.786,1.786,1.786,1.786,1.786,1.786,1.788,1.7968,1.8036,1.8111,1.8199,1.8233,1.8233,1.8233,1.8199,1.8179,1.8321,1.8375,1.8375,1.8443,1.8443,1.8498,1.864,1.8674,1.8694,1.8742,1.8708,1.8891,1.8802,2.4773,2.7549,2.0027,2.8807,3.6907,3.7008,3.6941,3.6941,3.6941,3.6941,3.6941,3.6941,3.6941,3.6941,3.6941,3.6941,3.6941,3.6941,3.6847,3.696,3.6866,3.6866,3.6866,3.6866,3.6511,3.2561,2.4992,2.0789,1.8823,1.8905,1.8728,1.8762,0.8115,0.8347,0.8964,1.028,1.235,1.3961,1.3538,1.4538,1.5139,1.4173,1.3729,1.3593,1.3804,0.0,0.0,0.0,0.0,0.0,0.0,0.0,0.0,0.0,0.0,0.0,0.0,0.0,0.0,0.0,0.0,0.0,0.0,0.0,0.0,0.0,0.0,0.0,3.3734,3.4122,3.4429,3.4629,3.3058,3.0632,2.7823,2.695,2.5447,2.3511,2.3511,2.2,1.9177,1.9177,1.8736,1.786,1.786,1.786,1.786,1.786,1.7901,1.7948,1.8057,1.8145,1.8247,1.8355,1.8389,1.8389,1.8389,1.8355,1.8355,1.8498,1.8531,1.8545,1.8586,1.8599,1.864,1.8742,1.8762,1.8762,1.8762,1.8762,1.8708,1.8754,2.8625,3.4244,2.5853,3.1339,3.6998,3.6967,3.6941,3.6941,3.6941,3.6941,3.6941,3.6941,3.6879,3.6905,3.6941,3.7008,3.6812,3.6941,3.6941,3.6941,3.6941,3.6941,3.6941,3.6941,3.6972,3.2727,2.4397,2.0591,1.8836,1.8694,1.8749,1.8762,0.8341,0.8011,0.8705,1.1796,1.3899,1.5127,1.4735,1.4805,1.5002,1.5197,1.4719,1.4312,1.4306,1.455,0.0,0.0,0.0,0.0,0.0,0.0,0.0,0.0,0.0,0.0,0.0,0.0,0.0,0.0,0.0,0.0,0.0,0.0,0.0,0.0,0.0,0.0,3.3414,3.4015,3.4322,3.4322,3.491,3.3672,3.0846,2.7823,2.6529,2.6529,2.6529,2.4806,2.2219,2.2219,2.0474,1.8088,1.8088,1.7867,1.7867,1.7867,1.7955,1.8091,1.8091,1.8287,1.8531,1.8531,1.8531,1.8531,1.8531,1.8443,1.8355,1.8498,1.8531,1.8565,1.8728,1.8762,1.8762,1.8762,1.8762,1.8762,1.8762,1.8762,1.8905,1.8858,2.8522,3.6966,3.6839,3.6945,3.6998,3.6967,3.6941,3.6941,3.6941,3.6941,3.6941,3.6941,3.6946,3.6814,3.6967,3.6945,3.6972,3.6967,3.6941,3.6941,3.6941,3.6941,3.6941,3.6941,3.6972,3.688,3.6867,2.4822,1.9018,1.8788,1.8694,1.8762,0.961,0.9842,1.0579,1.3704,1.4546,1.4712,1.5096,1.537,1.5636,1.5684,1.535,1.5045,1.4943,0.0,0.0,0.0,0.0,0.0,0.0,0.0,0.0,0.0,0.0,0.0,0.0,0.0,0.0,0.0,0.0,0.0,0.0,0.0,0.0,0.0,0.0,0.0,3.3414,3.4015,3.4322,3.4322,3.491,3.4755,3.3883,3.3023,3.1497,2.9551,2.9551,2.8038,2.5231,2.5231,2.4797,2.3928,2.3928,2.263,2.0905,2.0905,1.9632,1.7968,1.8179,1.8301,1.8423,1.862,1.8694,1.8694,1.8694,1.8654,1.864,1.8674,1.8694,1.8708,1.8742,1.8762,1.8762,1.8762,1.8762,1.8762,1.8762,1.8694,1.8788,1.8844,2.8523,3.6973,3.7008,3.7008,3.6812,3.6941,3.6941,3.6941,3.6941,3.6941,3.7256,3.7999,3.7471,3.7208,3.8012,3.7377,3.6812,3.6941,3.6941,3.6941,3.6941,3.6941,3.6941,3.6941,3.7008,3.6905,3.688,3.3284,2.7143,1.8788,1.8823,1.8905,0.9571,1.0168,1.0989,1.3841,1.4711,1.4922,1.5512,1.5765,1.5913,1.6035,1.571,1.5493,1.5459,0.0,0.0,0.0,0.0,0.0,0.0,0.0,0.0,0.0,0.0,0.0,0.0,0.0,0.0,0.0,0.0,0.0,0.0,0.0,0.0,0.0,0.0,0.0,3.3414,3.4135,3.4442,3.4322,3.491,3.5191,3.5191,3.5191,3.4319,3.2573,3.1485,2.9979,2.8253,2.6961,2.6529,2.6529,2.6529,2.5447,2.3937,2.3937,2.29,2.1261,2.0446,2.0132,2.0251,2.0504,1.9669,1.898,2.0051,2.0527,2.0586,2.0504,2.144,2.2407,2.2407,2.2407,2.1725,1.9444,1.8762,1.8762,1.8762,1.8891,2.0171,2.5022,3.1838,3.6998,3.6967,3.6941,3.6941,3.6941,3.6941,3.6941,3.6941,3.6812,3.7195,3.7856,3.7843,3.7802,3.7897,3.7248,3.6879,3.6879,3.6879,3.6905,3.6998,3.6812,3.6941,3.6941,3.6812,3.6905,3.6945,3.6933,3.313,2.5978,2.1102,1.8836,0.9038,0.9757,1.0773,1.2943,1.4622,1.5639,1.5794,1.5872,1.5913,1.6056,0.0,1.5716,1.5852,0.0,0.0,0.0,0.0,0.0,0.0,0.0,0.0,0.0,0.0,0.0,0.0,0.0,0.0,0.0,0.0,0.0,0.0,0.0,0.0,0.0,0.0,0.0,3.3454,3.4295,3.4603,0.0,3.4937,3.5191,3.5191,3.5191,3.5191,3.498,3.2361,3.1272,3.1059,2.8468,2.7392,2.7392,2.7392,2.7176,2.6961,2.6961,2.6877,2.6435,2.379,2.3095,2.3249,2.3682,2.1685,2.0066,2.2627,2.3596,2.3708,2.3552,2.5685,2.7874,2.7874,2.7874,2.6509,2.1041,1.9683,1.9683,1.9683,1.9548,2.2751,3.405,3.6562,3.6998,3.6967,3.6941,3.6941,3.6941,3.6941,3.6941,3.6941,3.6905,3.6841,3.6841,3.7874,3.8181,3.692,3.6841,3.6841,3.688,3.7118,3.7026,3.705,3.7011,3.6967,3.6967,3.6972,3.6945,3.6941,3.6973,3.684,3.6617,2.4549,1.8768,1.0841,1.2523,1.4066,1.4342,1.517,1.5925,1.594,1.6035,1.6042,1.6076,1.6029,1.5995,0.0,0.0,0.0,0.0,0.0,0.0,0.0,0.0,0.0,0.0,0.0,0.0,0.0,0.0,0.0,0.0,0.0,0.0,0.0,0.0,0.0,0.0,0.0,3.3601,3.3788,3.4202,3.4496,0.0,3.503,3.5191,3.5191,3.5191,3.5191,3.5191,3.4544,3.4319,3.4319,3.3672,3.3235,3.3235,3.3235,3.1935,2.9979,2.9979,2.85,2.6443,2.6403,2.602,2.5961,2.6349,2.59,2.5348,2.6134,2.6427,2.6485,2.6838,2.738,2.7874,2.7874,2.7874,2.7647,2.6272,2.6044,2.6044,2.6044,2.4677,2.5254,3.1004,3.473,3.7008,3.6941,3.6941,3.6941,3.6941,3.6941,3.6941,3.6941,3.7008,3.6812,3.6812,3.7897,3.8311,3.6986,3.6945,3.6879,3.688,3.787,3.8298,3.833,3.7475,3.6998,3.6998,3.6879,3.7034,3.7686,3.7061,3.6972,3.6617,2.4442,1.8913,1.1143,1.34,1.5245,1.5255,1.5563,1.5981,1.6062,1.6137,1.6171,1.6096,1.6137,1.6212,0.0,0.0,0.0,0.0,0.0,0.0,0.0,0.0,0.0,0.0,0.0,0.0,0.0,0.0,0.0,0.0,0.0,0.0,0.0,0.0,0.0,0.0,3.3561,3.3641,3.3654,3.4095,3.4322,3.4349,3.4643,3.4857,3.499,3.5137,3.5191,3.5191,3.5191,3.5191,3.5191,3.5191,3.5191,3.5191,3.5191,3.4319,3.301,3.301,3.1935,3.0477,2.9544,2.8945,2.8891,2.926,2.8375,2.7176,2.8754,2.9346,2.9531,2.9786,3.0857,3.2172,3.2172,3.2172,3.2172,3.2172,2.99,2.7874,2.7874,2.7917,2.8243,3.0432,3.416,3.6941,3.6941,3.6941,3.6941,3.6941,3.6941,3.6941,3.6941,3.6941,3.6941,3.6941,3.7897,3.8181,3.6919,3.6972,3.7101,3.7673,3.8393,3.8665,3.8762,3.821,3.7742,3.7848,3.7807,3.7659,3.7404,3.7051,3.6814,3.6656,2.8326,2.2536,1.0603,1.3009,1.5069,1.5511,1.5815,1.6049,1.6076,1.6178,1.6239,1.6144,1.6225,0.0,0.0,0.0,0.0,0.0,0.0,0.0,0.0,0.0,0.0,0.0,0.0,0.0,0.0,0.0,0.0,0.0,0.0,0.0,0.0,0.0,3.3414,3.3414,3.3668,3.3708,3.3494,3.3988,3.4148,3.3961,3.4202,3.4469,3.4776,3.5017,3.5151,3.5191,3.5191,3.5191,3.5191,3.5191,3.5191,3.5191,3.5191,3.5191,3.5191,3.5191,3.5191,3.4808,3.273,3.1905,3.1881,3.2181,3.0457,2.8823,3.1351,3.2483,3.2588,3.2676,3.477,3.6941,3.6941,3.6941,3.6941,3.6941,3.3092,2.9459,2.9459,3.0756,3.1832,3.1832,3.463,3.6941,3.6941,3.6941,3.6941,3.6941,3.6941,3.6941,3.6941,3.7114,3.7235,3.7235,3.8167,3.8224,3.7207,3.7171,3.7735,3.8591,3.8692,3.856,3.8718,3.8735,3.8735,3.8733,3.8641,3.8184,3.7118,3.6879,3.6933,3.6706,3.2749,2.7171,0.9061,1.1355,1.393,1.5053,1.5533,1.592,1.6049,1.6096,1.6144,0.0,1.6293,0.0,0.0,0.0,0.0,0.0,0.0,0.0,0.0,0.0,0.0,0.0,0.0,0.0,0.0,0.0,0.0,0.0,0.0,0.0,3.3414,3.3414,3.3414,3.3414,3.3454,3.3587,3.3828,3.3908,3.4055,3.4269,3.4295,3.4469,3.4763,3.4803,3.4963,3.5191,3.5191,3.5191,3.5191,3.5191,3.5191,3.5191,3.5191,3.5191,3.5191,3.5191,3.5191,3.5271,3.5376,3.5016,3.4688,3.5226,3.4841,3.4302,3.52,3.5397,3.5554,3.6026,3.664,3.6941,3.6941,3.6941,3.6941,3.6941,3.6263,3.5793,3.5793,3.6002,3.6028,3.6028,3.6484,3.6941,3.6941,3.6941,3.6941,3.6941,3.6941,3.6941,3.6941,3.7849,3.8464,3.8464,3.8557,3.8624,3.8366,3.8546,3.8488,3.8796,3.8251,3.8047,3.8718,3.8691,3.8664,3.8624,3.8641,3.8222,3.7382,3.7157,3.6998,3.6706,3.2749,2.9352,0.9942,1.1884,1.3768,1.497,1.5588,1.5913,1.6157,1.6273,1.6327,1.6313,0.0,0.0,0.0,0.0,0.0,0.0,0.0,0.0,0.0,0.0,0.0,0.0,0.0,0.0,0.0,0.0,0.0,0.0,0.0,3.3414,3.3414,3.3414,3.3414,3.3414,3.3414,3.348,3.3614,3.3614,3.3681,3.3814,3.4162,3.4309,3.4282,3.479,3.5084,3.5191,3.5191,3.5191,3.5191,3.5191,3.5191,3.5191,3.5191,3.5191,3.5191,3.5191,3.5191,3.5257,3.5685,3.5551,3.5271,3.5685,3.5538,3.5271,3.5698,3.5939,3.6166,3.658,3.6834,3.6941,3.6941,3.6941,3.6941,3.6941,3.6941,3.6941,3.6941,3.6941,3.6941,3.6941,3.6941,3.6941,3.6941,3.6941,3.6941,3.6941,3.6941,3.7195,3.7849,3.8397,3.8718,3.8718,3.8718,3.8718,3.8718,3.8735,3.86,3.86,3.841,3.8531,3.8718,3.8718,3.8718,3.8718,3.8735,3.8452,3.8116,3.7702,3.725,3.7195,3.5151,3.282,1.0518,1.1918,1.3075,1.4414,1.5153,1.5615,1.5995,1.6279,1.6429,0.0,0.0,0.0,0.0,0.0,0.0,0.0,0.0,0.0,0.0,0.0,0.0,0.0,0.0,0.0,0.0,0.0,0.0,0.0,0.0,3.3414,3.3414,3.3414,3.3414,3.3414,3.3414,3.3414,3.3414,3.3414,3.3414,3.3414,3.3868,3.4015,3.3908,3.4563,3.495,3.5097,3.5164,3.5191,3.5191,3.5191,3.5191,3.5191,3.5191,3.5191,3.5191,3.5191,3.5191,3.5244,3.5525,3.5485,3.5351,3.5645,3.5591,3.5471,3.5765,3.6006,3.6246,3.654,3.6754,3.6941,3.6941,3.6941,3.6941,3.6941,3.6941,3.6941,3.6941,3.6941,3.6941,3.6941,3.6941,3.6941,3.6941,3.7189,3.7202,3.6941,3.7195,3.7702,3.8611,3.8718,3.8718,3.8718,3.8718,3.8718,3.8718,3.8718,3.8718,3.8718,3.8718,3.8718,3.8718,3.8718,3.8718,3.8718,3.8718,3.8584,3.852,3.805,3.7782,3.7489,3.7261,3.5566,0.9255,1.0115,1.1212,1.2712,1.3838,1.4733,1.5323,1.5906,1.6279,1.6123,0.0,0.0,0.0,0.0,0.0,0.0,0.0,0.0,0.0,0.0,0.0,0.0,0.0,0.0,0.0,0.0,0.0,0.0,0.0,3.3414,3.3414,3.3414,3.3414,3.3414,3.3414,3.3414,3.3414,3.3414,3.3414,3.3414,3.344,3.3614,3.3881,3.3935,3.4255,3.4803,3.5084,3.5191,3.5191,3.5191,3.5191,3.5191,3.5191,3.5191,3.5191,3.5191,3.5191,3.5244,3.5525,3.5618,3.5658,3.5952,3.6046,3.6086,3.6366,3.6473,3.654,3.6834,3.6941,3.6941,3.6941,3.6941,3.6941,3.6941,3.6941,3.6941,3.6941,3.6941,3.6941,3.6941,3.6941,3.6941,3.6941,3.7934,3.8211,3.7176,3.7916,3.8651,3.8718,3.8718,3.8718,3.8718,3.8718,3.8718,3.8718,3.8718,3.8718,3.8718,3.8718,3.8718,3.8718,3.8718,3.8718,3.8718,3.8718,3.8571,3.8237,3.825,3.8076,3.7782,3.7782,3.6129,0.96,1.0246,1.0887,1.2203,1.3173,1.4007,1.4801,1.552,1.6056,1.6198,0.0,0.0,0.0,0.0,0.0,0.0,0.0,0.0,0.0,0.0,0.0,0.0,0.0,0.0,0.0,0.0,0.0,0.0,0.0,0.0,3.34,3.3414,3.3414,3.3414,3.3414,3.3414,3.3414,3.3414,3.3414,3.3414,3.3614,3.3668,3.3587,3.3988,3.4175,3.4229,3.471,3.5017,3.5191,3.5191,3.5191,3.5191,3.5191,3.5191,3.5191,3.5191,3.5191,3.5244,3.5525,3.5631,3.5672,3.5979,3.6072,3.6126,3.6433,3.65,3.658,3.6861,3.6941,3.6941,3.6941,3.6941,3.6941,3.6941,3.7128,3.7301,3.7235,3.7235,3.7235,3.7235,3.7382,3.7489,3.7489,3.8089,3.8587,3.8076,3.8437,3.8718,3.8718,3.8718,3.8718,3.8718,3.8718,3.8718,3.8718,3.8718,3.8718,3.8718,3.8718,3.8718,3.8718,3.8718,3.8718,3.8718,3.8718,3.8651,3.8531,3.8357,3.8223,3.8103,3.7889,3.7128,0.9286,0.9683,1.027,1.1525,1.225,1.299,1.4299,1.5011,1.5533,1.5988,0.0,0.0,0.0,0.0,0.0,0.0,0.0,0.0,0.0,0.0,0.0,0.0,0.0,0.0,0.0,0.0,0.0,0.0,0.0,0.0,3.34,3.3414,3.3414,3.3414,3.3414,3.3414,3.3414,3.3414,3.3414,3.3414,3.3627,3.3614,3.3427,3.3828,3.3975,3.3908,3.4402,3.4776,3.5057,3.5151,3.5191,3.5191,3.5191,3.5191,3.5191,3.5191,3.5257,3.5364,3.5565,3.5752,3.5952,3.6153,3.6286,3.6393,3.658,3.6647,3.6687,3.6874,3.6941,3.6941,3.6941,3.6941,3.6941,3.6941,3.7235,3.7448,3.7382,3.7422,3.7448,3.7529,3.7529,3.7635,3.8036,3.8464,3.8718,3.8718,3.8718,3.8718,3.8718,3.8718,3.8718,3.8718,3.8718,3.8718,3.8718,3.8718,3.8718,3.8718,3.8718,3.8718,3.8718,3.8718,3.8718,3.8718,3.8718,3.8718,3.8718,3.8504,3.8397,3.8397,3.821,3.7417,0.0,0.0,0.0,1.0561,1.1009,1.1667,1.3736,1.4326,1.4658,1.5445,0.0,0.0,0.0,0.0,0.0,0.0,0.0,0.0,0.0,0.0,0.0,0.0,0.0,0.0,0.0,0.0,0.0,0.0,0.0,3.308,3.3374,3.3387,3.34,3.3414,3.3414,3.3414,3.3414,3.3414,3.3414,3.3414,3.3414,3.3414,3.3414,3.3414,3.3587,3.3895,3.4189,3.4496,3.479,3.5084,3.5191,3.5191,3.5191,3.5191,3.5191,3.5191,3.5378,3.5631,3.5631,3.6019,3.65,3.65,3.6687,3.6941,3.6941,3.6941,3.6941,3.6941,3.6941,3.6941,3.6941,3.6941,3.6941,3.6941,3.7155,3.7382,3.7422,3.7489,3.7595,3.7782,3.7382,3.7368,3.8544,3.8718,3.8718,3.8718,3.8718,3.8718,3.8718,3.8718,3.8718,3.8718,3.8718,3.8718,3.8718,3.8718,3.8718,3.8718,3.8718,3.8718,3.8718,3.8718,3.8718,3.8718,3.8718,3.8718,3.8718,3.8718,3.8718,3.8718,3.8718,3.7037,0.8296,0.0,0.0,0.0,0.0,0.0,0.0,0.0,1.3132,1.4536,0.0,0.0,0.0,0.0,0.0,0.0,0.0,0.0,0.0,0.0,0.0,0.0,0.0,0.0,0.0,0.0,0.0,0.0,3.2345,3.2478,3.2772,3.2986,3.32,3.34,3.3414,3.3414,3.3414,3.3414,3.3414,3.3414,3.3414,3.3414,3.3414,3.3414,3.3587,3.3895,3.4189,3.4496,3.479,3.5084,3.5191,3.5191,3.5191,3.5191,3.5191,3.5191,3.5378,3.5631,3.5631,3.6019,3.65,3.65,3.6687,3.6941,3.6941,3.6941,3.6941,3.6941,3.6941,3.6941,3.6941,3.6941,3.6981,3.7195,3.7382,3.7555,3.7849,3.8183,3.8317,3.8076,3.8143,3.833,3.8651,3.8718,3.8718,3.8718,3.8718,3.8718,3.8718,3.8718,3.8718,3.8718,3.8718,3.8718,3.8718,3.8718,3.8718,3.8718,3.8718,3.8718,3.8718,3.8718,3.8718,3.8718,3.8718,3.8718,3.8718,3.8718,3.8718,3.8718,3.8718,3.824,0.8927,0.0,0.0,0.0,0.0,0.0,1.2037,1.2142,1.2325,0.0,0.0,0.0,0.0,0.0,0.0,0.0,0.0,0.0,0.0,0.0,0.0,0.0,0.0,0.0,0.0,0.0,0.0,3.2078,3.2104,3.2238,3.2532,3.2826,3.3053,3.3227,3.3347,3.3414,3.3414,3.3414,3.3414,3.3414,3.3414,3.3414,3.3414,3.3414,3.3587,3.3895,3.4189,3.4496,3.479,3.5084,3.5191,3.5191,3.5191,3.5191,3.5191,3.5191,3.5458,3.5819,3.5819,3.6193,3.6687,3.6687,3.6794,3.6941,3.6941,3.6941,3.6941,3.6941,3.6941,3.6941,3.6941,3.7008,3.7155,3.7342,3.7569,3.7809,3.8063,3.8437,3.8651,3.8397,3.8544,3.8718,3.8718,3.8718,3.8718,3.8718,3.8718,3.8718,3.8718,3.8718,3.8718,3.8718,3.8718,3.8718,3.8718,3.8718,3.8718,3.8718,3.8718,3.8718,3.8718,3.8718,3.8718,3.8718,3.8718,3.8718,3.8718,3.8718,3.8718,3.8718,3.8718,3.8718,0.9988,1.0451,0.0,0.0,0.0,0.0,1.3367,1.2836,1.2136,0.0,0.0,0.0,0.0,0.0,0.0,0.0,0.0,0.0,0.0,0.0,0.0,0.0,0.0,0.0,0.0,3.1664,3.1784,3.2038,3.2051,3.2185,3.2478,3.2746,3.2906,3.2973,3.3227,3.3374,3.3414,3.3414,3.3414,3.3414,3.3414,3.3414,3.3414,3.3414,3.3601,3.3948,3.4202,3.4509,3.483,3.5097,3.5191,3.5191,3.5191,3.5191,3.5204,3.5231,3.5591,3.6072,3.6112,3.6473,3.6941,3.6941,3.6941,3.6941,3.6941,3.6941,3.6941,3.6941,3.6941,3.6941,3.6941,3.7128,3.7342,3.7382,3.7742,3.8103,3.8143,3.8464,3.8718,3.8718,3.8718,3.8718,3.8718,3.8718,3.8718,3.8718,3.8718,3.8718,3.8718,3.8718,3.8718,3.8718,3.8718,3.8718,3.8718,3.8718,3.8718,3.8718,3.8718,3.8718,3.8718,3.8718,3.8718,3.8718,3.8718,3.8718,3.8718,3.8718,3.8718,3.8718,3.8718,3.8718,1.197,1.1913,1.2225,0.0,0.0,0.0,1.3082,1.2751,1.2417,0.0,1.7349,2.053,1.9745,0.0,0.0,0.0,0.0,0.0,0.0,0.0,0.0,0.0,0.0,0.0,0.0,3.1664,3.169,3.1744,3.1757,3.1877,3.2171,3.2238,3.2492,3.2959,3.3026,3.3173,3.3414,3.3414,3.3414,3.3414,3.3414,3.3414,3.3414,3.3414,3.3708,3.4242,3.4295,3.4616,3.5124,3.5177,3.5191,3.5191,3.5191,3.5191,3.5231,3.5458,3.5765,3.6099,3.634,3.6647,3.6941,3.6941,3.6941,3.6941,3.6941,3.6941,3.6941,3.6941,3.6941,3.6941,3.6941,3.6981,3.7114,3.7408,3.7702,3.7996,3.8504,3.8651,3.8718,3.8718,3.8718,3.8718,3.8718,3.8718,3.8718,3.8718,3.8718,3.8718,3.8718,3.8718,3.8718,3.8718,3.8718,3.8718,3.8718,3.8718,3.8718,3.8718,3.8718,3.8718,3.8718,3.8718,3.8718,3.8718,3.8718,3.8718,3.8718,3.8718,3.8718,3.8718,3.8718,3.8718,1.3346,1.3873,1.5013,1.3816,0.0,0.0,0.0,1.461,1.3934,1.4764,1.7558,1.983,2.0036,0.0,0.0,0.0,0.0,0.0,0.0,0.0,0.0,0.0,0.0,0.0,0.0,3.1891,3.1891,3.1891,3.1757,3.173,3.1877,3.2024,3.2305,3.2746,3.2906,3.312,3.3414,3.3414,3.3414,3.3414,3.3414,3.3414,3.3414,3.3574,3.3895,3.4322,3.4469,3.479,3.5191,3.5191,3.5191,3.5191,3.5191,3.5191,3.5231,3.5525,3.5819,3.6112,3.6393,3.6687,3.6941,3.6941,3.6941,3.6941,3.6941,3.6941,3.6941,3.6941,3.6941,3.6941,3.6941,3.7088,3.7261,3.7489,3.7889,3.8357,3.8651,3.8718,3.8718,3.8718,3.8718,3.8718,3.8718,3.8718,3.8718,3.8718,3.8718,3.8718,3.8718,3.8718,3.8718,3.8718,3.8718,3.8718,3.8718,3.8718,3.8718,3.8718,3.8718,3.8718,3.8718,3.8718,3.8718,3.8718,3.8718,3.8718,3.8718,3.8718,3.8718,3.8718,3.8718,3.8718,0.0,0.0,0.0,0.0,0.0,1.6154,0.0,0.0,0.0,1.6086,0.0,0.0,0.0,0.0,0.0,0.0,0.0,0.0,0.0,0.0,0.0,0.0,0.0,0.0,0.0,3.1717,3.177,3.1998,3.1597,3.1436,3.1664,3.1891,3.2158,3.2452,3.2746,3.304,3.332,3.3387,3.3414,3.3414,3.3414,3.3414,3.3427,3.3748,3.4042,3.4336,3.4629,3.4923,3.5191,3.5191,3.5191,3.5191,3.5191,3.5191,3.5244,3.5591,3.5872,3.6126,3.6473,3.6754,3.6941,3.6941,3.6941,3.6941,3.6941,3.6941,3.6941,3.6941,3.6941,3.6941,3.6941,3.7235,3.7489,3.7408,3.7996,3.8584,3.8691,3.8718,3.8718,3.8718,3.8718,3.8718,3.8718,3.8718,3.8718,3.8718,3.8718,3.8718,3.8718,3.8718,3.8718,3.8718,3.8718,3.8718,3.8718,3.8718,3.8718,3.8718,3.8718,3.8718,3.8718,3.8718,3.8718,3.8718,3.8718,3.8718,3.8718,3.8718,3.8718,3.8718,3.8718,3.8718,0.0,0.0,0.0,0.0,1.8997,0.0,0.0,0.0,1.6739,1.461,0.0,0.0,0.0,0.0,0.0,0.0,0.0,0.0,0.0,0.0,0.0,0.0,0.0,0.0,0.0,0.0,3.0595,3.1637,3.0728,3.0568,3.161,3.1704,3.1851,3.2144,3.2438,3.2732,3.3026,3.328,3.3414,3.3414,3.3414,3.3414,3.3427,3.3748,3.4042,3.4336,3.4629,3.4923,3.5191,3.5191,3.5191,3.5191,3.5191,3.5191,3.5257,3.5819,3.6046,3.6153,3.6687,3.6901,3.6941,3.6941,3.6941,3.6941,3.6941,3.6941,3.6941,3.6941,3.6941,3.6941,3.6941,3.7155,3.7342,3.7088,3.7489,3.8063,3.8611,3.8718,3.8718,3.8718,3.8718,3.8718,3.8718,3.8718,3.8718,3.8718,3.8718,3.8718,3.8718,3.8718,3.8718,3.8718,3.8718,3.8718,3.8718,3.8718,3.8718,3.8718,3.8718,3.8718,3.8718,3.8718,3.8718,3.8718,3.8718,3.8718,3.8718,3.8718,3.8718,3.8718,3.8718,3.8718,0.0,0.0,0.0,0.0,0.0,0.0,0.0,0.0,1.8394,0.0,0.0,0.0,0.0,0.0,0.0,0.0,0.0,0.0,0.0,0.0,0.0,0.0,0.0,0.0,0.0,0.0,0.0,0.0,0.0,3.0354,3.1356,3.157,3.1797,3.2091,3.2385,3.2692,3.2973,3.3267,3.3414,3.3414,3.3414,3.3414,3.3427,3.3921,3.4202,3.4349,3.4817,3.5084,3.5191,3.5191,3.5191,3.5191,3.5191,3.5191,3.5271,3.5859,3.6072,3.6153,3.6727,3.6941,3.6941,3.6941,3.6941,3.6941,3.6941,3.6941,3.6941,3.6941,3.6941,3.6981,3.7155,3.7342,3.7489,3.7595,3.7996,3.8397,3.8651,3.8718,3.8718,3.8718,3.8718,3.8718,3.8718,3.8718,3.8718,3.8718,3.8718,3.8718,3.8718,3.8718,3.8718,3.8718,3.8718,3.8718,3.8718,3.8718,3.8718,3.8718,3.8718,3.8718,3.8718,3.8718,3.8718,3.8718,3.8718,3.8718,3.8718,3.8718,3.8718,3.8718,3.8718,3.8718,2.2538,0.0,0.0,0.0,0.0,0.0,0.0,0.0,0.0,0.0,0.0,0.0,0.0,0.0,0.0,0.0,0.0,0.0,0.0,0.0,0.0,0.0,0.0,0.0,0.0,0.0,0.0,0.0,0.0,0.0,3.1036,3.1316,3.1597,3.1971,3.2345,3.2652,3.2866,3.3227,3.3414,3.3414,3.3414,3.3454,3.3561,3.4082,3.4362,3.4469,3.4977,3.5191,3.5191,3.5191,3.5191,3.5191,3.5191,3.5191,3.5271,3.5859,3.6072,3.6153,3.6727,3.6941,3.6941,3.6941,3.6941,3.6941,3.6941,3.6941,3.6941,3.6941,3.7008,3.7114,3.7315,3.7555,3.7782,3.8036,3.8437,3.8718,3.8718,3.8718,3.8718,3.8718,3.8718,3.8718,3.8718,3.8718,3.8718,3.8718,3.8718,3.8718,3.8718,3.8718,3.8718,3.8718,3.8718,3.8718,3.8718,3.8718,3.8718,3.8718,3.8718,3.8718,3.8718,3.8718,3.8718,3.8718,3.8718,3.8718,3.8718,3.8718,3.8718,3.8718,3.8718,3.8718,0.0,0.0,0.0,0.0,0.0,0.0,0.0,0.0,2.0926,0.0,0.0,0.0,0.0,0.0,0.0,0.0,0.0,0.0,0.0,0.0,0.0,0.0,0.0,0.0,0.0,0.0,0.0,0.0,0.0,0.0,3.0648,3.0808,3.1089,3.1664,3.2238,3.2545,3.2559,3.3133,3.3414,3.3414,3.3414,3.3574,3.3881,3.4189,3.4469,3.4763,3.507,3.5191,3.5191,3.5191,3.5191,3.5191,3.5191,3.5191,3.5271,3.5859,3.6072,3.6153,3.6727,3.6941,3.6941,3.6941,3.6941,3.6941,3.6941,3.6941,3.6941,3.6941,3.7155,3.7382,3.7382,3.7823,3.8223,3.8143,3.8437,3.8718,3.8718,3.8718,3.8718,3.8718,3.8718,3.8718,3.8718,3.8718,3.8718,3.8718,3.8718,3.8718,3.8718,3.8718,3.8718,3.8718,3.8718,3.8718,3.8718,3.8718,3.8718,3.8718,3.8718,3.8718,3.8718,3.8718,3.8718,3.8718,3.8718,3.8718,3.8718,3.8718,3.8718,3.8718,3.8718,3.8718,0.0,0.0,2.7255,2.4796,0.0,0.0,0.0,0.0,0.0,0.0,0.0,0.0,0.0,0.0,0.0,0.0,0.0,0.0,0.0,0.0,0.0,0.0,0.0,0.0,0.0,0.0,0.0,0.0,2.6961,0.0,0.0,3.0581,3.1062,3.165,3.2238,3.2639,3.2826,3.3213,3.3414,3.3414,3.3414,3.3574,3.3895,3.4189,3.4482,3.4776,3.507,3.5191,3.5191,3.5191,3.5191,3.5191,3.5191,3.5311,3.5525,3.5925,3.6072,3.6153,3.6727,3.6941,3.6941,3.6941,3.6941,3.6941,3.6941,3.6941,3.6981,3.7168,3.7301,3.7462,3.7863,3.8116,3.829,3.8477,3.8611,3.8718,3.8718,3.8718,3.8718,3.8718,3.8718,3.8718,3.8718,3.8718,3.8718,3.8718,3.8718,3.8718,3.8718,3.8718,3.8718,3.8718,3.8718,3.8718,3.8718,3.8718,3.8718,3.8718,3.8718,3.8718,3.8718,3.8718,3.8718,3.8718,3.8718,3.8718,3.8718,3.8718,3.8718,3.8718,3.8718,3.8718,2.8524,2.8631,0.0,0.0,2.5571,0.0,0.0,0.0,0.0,0.0,0.0,0.0,0.0,0.0,0.0,0.0,0.0,0.0,0.0,1.8985,0.0,0.0,0.0,0.0,0.0,0.0,2.3941,2.6039,2.5718,2.6547,0.0,0.0,3.0648,3.1343,3.2131,3.2639,3.2826,3.3213,3.3414,3.3414,3.3521,3.3748,3.4055,3.4336,3.4643,3.4923,3.511,3.5191,3.5191,3.5191,3.5191,3.5191,3.5191,3.5378,3.5672,3.5965,3.6206,3.6433,3.6794,3.6941,3.6941,3.6941,3.6941,3.6941,3.6941,3.6941,3.7008,3.7301,3.7448,3.7635,3.8143,3.833,3.8477,3.8691,3.8718,3.8718,3.8718,3.8718,3.8718,3.8718,3.8718,3.8718,3.8718,3.8718,3.8718,3.8718,3.8718,3.8718,3.8718,3.8718,3.8718,3.8718,3.8718,3.8718,3.8718,3.8718,3.8718,3.8718,3.8718,3.8718,3.8718,3.8718,3.8718,3.8718,3.8718,3.8718,3.8718,3.8718,3.8718,3.8718,3.8718,3.8718]}]]